[[{"header":{"parameterUnit":"m.s-1","parameterCategory":1,"la1":31.0,"la2":29.5877,"lo1":-88.7671,"lo2":-86.6584,"dy":0.0162,"dx":0.0185,"nx":115,"ny":88,"refTime":"2023-03-11T06:00:00:Z","depth":0,"parameterNumber":2,"parameterNumberName":"U-component_of_WINDS"},"data":[0.0,0.0,0.0,0.0,0.0,0.0,0.0,0.0,0.0,0.0,0.0,0.0,0.0,0.0,0.0,0.0,0.0,0.0,0.0,0.0,0.0,0.0,0.0,0.0,0.0,0.0,0.0,0.0,0.0,0.0,0.0,0.0,0.0,0.0,0.0,0.0,0.0,0.0,0.0,0.0,0.0,0.0,0.0,0.0,0.0,0.0,0.0,0.0,0.0,0.0,0.0,0.0,0.0,0.0,0.0,0.0,0.0,0.0,0.0,0.0,0.0,0.0,0.0,0.0,0.0,0.0,0.0,0.0,0.0,0.0,0.0,0.0,0.0,0.0,0.0,0.0,0.0,0.0,0.0,0.0,0.0,0.0,0.0,0.0,0.0,0.0,0.0,0.0,0.0,0.0,0.0,0.0,0.0,0.0,0.0,0.0,0.0,0.0,0.0,0.0,0.0,0.0,0.0,0.0,0.0,0.0,0.0,0.0,0.0,0.0,0.0,0.0,0.0,0.0,0.0,0.0,0.0,0.0,0.0,0.0,0.0,0.0,0.0,0.0,0.0,0.0,0.0,0.0,0.0,0.0,0.0,0.0,0.0,0.0,0.0,0.0,0.0,0.0,0.0,0.0,0.0,0.0,0.0,0.0,0.0,0.0,0.0,0.0,0.0,0.0,0.0,0.0,0.0,0.0,0.0,0.0,0.0,0.0,0.0,0.0,0.0,0.0,0.0,0.0,0.0,0.0,0.0,0.0,0.0,0.0,0.0,0.0,0.0,0.0,0.0,0.0,0.0,0.0,0.0,0.0,0.0,0.0,0.0,0.0,0.0,0.0,0.0,0.0,0.0,0.0,0.0,0.0,0.0,0.0,0.0,0.0,0.0,0.0,0.0,0.0,0.0,0.0,0.0,0.0,0.0,0.0,0.0,0.0,0.0,0.0,0.0,0.0,0.0,0.0,0.0,0.0,0.0,0.0,0.0,0.0,0.0,0.0,0.0,0.0,0.0,0.0,0.0,0.0,0.0,0.0,0.0,0.0,0.0,0.0,0.0,0.0,0.0,0.0,0.0,0.0,0.0,0.0,0.0,0.0,0.0,0.0,0.0,0.0,0.0,0.0,0.0,0.0,0.0,0.0,0.0,0.0,0.0,0.0,0.0,0.0,0.0,0.0,0.0,0.0,0.0,0.0,0.0,0.0,0.0,0.0,0.0,0.0,0.0,0.0,0.0,0.0,0.0,0.0,0.0,0.0,0.0,0.0,0.0,0.0,0.0,0.0,0.0,0.0,0.0,0.0,0.0,0.0,0.0,0.0,0.0,0.0,0.0,0.0,0.0,0.0,0.0,0.0,0.0,0.0,0.0,0.0,0.0,0.0,0.0,0.0,0.0,0.0,0.0,0.0,0.0,0.0,0.0,0.0,0.0,0.0,0.0,0.0,0.0,0.0,0.0,0.0,0.0,0.0,0.0,0.0,0.0,0.0,0.0,0.0,0.0,0.0,0.0,0.0,0.0,0.0,0.0,0.0,0.0,0.0,0.0,0.0,0.0,0.0,0.0,0.0,0.0,0.0,0.0,0.0,0.0,0.0,0.0,0.0,0.0,0.0,0.0,0.0,0.0,0.0,0.0,0.0,0.0,0.0,0.0,0.0,0.0,0.0,0.0,0.0,0.0,0.0,0.0,0.0,0.0,0.0,0.0,0.0,0.0,0.0,0.0,0.0,0.0,0.0,0.0,0.0,0.0,0.0,0.0,0.0,0.0,0.0,0.0,0.0,0.0,0.0,0.0,0.0,0.0,0.0,0.0,0.0,0.0,0.0,0.0,0.0,0.0,0.0,0.0,0.0,0.0,0.0,0.0,0.0,0.0,0.0,0.0,0.0,0.0,0.0,0.0,0.0,0.0,0.0,0.0,0.0,0.0,0.0,0.0,0.0,0.0,0.0,0.0,0.0,0.0,0.0,0.0,0.0,0.0,0.0,0.0,0.0,0.0,0.0,0.0,0.0,0.0,0.0,0.0,0.0,0.0,0.0,0.0,0.0,0.0,0.0,0.0,0.0,0.0,0.0,0.0,0.0,0.0,0.0,0.0,0.0,0.0,0.0,0.0,0.0,0.0,0.0,0.0,0.0,0.0,0.0,0.0,0.0,0.0,0.0,0.0,0.0,0.0,0.0,0.0,0.0,0.0,0.0,0.0,0.0,0.0,0.0,0.0,0.0,0.0,0.0,0.0,0.0,0.0,0.0,0.0,0.0,0.0,0.0,0.0,0.0,0.0,0.0,0.0,0.0,0.0,0.0,0.0,0.0,0.0,0.0,0.0,0.0,0.0,0.0,0.0,0.0,0.0,0.0,0.0,0.0,0.0,0.0,0.0,0.0,0.0,0.0,0.0,0.0,0.0,0.0,0.0,0.0,0.0,0.0,0.0,0.0,0.0,0.0,0.0,0.0,0.0,0.0,0.0,0.0,0.0,0.0,0.0,0.0,0.0,0.0,0.0,0.0,0.0,0.0,0.0,0.0,0.0,0.0,0.0,0.0,0.0,0.0,0.0,0.0,0.0,0.0,0.0,0.0,0.0,0.0,0.0,0.0,0.0,0.0,0.0,0.0,0.0,0.0,0.0,0.0,0.0,0.0,0.0,0.0,0.0,0.0,0.0,0.0,0.0,0.0,0.0,0.0,0.0,0.0,0.0,0.0,0.0,0.0,0.0,0.0,0.0,0.0,0.0,0.0,0.0,0.0,0.0,0.0,0.0,0.0,0.0,0.0,0.0,0.0,0.0,0.0,0.0,0.0,0.0,0.0,0.0,0.0,0.0,0.0,0.0,0.0,0.0,0.0,0.0,0.0,0.0,0.0,0.0,0.0,0.0,0.0,0.0,0.0,0.0,0.0,0.0,0.0,0.0,0.0,0.0,0.0,0.0,0.0,0.0,0.0,0.0,0.0,0.0,0.0,0.0,0.0,0.0,0.0,0.0,0.0,0.0,0.0,0.0,0.0,0.0,0.0,0.0,0.0,0.0,0.0,0.0,0.0,0.0,0.0,0.0,0.0,0.0,0.0,0.0,0.0,0.0,0.0,0.0,0.0,0.0,0.0,0.0,0.0,0.0,0.0,0.0,0.0,0.0,0.0,0.0,0.0,0.0,0.0,0.0,0.0,0.0,0.0,0.0,0.0,0.0,0.0,0.0,0.0,0.0,0.0,0.0,0.0,0.0,0.0,0.0,0.0,0.0,0.0,0.0,0.0,0.0,0.0,0.0,0.0,0.0,0.0,0.0,0.0,0.0,0.0,0.0,0.0,0.0,0.0,0.0,0.0,0.0,0.0,0.0,0.0,0.0,0.0,0.0,0.0,0.0,0.0,0.0,0.0,0.0,0.0,0.0,0.0,0.0,0.0,0.0,0.0,0.0,0.0,0.0,0.0,0.0,0.0,0.0,0.0,0.0,0.0,0.0,0.0,0.0,0.0,0.0,0.0,0.0,0.0,0.0,0.0,0.0,0.0,0.0,0.0,0.0,0.0,0.0,0.0,0.0,0.0,0.0,0.0,0.0,0.0,0.0,0.0,0.0,0.0,0.0,0.0,0.0,0.0,0.0,0.0,0.0,0.0,0.0,0.0,0.0,0.0,0.0,0.0,0.0,0.0,0.0,0.0,0.0,0.0,0.0,0.0,0.0,0.0,0.0,0.0,0.0,0.0,0.0,0.0,0.0,0.0,0.0,0.0,0.0,0.0,0.0,0.0,0.0,0.0,0.0,0.0,0.0,0.0,0.0,0.0,0.0,0.0,0.0,0.0,0.0,0.0,0.0,0.0,0.0,0.0,0.0,0.0,0.0,0.0,0.0,0.0,0.0,0.0,0.0,0.0,0.0,0.0,0.0,0.0,0.0,0.0,0.0,0.0,0.0,0.0,0.0,0.0,0.0,0.0,0.0,0.0,0.0,0.0,0.0,0.0,0.0,0.0,0.0,0.0,0.0,0.0,0.0,0.0,0.0,0.0,0.0,0.0,0.0,0.0,0.0,0.0,0.0,0.0,0.0,0.0,0.0,0.0,0.0,0.0,0.0,0.0,0.0,0.0,0.0,0.0,0.0,0.0,0.0,0.0,0.0,0.0,0.0,0.0,0.0,0.0,0.0,0.0,0.0,0.0,0.0,0.0,0.0,0.0,0.0,0.0,0.0,0.0,0.0,0.0,0.0,0.0,0.0,0.0,0.0,0.0,0.0,0.0,0.0,0.0,0.0,0.0,0.0,0.0,0.0,0.0,0.0,0.0,0.0,0.0,0.0,0.0,6.1297,0.0,0.0,0.0,0.0,0.0,0.0,0.0,0.0,0.0,0.0,0.0,0.0,0.0,0.0,0.0,0.0,0.0,0.0,0.0,0.0,0.0,0.0,0.0,0.0,0.0,0.0,0.0,0.0,0.0,0.0,0.0,0.0,0.0,0.0,0.0,0.0,0.0,0.0,0.0,0.0,0.0,0.0,0.0,0.0,0.0,0.0,0.0,0.0,0.0,0.0,0.0,0.0,0.0,0.0,0.0,0.0,0.0,0.0,0.0,0.0,0.0,0.0,0.0,0.0,0.0,0.0,0.0,0.0,0.0,0.0,0.0,0.0,0.0,0.0,0.0,0.0,0.0,0.0,0.0,0.0,0.0,0.0,0.0,0.0,0.0,0.0,0.0,0.0,0.0,0.0,0.0,0.0,0.0,0.0,0.0,0.0,0.0,0.0,0.0,0.0,0.0,0.0,0.0,0.0,0.0,0.0,0.0,0.0,0.0,0.0,6.3232,6.2795,6.1912,6.1447,6.1361,0.0,0.0,0.0,0.0,0.0,0.0,0.0,0.0,0.0,0.0,0.0,0.0,0.0,0.0,0.0,0.0,0.0,0.0,0.0,0.0,0.0,0.0,0.0,0.0,0.0,0.0,0.0,0.0,0.0,0.0,0.0,0.0,0.0,0.0,0.0,0.0,0.0,0.0,0.0,0.0,0.0,0.0,0.0,0.0,0.0,0.0,0.0,0.0,0.0,0.0,0.0,0.0,0.0,0.0,0.0,0.0,0.0,0.0,0.0,0.0,0.0,0.0,0.0,0.0,0.0,0.0,0.0,0.0,0.0,0.0,0.0,0.0,0.0,0.0,0.0,0.0,0.0,0.0,0.0,0.0,0.0,0.0,0.0,0.0,0.0,0.0,0.0,0.0,0.0,0.0,0.0,0.0,0.0,0.0,0.0,0.0,0.0,0.0,0.0,0.0,0.0,0.0,0.0,0.0,0.0,0.0,0.0,0.0,0.0,0.0,0.0,0.0,6.1879,6.1511,6.1419,0.0,0.0,0.0,0.0,0.0,0.0,0.0,0.0,0.0,0.0,0.0,0.0,0.0,0.0,0.0,0.0,0.0,0.0,0.0,0.0,0.0,0.0,0.0,0.0,0.0,0.0,0.0,0.0,0.0,0.0,0.0,0.0,0.0,0.0,0.0,0.0,0.0,0.0,0.0,0.0,0.0,0.0,0.0,0.0,0.0,0.0,0.0,0.0,0.0,0.0,0.0,0.0,0.0,0.0,0.0,0.0,0.0,0.0,0.0,0.0,0.0,0.0,0.0,0.0,0.0,0.0,0.0,0.0,0.0,0.0,0.0,0.0,0.0,0.0,0.0,0.0,0.0,0.0,0.0,0.0,0.0,0.0,0.0,0.0,0.0,0.0,0.0,0.0,0.0,0.0,0.0,0.0,0.0,0.0,0.0,0.0,0.0,0.0,0.0,0.0,0.0,0.0,0.0,0.0,0.0,0.0,0.0,0.0,0.0,0.0,6.2577,6.1759,6.1655,0.0,6.1381,0.0,0.0,0.0,0.0,0.0,0.0,0.0,0.0,0.0,0.0,0.0,0.0,0.0,0.0,0.0,0.0,0.0,0.0,0.0,0.0,0.0,0.0,0.0,0.0,0.0,0.0,0.0,0.0,0.0,0.0,0.0,0.0,0.0,0.0,0.0,0.0,0.0,0.0,0.0,0.0,0.0,0.0,0.0,0.0,0.0,0.0,0.0,0.0,0.0,0.0,0.0,0.0,0.0,0.0,0.0,0.0,0.0,0.0,0.0,0.0,0.0,0.0,0.0,0.0,0.0,0.0,0.0,0.0,0.0,0.0,0.0,0.0,0.0,0.0,0.0,0.0,0.0,0.0,0.0,0.0,0.0,0.0,0.0,0.0,0.0,0.0,0.0,0.0,0.0,0.0,0.0,0.0,0.0,0.0,0.0,0.0,0.0,0.0,0.0,0.0,0.0,0.0,0.0,0.0,0.0,0.0,0.0,0.0,0.0,0.0,6.2038,6.1627,6.1539,6.1495,0.0,0.0,0.0,0.0,0.0,0.0,0.0,0.0,0.0,0.0,0.0,0.0,0.0,0.0,0.0,0.0,0.0,0.0,0.0,0.0,0.0,0.0,0.0,0.0,0.0,0.0,0.0,0.0,0.0,0.0,0.0,0.0,0.0,0.0,0.0,0.0,0.0,0.0,0.0,0.0,0.0,0.0,0.0,0.0,0.0,0.0,0.0,0.0,0.0,0.0,0.0,0.0,0.0,0.0,0.0,0.0,0.0,0.0,0.0,0.0,0.0,0.0,0.0,0.0,0.0,0.0,0.0,0.0,0.0,0.0,0.0,0.0,0.0,0.0,0.0,0.0,0.0,0.0,0.0,0.0,0.0,0.0,0.0,0.0,0.0,0.0,0.0,0.0,0.0,0.0,0.0,0.0,0.0,0.0,0.0,0.0,0.0,0.0,0.0,0.0,0.0,0.0,0.0,0.0,0.0,0.0,0.0,0.0,0.0,0.0,6.2022,6.166,6.1641,6.1344,6.1156,6.1085,0.0,0.0,0.0,0.0,0.0,0.0,0.0,0.0,0.0,0.0,0.0,0.0,0.0,0.0,0.0,0.0,0.0,0.0,0.0,0.0,0.0,0.0,0.0,0.0,0.0,0.0,0.0,0.0,0.0,0.0,0.0,0.0,0.0,0.0,0.0,0.0,0.0,0.0,0.0,0.0,0.0,0.0,0.0,0.0,0.0,0.0,0.0,0.0,0.0,0.0,0.0,0.0,0.0,0.0,0.0,0.0,0.0,0.0,0.0,0.0,0.0,0.0,0.0,0.0,0.0,0.0,0.0,0.0,0.0,0.0,0.0,0.0,0.0,0.0,0.0,0.0,0.0,0.0,0.0,0.0,0.0,0.0,0.0,0.0,0.0,0.0,0.0,0.0,0.0,0.0,0.0,0.0,0.0,0.0,0.0,0.0,0.0,0.0,0.0,0.0,0.0,0.0,0.0,0.0,0.0,0.0,0.0,0.0,0.0,6.172,6.171,6.1699,6.0824,6.036,0.0,0.0,0.0,0.0,0.0,0.0,0.0,0.0,0.0,0.0,0.0,0.0,0.0,0.0,0.0,0.0,0.0,0.0,0.0,0.0,0.0,0.0,0.0,0.0,0.0,0.0,0.0,0.0,0.0,0.0,0.0,0.0,0.0,0.0,0.0,0.0,0.0,0.0,0.0,0.0,0.0,0.0,0.0,0.0,0.0,0.0,0.0,0.0,0.0,0.0,0.0,0.0,0.0,0.0,0.0,0.0,0.0,0.0,0.0,0.0,0.0,0.0,0.0,0.0,0.0,0.0,0.0,0.0,0.0,0.0,0.0,0.0,0.0,0.0,0.0,0.0,0.0,0.0,0.0,0.0,0.0,0.0,0.0,0.0,0.0,0.0,0.0,0.0,0.0,0.0,0.0,0.0,0.0,0.0,0.0,0.0,0.0,0.0,0.0,0.0,0.0,0.0,0.0,0.0,0.0,0.0,0.0,0.0,0.0,6.172,6.171,6.1705,6.166,6.0847,6.0348,0.0,0.0,0.0,0.0,0.0,0.0,0.0,0.0,0.0,0.0,0.0,0.0,0.0,0.0,0.0,0.0,0.0,0.0,0.0,0.0,0.0,0.0,0.0,0.0,0.0,0.0,0.0,0.0,0.0,0.0,0.0,0.0,0.0,0.0,0.0,0.0,0.0,0.0,0.0,0.0,0.0,0.0,0.0,0.0,0.0,0.0,0.0,0.0,0.0,0.0,0.0,0.0,0.0,0.0,0.0,0.0,0.0,0.0,0.0,0.0,0.0,0.0,0.0,0.0,0.0,0.0,0.0,0.0,0.0,0.0,0.0,0.0,0.0,0.0,0.0,0.0,0.0,0.0,0.0,0.0,0.0,0.0,0.0,0.0,0.0,0.0,0.0,0.0,0.0,0.0,0.0,0.0,0.0,0.0,0.0,0.0,0.0,0.0,0.0,0.0,0.0,0.0,0.0,0.0,0.0,0.0,0.0,0.0,0.0,6.172,0.0,6.1705,0.0,6.0834,6.023,0.0,0.0,0.0,0.0,0.0,0.0,0.0,0.0,0.0,0.0,0.0,0.0,0.0,0.0,0.0,0.0,0.0,0.0,0.0,0.0,0.0,0.0,0.0,0.0,0.0,0.0,0.0,0.0,0.0,0.0,0.0,0.0,0.0,0.0,0.0,0.0,0.0,0.0,0.0,0.0,0.0,0.0,0.0,0.0,0.0,0.0,0.0,0.0,0.0,0.0,0.0,0.0,0.0,0.0,0.0,0.0,0.0,0.0,0.0,0.0,0.0,0.0,0.0,0.0,0.0,0.0,0.0,0.0,0.0,0.0,0.0,0.0,0.0,0.0,0.0,0.0,0.0,0.0,0.0,0.0,0.0,0.0,0.0,0.0,0.0,0.0,0.0,0.0,0.0,0.0,0.0,0.0,0.0,0.0,0.0,0.0,0.0,0.0,0.0,0.0,0.0,0.0,0.0,0.0,0.0,0.0,0.0,0.0,6.1759,6.172,6.1759,6.1837,6.172,6.0924,6.0021,0.0,0.0,0.0,0.0,0.0,0.0,0.0,0.0,0.0,0.0,0.0,0.0,0.0,0.0,0.0,0.0,0.0,0.0,0.0,0.0,0.0,0.0,0.0,0.0,0.0,0.0,0.0,0.0,0.0,0.0,0.0,0.0,0.0,0.0,0.0,0.0,0.0,0.0,0.0,0.0,0.0,0.0,0.0,0.0,0.0,0.0,0.0,0.0,0.0,0.0,0.0,0.0,0.0,0.0,0.0,0.0,0.0,0.0,0.0,0.0,0.0,0.0,0.0,0.0,0.0,0.0,0.0,0.0,0.0,0.0,0.0,0.0,0.0,0.0,0.0,0.0,0.0,0.0,0.0,0.0,0.0,0.0,0.0,0.0,0.0,0.0,0.0,0.0,0.0,0.0,0.0,0.0,0.0,0.0,0.0,0.0,0.0,0.0,0.0,0.0,0.0,0.0,0.0,0.0,0.0,0.0,0.0,0.0,0.0,6.2618,6.3164,6.3477,6.3438,6.2067,6.1164,0.0,0.0,0.0,0.0,0.0,0.0,0.0,0.0,0.0,0.0,0.0,0.0,0.0,0.0,0.0,0.0,0.0,0.0,0.0,0.0,0.0,0.0,0.0,0.0,0.0,0.0,0.0,0.0,0.0,0.0,0.0,0.0,0.0,0.0,0.0,0.0,0.0,0.0,0.0,0.0,0.0,0.0,0.0,0.0,0.0,0.0,0.0,0.0,0.0,0.0,0.0,0.0,0.0,0.0,0.0,0.0,0.0,0.0,0.0,0.0,0.0,0.0,0.0,0.0,0.0,0.0,0.0,0.0,0.0,0.0,0.0,0.0,0.0,0.0,0.0,0.0,0.0,0.0,0.0,0.0,0.0,0.0,0.0,0.0,0.0,0.0,0.0,0.0,0.0,0.0,0.0,0.0,0.0,0.0,0.0,0.0,0.0,0.0,0.0,0.0,0.0,0.0,0.0,0.0,0.0,0.0,0.0,0.0,0.0,6.5858,6.578,6.5546,6.5234,6.4179,6.316,6.2178,0.0,0.0,0.0,0.0,0.0,0.0,0.0,0.0,0.0,0.0,0.0,0.0,0.0,0.0,0.0,0.0,0.0,0.0,0.0,0.0,0.0,0.0,0.0,0.0,0.0,0.0,0.0,0.0,0.0,0.0,0.0,0.0,0.0,0.0,0.0,0.0,0.0,0.0,0.0,0.0,0.0,0.0,0.0,0.0,0.0,0.0,0.0,0.0,0.0,0.0,0.0,0.0,0.0,0.0,0.0,0.0,0.0,0.0,0.0,0.0,0.0,0.0,0.0,0.0,0.0,0.0,0.0,0.0,0.0,0.0,0.0,0.0,0.0,0.0,0.0,0.0,0.0,0.0,0.0,0.0,0.0,0.0,0.0,0.0,0.0,0.0,0.0,0.0,0.0,0.0,0.0,0.0,0.0,0.0,0.0,0.0,0.0,0.0,0.0,0.0,0.0,0.0,0.0,0.0,0.0,0.0,0.0,0.0,7.105,6.9606,6.8357,6.7224,6.7068,6.5858,0.0,0.0,0.0,0.0,0.0,0.0,0.0,0.0,0.0,0.0,0.0,0.0,0.0,0.0,0.0,0.0,0.0,0.0,0.0,0.0,0.0,0.0,0.0,0.0,0.0,0.0,0.0,0.0,0.0,0.0,0.0,0.0,0.0,0.0,0.0,0.0,0.0,0.0,0.0,0.0,0.0,0.0,0.0,0.0,0.0,0.0,0.0,0.0,0.0,0.0,0.0,0.0,0.0,0.0,0.0,0.0,0.0,0.0,0.0,0.0,0.0,0.0,0.0,0.0,0.0,0.0,0.0,0.0,0.0,0.0,0.0,0.0,0.0,0.0,0.0,0.0,0.0,0.0,0.0,0.0,0.0,0.0,0.0,0.0,0.0,0.0,0.0,0.0,0.0,0.0,0.0,0.0,0.0,0.0,0.0,0.0,0.0,0.0,0.0,0.0,0.0,0.0,0.0,0.0,0.0,0.0,0.0,0.0,0.0,7.5305,7.6867,7.5696,7.1753,7.0348,6.8747,0.0,0.0,0.0,0.0,0.0,0.0,0.0,0.0,0.0,0.0,0.0,0.0,0.0,0.0,0.0,0.0,0.0,0.0,0.0,0.0,0.0,0.0,0.0,0.0,0.0,0.0,0.0,0.0,0.0,0.0,0.0,0.0,0.0,0.0,0.0,0.0,0.0,0.0,0.0,0.0,0.0,0.0,0.0,0.0,0.0,0.0,0.0,0.0,0.0,0.0,0.0,0.0,0.0,0.0,0.0,0.0,0.0,0.0,0.0,0.0,0.0,0.0,0.0,0.0,0.0,0.0,0.0,0.0,0.0,0.0,0.0,0.0,0.0,0.0,0.0,0.0,0.0,0.0,0.0,0.0,0.0,0.0,0.0,0.0,0.0,0.0,0.0,0.0,0.0,0.0,0.0,0.0,0.0,0.0,0.0,0.0,0.0,0.0,0.0,0.0,0.0,0.0,0.0,0.0,0.0,0.0,0.0,0.0,7.511,7.9717,8.1981,8.1708,7.8741,7.5618,7.2456,0.0,0.0,0.0,0.0,0.0,0.0,0.0,0.0,0.0,0.0,0.0,0.0,0.0,0.0,0.0,0.0,0.0,0.0,0.0,0.0,0.0,0.0,0.0,0.0,0.0,0.0,0.0,0.0,0.0,0.0,0.0,0.0,0.0,0.0,0.0,0.0,0.0,0.0,0.0,0.0,0.0,0.0,0.0,0.0,0.0,0.0,0.0,0.0,0.0,0.0,0.0,0.0,0.0,0.0,0.0,0.0,0.0,0.0,0.0,0.0,0.0,0.0,0.0,0.0,0.0,0.0,0.0,0.0,0.0,0.0,0.0,0.0,0.0,0.0,0.0,0.0,0.0,0.0,0.0,0.0,0.0,0.0,0.0,0.0,0.0,0.0,0.0,0.0,0.0,0.0,0.0,0.0,0.0,0.0,0.0,0.0,0.0,0.0,0.0,0.0,0.0,0.0,0.0,0.0,0.0,0.0,0.0,0.0,7.8663,8.3933,8.5807,8.6783,8.6627,8.1669,7.6516,0.0,0.0,0.0,0.0,0.0,0.0,0.0,0.0,0.0,0.0,0.0,0.0,0.0,0.0,0.0,0.0,0.0,0.0,0.0,0.0,0.0,0.0,0.0,0.0,0.0,0.0,0.0,0.0,0.0,0.0,0.0,0.0,0.0,0.0,0.0,0.0,0.0,0.0,0.0,0.0,0.0,0.0,0.0,0.0,0.0,0.0,0.0,0.0,0.0,0.0,0.0,0.0,0.0,0.0,0.0,0.0,0.0,0.0,0.0,0.0,0.0,0.0,0.0,0.0,0.0,0.0,0.0,0.0,0.0,0.0,0.0,0.0,0.0,0.0,0.0,0.0,0.0,0.0,0.0,0.0,0.0,0.0,0.0,0.0,0.0,0.0,0.0,0.0,0.0,0.0,0.0,0.0,0.0,0.0,0.0,0.0,0.0,0.0,0.0,0.0,0.0,0.0,0.0,0.0,0.0,0.0,0.0,0.0,8.1005,8.7407,8.9906,9.1155,9.1116,8.5456,7.999,0.0,0.0,0.0,0.0,0.0,0.0,0.0,0.0,0.0,0.0,0.0,0.0,0.0,0.0,0.0,0.0,0.0,0.0,0.0,0.0,0.0,0.0,0.0,0.0,0.0,0.0,0.0,0.0,0.0,0.0,0.0,0.0,0.0,0.0,0.0,0.0,0.0,0.0,0.0,0.0,0.0,0.0,0.0,0.0,0.0,0.0,0.0,0.0,5.1433,0.0,0.0,0.0,0.0,0.0,0.0,0.0,0.0,0.0,0.0,0.0,0.0,0.0,0.0,0.0,0.0,0.0,0.0,0.0,0.0,0.0,0.0,0.0,0.0,0.0,0.0,0.0,0.0,0.0,0.0,0.0,0.0,0.0,0.0,0.0,0.0,0.0,0.0,0.0,0.0,0.0,0.0,0.0,0.0,0.0,0.0,0.0,0.0,0.0,0.0,0.0,0.0,0.0,0.0,0.0,0.0,0.0,0.0,0.0,8.3543,9.0257,9.299,9.4161,9.3615,8.9477,8.3972,0.0,0.0,0.0,0.0,0.0,0.0,0.0,0.0,0.0,0.0,0.0,0.0,0.0,0.0,0.0,0.0,0.0,0.0,0.0,0.0,0.0,0.0,0.0,0.0,0.0,0.0,0.0,0.0,0.0,0.0,0.0,0.0,0.0,0.0,0.0,0.0,0.0,0.0,0.0,0.0,0.0,0.0,0.0,0.0,0.0,0.0,0.0,0.0,0.0,0.0,0.0,0.0,0.0,0.0,0.0,0.0,0.0,0.0,0.0,0.0,0.0,0.0,0.0,0.0,0.0,0.0,0.0,0.0,0.0,0.0,0.0,0.0,0.0,0.0,0.0,0.0,0.0,0.0,0.0,0.0,0.0,0.0,0.0,0.0,0.0,0.0,0.0,0.0,0.0,0.0,0.0,0.0,0.0,0.0,0.0,0.0,0.0,0.0,0.0,0.0,0.0,0.0,0.0,0.0,0.0,0.0,0.0,7.9912,8.5963,9.2443,9.5371,9.6386,9.5488,9.2873,8.7564,7.9326,0.0,0.0,0.0,0.0,0.0,0.0,0.0,0.0,0.0,0.0,0.0,0.0,0.0,0.0,0.0,0.0,0.0,0.0,0.0,0.0,0.0,0.0,0.0,0.0,0.0,0.0,0.0,0.0,0.0,0.0,0.0,0.0,0.0,0.0,0.0,0.0,0.0,0.0,5.4282,5.4919,0.0,0.0,0.0,0.0,0.0,0.0,0.0,0.0,5.1002,0.0,0.0,0.0,0.0,0.0,0.0,0.0,0.0,0.0,0.0,0.0,0.0,0.0,0.0,0.0,0.0,0.0,0.0,0.0,0.0,0.0,0.0,0.0,0.0,0.0,0.0,0.0,0.0,0.0,0.0,0.0,0.0,0.0,0.0,0.0,0.0,0.0,0.0,0.0,0.0,0.0,0.0,0.0,0.0,0.0,0.0,0.0,0.0,0.0,0.0,0.0,0.0,0.0,0.0,0.0,0.0,7.4486,8.1044,8.7368,9.3458,9.6855,9.8182,9.7245,9.4044,8.893,8.1903,0.0,0.0,0.0,0.0,0.0,0.0,0.0,0.0,0.0,0.0,0.0,0.0,0.0,0.0,0.0,0.0,0.0,0.0,0.0,0.0,0.0,0.0,0.0,0.0,0.0,0.0,0.0,0.0,0.0,0.0,0.0,0.0,0.0,0.0,0.0,0.0,0.0,0.0,0.0,5.5326,5.5403,0.0,0.0,0.0,0.0,0.0,0.0,0.0,0.0,5.2132,0.0,0.0,0.0,0.0,0.0,0.0,0.0,0.0,0.0,0.0,0.0,0.0,0.0,0.0,0.0,0.0,0.0,0.0,0.0,0.0,0.0,0.0,0.0,0.0,0.0,0.0,0.0,0.0,0.0,0.0,0.0,0.0,0.0,0.0,0.0,0.0,0.0,0.0,0.0,0.0,0.0,0.0,0.0,0.0,0.0,0.0,0.0,0.0,0.0,0.0,0.0,0.0,0.0,0.0,0.0,7.5813,8.2215,8.8618,9.4942,9.7675,9.8572,9.7636,9.3458,8.7993,0.0,0.0,0.0,0.0,0.0,0.0,0.0,0.0,0.0,0.0,0.0,0.0,0.0,0.0,0.0,0.0,0.0,0.0,0.0,0.0,0.0,0.0,0.0,0.0,0.0,0.0,0.0,0.0,0.0,0.0,0.0,0.0,0.0,0.0,0.0,0.0,0.0,0.0,0.0,0.0,5.5403,5.5377,5.5313,0.0,0.0,0.0,0.0,0.0,0.0,5.3052,5.2444,0.0,0.0,0.0,0.0,0.0,0.0,0.0,0.0,0.0,0.0,0.0,0.0,0.0,0.0,0.0,0.0,0.0,0.0,0.0,0.0,0.0,0.0,0.0,0.0,0.0,0.0,0.0,0.0,0.0,0.0,0.0,0.0,0.0,0.0,0.0,0.0,0.0,0.0,0.0,0.0,0.0,0.0,0.0,0.0,0.0,0.0,0.0,0.0,0.0,0.0,0.0,0.0,0.0,0.0,0.0,7.7531,8.3738,8.9984,9.6152,9.8299,9.869,9.7401,9.26,8.6744,0.0,0.0,0.0,0.0,0.0,0.0,0.0,0.0,0.0,0.0,0.0,0.0,0.0,0.0,0.0,0.0,0.0,0.0,0.0,0.0,0.0,0.0,0.0,0.0,0.0,0.0,0.0,0.0,0.0,0.0,0.0,0.0,0.0,0.0,0.0,0.0,0.0,0.0,0.0,0.0,0.0,5.5656,5.5679,5.569,0.0,0.0,0.0,0.0,5.4515,5.3765,0.0,0.0,0.0,0.0,0.0,0.0,0.0,0.0,0.0,0.0,0.0,0.0,0.0,0.0,0.0,0.0,0.0,0.0,0.0,0.0,0.0,0.0,0.0,0.0,0.0,0.0,0.0,0.0,0.0,0.0,0.0,0.0,0.0,0.0,0.0,0.0,0.0,0.0,0.0,0.0,0.0,0.0,0.0,0.0,0.0,0.0,0.0,0.0,0.0,0.0,0.0,0.0,0.0,0.0,0.0,0.0,7.9366,8.608,9.178,9.623,9.8846,9.9002,9.6582,9.2287,8.6744,0.0,0.0,0.0,0.0,0.0,0.0,0.0,0.0,0.0,0.0,0.0,0.0,0.0,0.0,0.0,0.0,0.0,0.0,0.0,0.0,0.0,0.0,0.0,0.0,0.0,0.0,0.0,0.0,0.0,0.0,0.0,0.0,0.0,0.0,0.0,0.0,0.0,0.0,0.0,0.0,0.0,5.6605,5.7206,5.7358,5.7291,0.0,0.0,5.7059,5.6998,5.6277,0.0,0.0,0.0,0.0,0.0,0.0,0.0,0.0,0.0,0.0,0.0,0.0,0.0,0.0,0.0,0.0,0.0,0.0,0.0,0.0,0.0,0.0,0.0,0.0,0.0,0.0,0.0,0.0,0.0,0.0,0.0,0.0,0.0,0.0,0.0,0.0,0.0,0.0,0.0,0.0,0.0,0.0,0.0,0.0,0.0,0.0,0.0,0.0,0.0,0.0,0.0,0.0,0.0,0.0,0.0,7.3666,7.9678,8.651,9.2326,9.6972,9.8729,9.8533,9.6464,9.1272,8.526,0.0,0.0,0.0,0.0,0.0,0.0,0.0,0.0,0.0,0.0,0.0,0.0,0.0,0.0,0.0,0.0,0.0,0.0,0.0,0.0,0.0,0.0,0.0,0.0,0.0,0.0,0.0,0.0,0.0,0.0,0.0,0.0,0.0,0.0,0.0,0.0,0.0,0.0,0.0,0.0,0.0,0.0,5.7452,5.7984,0.0,0.0,0.0,5.8015,5.746,0.0,0.0,0.0,0.0,0.0,0.0,0.0,0.0,0.0,0.0,0.0,0.0,0.0,0.0,0.0,0.0,0.0,0.0,0.0,0.0,0.0,0.0,0.0,0.0,0.0,0.0,0.0,0.0,0.0,0.0,0.0,0.0,0.0,0.0,0.0,0.0,0.0,0.0,0.0,0.0,0.0,0.0,0.0,0.0,0.0,0.0,0.0,0.0,0.0,0.0,0.0,0.0,0.0,0.0,0.0,0.0,0.0,8.0302,8.7134,9.2912,9.7518,9.8768,9.8299,9.6074,9.0648,0.0,0.0,0.0,0.0,0.0,0.0,0.0,0.0,0.0,0.0,0.0,0.0,0.0,0.0,0.0,0.0,0.0,0.0,0.0,0.0,0.0,0.0,0.0,0.0,0.0,0.0,0.0,5.0283,0.0,0.0,0.0,0.0,0.0,0.0,0.0,0.0,0.0,0.0,0.0,0.0,0.0,0.0,5.7034,5.797,5.8843,5.9039,0.0,0.0,5.9014,5.8142,5.7056,5.6374,0.0,0.0,0.0,0.0,0.0,0.0,0.0,0.0,0.0,0.0,0.0,0.0,0.0,0.0,0.0,0.0,0.0,0.0,0.0,0.0,0.0,0.0,0.0,0.0,0.0,0.0,0.0,0.0,0.0,0.0,0.0,0.0,0.0,0.0,0.0,0.0,0.0,0.0,0.0,0.0,0.0,0.0,0.0,0.0,0.0,0.0,0.0,0.0,0.0,0.0,0.0,0.0,0.0,0.0,0.0,8.2059,8.8852,9.4044,9.7597,9.9353,9.8612,9.5254,9.0921,8.5377,0.0,0.0,0.0,0.0,0.0,0.0,0.0,0.0,0.0,0.0,0.0,0.0,0.0,0.0,0.0,0.0,0.0,0.0,0.0,0.0,0.0,0.0,0.0,0.0,0.0,0.0,0.0,0.0,0.0,0.0,0.0,0.0,0.0,0.0,0.0,0.0,0.0,0.0,0.0,0.0,0.0,5.797,5.9539,6.0449,6.0643,0.0,0.0,6.0681,5.9847,5.8305,5.7224,5.7234,0.0,0.0,0.0,0.0,0.0,0.0,0.0,0.0,0.0,0.0,0.0,0.0,0.0,0.0,0.0,0.0,0.0,0.0,0.0,0.0,0.0,0.0,0.0,0.0,0.0,0.0,0.0,0.0,0.0,0.0,0.0,0.0,0.0,0.0,0.0,0.0,0.0,0.0,0.0,0.0,0.0,0.0,0.0,0.0,0.0,0.0,0.0,0.0,0.0,0.0,0.0,0.0,0.0,7.593,8.2254,8.9008,9.42,9.7597,9.9392,9.8924,9.5957,9.1233,8.5729,0.0,0.0,0.0,0.0,0.0,0.0,0.0,0.0,0.0,0.0,0.0,0.0,0.0,0.0,0.0,0.0,0.0,0.0,0.0,0.0,0.0,0.0,0.0,0.0,0.0,0.0,0.0,0.0,5.1544,5.1596,5.1075,0.0,0.0,0.0,0.0,0.0,0.0,0.0,0.0,0.0,0.0,5.8022,5.9658,6.0568,0.0,0.0,6.0568,6.0605,5.9252,5.7975,5.7003,5.6526,5.4237,0.0,0.0,0.0,0.0,0.0,0.0,0.0,0.0,0.0,0.0,0.0,0.0,0.0,0.0,0.0,0.0,0.0,0.0,0.0,0.0,0.0,0.0,0.0,0.0,0.0,0.0,0.0,0.0,0.0,0.0,0.0,0.0,0.0,0.0,0.0,0.0,0.0,0.0,0.0,0.0,0.0,0.0,0.0,0.0,0.0,0.0,0.0,0.0,0.0,0.0,0.0,0.0,7.6281,8.2254,8.8813,9.3966,9.7636,9.9158,9.8807,9.6386,9.1663,8.6392,0.0,0.0,0.0,0.0,0.0,0.0,0.0,0.0,0.0,0.0,0.0,0.0,0.0,0.0,0.0,0.0,0.0,0.0,0.0,0.0,0.0,0.0,0.0,0.0,0.0,0.0,0.0,0.0,5.2221,5.2182,5.1535,0.0,0.0,0.0,0.0,0.0,0.0,0.0,0.0,0.0,0.0,5.7914,5.9284,6.0383,6.08,5.9933,6.0539,6.0543,5.9039,5.7834,5.6857,5.6338,0.0,0.0,0.0,0.0,0.0,0.0,0.0,0.0,0.0,0.0,0.0,0.0,0.0,0.0,0.0,0.0,0.0,0.0,0.0,0.0,0.0,0.0,0.0,0.0,0.0,0.0,0.0,0.0,0.0,0.0,0.0,0.0,0.0,0.0,0.0,0.0,0.0,0.0,0.0,0.0,0.0,0.0,0.0,0.0,0.0,0.0,0.0,0.0,0.0,0.0,0.0,0.0,0.0,0.0,8.2254,8.8305,9.3419,9.7518,9.8572,9.8182,9.6386,9.2209,8.7525,8.2254,0.0,0.0,0.0,0.0,0.0,0.0,0.0,0.0,0.0,0.0,0.0,0.0,0.0,0.0,0.0,0.0,0.0,0.0,0.0,0.0,0.0,0.0,0.0,0.0,0.0,0.0,5.2819,5.2056,5.1535,0.0,0.0,0.0,0.0,0.0,0.0,0.0,0.0,0.0,0.0,5.6884,5.7655,5.8462,5.9942,6.0588,5.9729,6.0332,6.0559,5.9653,5.8144,5.7012,0.0,0.0,0.0,0.0,0.0,0.0,0.0,0.0,0.0,0.0,0.0,0.0,0.0,0.0,0.0,0.0,0.0,0.0,0.0,0.0,0.0,0.0,0.0,0.0,0.0,0.0,0.0,0.0,6.7656,0.0,0.0,0.0,0.0,0.0,0.0,0.0,0.0,0.0,0.0,0.0,7.027,7.0543,0.0,0.0,0.0,0.0,0.0,0.0,0.0,0.0,0.0,0.0,0.0,0.0,7.7062,8.3035,8.8501,9.3107,9.6738,9.826,9.8182,9.6425,9.2795,8.7095,7.9092,0.0,0.0,0.0,0.0,0.0,0.0,0.0,0.0,0.0,0.0,0.0,0.0,0.0,0.0,0.0,0.0,0.0,0.0,0.0,0.0,0.0,0.0,0.0,0.0,0.0,5.3862,0.0,0.0,0.0,0.0,0.0,0.0,0.0,0.0,0.0,0.0,0.0,5.4912,5.6042,5.633,5.6948,5.8316,5.8963,5.9348,0.0,0.0,0.0,0.0,0.0,0.0,0.0,0.0,0.0,0.0,0.0,0.0,0.0,0.0,5.4167,5.2071,5.1593,5.1486,5.1446,0.0,0.0,0.0,0.0,0.0,0.0,0.0,0.0,0.0,0.0,0.0,0.0,0.0,0.0,0.0,0.0,6.9453,0.0,0.0,0.0,0.0,0.0,0.0,0.0,0.0,7.2026,7.2651,7.3744,7.3783,7.3783,0.0,7.2885,7.1167,0.0,0.0,0.0,0.0,0.0,0.0,0.0,0.0,7.7765,8.3426,8.8344,9.2639,9.6269,9.7792,9.787,9.6386,9.1897,8.5729,7.7804,7.3158,6.9176,0.0,0.0,0.0,0.0,0.0,0.0,0.0,0.0,0.0,0.0,0.0,0.0,0.0,0.0,0.0,0.0,0.0,0.0,0.0,0.0,0.0,0.0,0.0,5.4623,0.0,0.0,0.0,0.0,0.0,0.0,0.0,0.0,0.0,5.404,5.4511,5.5132,5.5996,5.6273,5.6852,5.8216,0.0,0.0,0.0,0.0,0.0,0.0,0.0,5.7935,5.7444,5.6626,5.6029,5.6065,5.6217,5.6331,5.6368,0.0,0.0,5.3757,5.3199,5.3163,5.3089,5.3461,5.3719,5.3613,5.3928,5.4142,0.0,0.0,0.0,0.0,0.0,0.0,0.0,0.0,7.2187,7.2226,0.0,7.1367,0.0,0.0,0.0,0.0,0.0,0.0,0.0,0.0,7.4681,7.5579,7.7179,7.7257,7.7257,7.7218,7.632,7.5462,7.4408,7.0426,0.0,0.0,0.0,0.0,0.0,0.0,7.839,8.3426,8.7759,9.2014,9.6074,9.7128,9.7167,9.6074,8.9711,8.3816,7.8702,7.5188,7.1786,6.8294,6.4938,0.0,0.0,0.0,0.0,0.0,0.0,0.0,0.0,0.0,0.0,0.0,0.0,0.0,0.0,0.0,0.0,0.0,0.0,0.0,0.0,5.4688,0.0,0.0,0.0,0.0,0.0,0.0,0.0,0.0,0.0,0.0,5.4776,5.4805,5.5018,5.5856,0.0,0.0,0.0,0.0,5.9475,5.9365,5.9365,5.9403,5.9403,5.8765,5.8278,5.824,0.0,0.0,5.7076,5.7566,5.8016,5.8016,5.8534,5.849,5.685,5.64,5.6286,5.6293,5.6331,5.6364,5.627,5.6313,5.6294,8.0776,0.0,0.0,0.0,0.0,7.57,7.5703,7.5703,7.5703,7.5703,7.5703,7.5469,0.0,0.0,0.0,0.0,0.0,0.0,7.5149,7.8155,7.8233,7.9131,8.081,8.081,8.081,8.0732,7.9287,7.8468,7.8077,7.511,7.226,6.9645,0.0,0.0,0.0,0.0,7.8975,8.3426,8.7173,9.0531,9.3576,9.5059,9.4864,9.2834,8.9047,8.4909,8.0381,7.6933,7.3491,7.0089,6.7227,0.0,0.0,0.0,0.0,0.0,0.0,0.0,0.0,0.0,0.0,0.0,0.0,0.0,0.0,0.0,0.0,0.0,0.0,0.0,5.4867,5.4962,5.5047,0.0,0.0,0.0,0.0,0.0,0.0,0.0,0.0,0.0,5.6267,5.5869,5.5814,0.0,0.0,5.7325,5.8119,5.8875,5.959,6.0116,0.0,0.0,0.0,6.0867,6.0755,6.0754,6.0567,6.034,6.0265,6.0374,6.0441,6.0323,6.0422,6.0375,5.9892,5.8809,5.807,5.8045,5.846,5.8828,5.88,5.9196,5.9479,8.7001,8.2995,8.0591,7.9416,7.9131,7.9164,7.9216,7.9219,7.9219,7.9219,7.918,7.8867,7.7923,7.6588,7.5885,0.0,0.0,0.0,7.8233,8.1239,8.1552,8.245,8.3777,8.4167,8.4128,8.3777,8.2723,8.1903,8.12,7.9287,7.6984,7.433,0.0,0.0,7.3822,7.632,7.9561,8.3465,8.6939,8.9945,9.2443,9.3537,9.3029,9.0843,8.8259,8.5012,8.1116,7.7972,7.4718,7.1316,6.8687,6.6096,0.0,0.0,0.0,0.0,0.0,0.0,0.0,0.0,0.0,0.0,0.0,5.4323,5.4323,0.0,0.0,0.0,5.5886,5.624,5.6125,5.6019,0.0,0.0,0.0,0.0,0.0,0.0,0.0,5.5643,5.604,5.6572,5.7314,5.7322,5.7444,5.7902,5.7937,5.8311,5.9439,0.0,6.0492,6.1017,6.1768,6.2294,6.2332,6.2596,6.2671,6.2371,6.2333,6.2103,6.1686,6.1793,6.1931,6.1842,6.1974,6.2153,6.2153,6.1336,6.037,5.9827,6.0091,6.0455,6.0752,6.118,6.1495,9.2749,9.0711,8.6187,8.3722,8.2716,8.2645,8.2632,8.2695,8.2695,8.2695,8.2656,8.1797,8.0891,7.9906,7.8266,0.0,0.0,8.0068,8.1435,8.3816,8.4714,8.5573,8.6431,8.7212,8.7173,8.6431,8.6353,8.5456,8.3816,8.2879,8.163,7.9951,7.6672,7.4954,7.4954,7.7414,8.0302,8.3465,8.6861,8.9789,9.2209,9.2248,9.1428,8.9789,8.7276,8.4294,8.0938,7.8339,7.5395,7.2053,6.9479,6.6936,6.4335,0.0,0.0,0.0,0.0,0.0,0.0,0.0,0.0,0.0,0.0,0.0,0.0,0.0,0.0,0.0,5.7328,0.0,5.7567,5.746,0.0,0.0,0.0,5.7422,5.7422,5.7327,5.73,5.7276,0.0,0.0,5.8272,0.0,5.9553,5.9663,5.959,6.0079,6.1656,6.1919,6.2031,6.2181,6.2857,6.3421,6.3571,6.4059,6.4247,6.3493,6.3303,6.3003,6.2173,6.2351,6.2715,6.2582,6.3126,6.3565,6.3602,6.3416,6.3156,6.1633,6.1484,6.1775,6.2549,6.2682,6.2843,9.633,9.3625,9.2558,9.0142,8.698,8.641,8.6165,8.6186,8.6168,8.6211,8.6211,8.5351,8.4094,8.2599,8.1545,8.163,8.2606,8.3308,8.4636,8.6471,8.7368,8.8266,8.9086,8.9281,8.9281,8.9047,8.8422,8.7525,8.6431,8.4948,8.366,8.2528,8.0459,7.878,7.7648,8.0068,8.2059,8.3465,8.6275,8.8657,9.0492,8.9945,8.9079,8.801,8.5473,8.2803,7.9977,7.7424,7.4753,7.2014,7.0045,6.7813,6.5231,6.3517,0.0,0.0,0.0,0.0,0.0,0.0,0.0,0.0,0.0,5.6869,5.6908,0.0,5.7735,0.0,5.766,5.7596,5.751,5.744,0.0,0.0,5.7321,5.7327,5.7327,5.7196,5.7548,5.8794,5.8836,5.9289,6.0716,6.1093,6.1692,6.2885,6.1991,6.1581,6.2632,6.3345,6.3909,6.451,6.5298,6.5899,6.5899,6.6049,6.5899,6.511,6.4923,6.4585,6.3509,6.3467,6.3531,6.3394,6.3453,6.3602,6.3602,6.3602,6.349,6.3156,6.3535,6.4204,6.4995,6.5041,6.4991,9.9332,9.73,9.6698,9.5084,9.2859,9.0628,8.9696,8.9678,8.9716,8.9531,8.913,8.789,8.6789,8.5807,8.4948,8.5026,8.5846,8.6314,8.7251,8.8579,8.9477,9.0101,9.0609,9.096,9.0921,9.057,9.0101,8.9398,8.8501,8.6822,8.5729,8.5221,8.3543,8.2215,8.1317,8.1981,8.2723,8.3504,8.6471,8.8611,8.9852,8.8759,8.7503,8.6229,8.4074,8.149,7.8555,7.6653,7.4333,7.1448,7.0035,6.8115,6.5543,6.453,6.3244,0.0,0.0,0.0,0.0,0.0,0.0,0.0,0.0,0.0,0.0,0.0,5.8396,0.0,5.8678,5.869,5.864,5.857,5.8646,5.8949,5.8992,5.911,5.9383,5.9282,5.9587,6.049,6.0492,6.0792,6.1695,6.2108,6.2855,6.4121,6.3791,6.3759,6.4585,6.5148,6.5561,6.6011,6.68,6.7476,6.7776,6.7851,6.7438,6.6349,6.6011,6.5516,6.4182,6.3873,6.3823,6.3647,6.3602,6.3602,6.3602,6.3602,6.3676,6.4093,6.451,6.5097,6.5922,6.6199,6.633,10.1884,10.0844,9.9459,9.8878,9.8562,9.4979,9.33,9.2997,9.2951,9.2382,9.1396,8.9875,8.9091,8.8813,8.8071,8.8149,8.8852,8.9008,8.9437,9.0179,9.1077,9.1467,9.1467,9.217,9.2131,9.1467,9.1467,9.0999,9.014,8.8657,8.7798,8.7486,8.5963,8.5065,8.4909,8.3497,8.3185,8.4011,8.6978,8.8877,8.9524,8.7924,8.6268,8.4649,8.2825,8.0279,7.6994,7.5998,7.396,7.0648,6.9712,6.8115,6.5582,6.5387,6.4686,0.0,6.2168,0.0,0.0,0.0,0.0,0.0,0.0,0.0,0.0,5.8697,5.8973,5.9599,6.0113,6.038,6.0302,6.0231,6.0463,6.1076,6.1155,6.1385,6.1956,6.2033,6.2034,6.2109,6.1995,6.1994,6.2181,6.2857,6.3719,6.4612,6.5328,6.6049,6.6875,6.695,6.6913,6.7063,6.7701,6.834,6.8903,6.8972,6.8372,6.71,6.6453,6.5844,6.4177,6.3867,6.3773,6.3647,6.3602,6.3602,6.3602,6.3602,6.3825,6.4435,6.4659,6.5097,6.5912,6.6531,6.7082,10.3821,10.1852,10.1633,10.084,9.9599,9.8953,9.7533,9.5613,9.4916,9.3783,9.2326,9.2027,9.109,8.9789,8.9594,8.9594,8.9789,9.0492,9.0882,9.1077,9.1897,9.2287,9.2287,9.2404,9.2443,9.2287,9.2287,9.1858,9.1038,9.0726,8.9828,8.8461,8.7407,8.6549,8.5885,0.0,0.0,0.0,8.7308,8.7681,8.7741,8.618,8.4766,8.3644,8.1343,0.0,7.6114,7.5129,7.3064,6.979,6.9401,0.0,0.0,0.0,0.0,0.0,0.0,0.0,0.0,0.0,0.0,0.0,6.276,6.1795,5.9724,6.0488,6.1441,6.2094,6.2156,6.2015,6.1835,6.1764,6.1802,6.1842,6.1843,6.1845,6.2033,6.192,6.2108,6.2821,6.2857,6.312,6.3683,6.4547,6.5336,6.612,6.7025,6.7814,6.8602,6.8152,6.8039,6.8602,6.8828,6.9015,6.9166,6.8597,6.7841,6.6823,6.5956,6.5079,6.4091,6.378,6.3736,6.3602,6.3602,6.3602,6.3602,6.3602,6.3676,6.3788,6.4316,6.5068,6.5895,6.6507,6.6846,10.507,0.0,10.3173,10.2467,0.0,10.1026,10.0034,9.8821,9.757,9.6085,9.4434,9.3576,9.2717,9.1858,9.1428,9.1233,9.1233,9.1702,9.1897,9.1897,9.2326,9.2482,9.2482,9.2482,9.2482,9.2482,9.2482,9.2287,9.1897,9.1467,9.0843,8.9984,8.9086,8.8455,8.7979,8.7993,8.775,8.736,8.736,8.7351,8.7242,8.5604,8.4111,8.2752,0.0,0.0,0.0,0.0,0.0,0.0,0.0,0.0,0.0,0.0,0.0,6.6594,6.615,6.5872,6.5833,6.5358,6.5092,6.5058,6.458,6.3492,6.173,6.2117,6.254,6.2835,6.2739,6.2482,6.222,6.2184,6.2334,6.2598,6.2598,6.2711,6.3048,6.3084,6.3195,6.3571,6.3683,6.3871,6.4247,6.4622,6.5407,6.6566,6.7171,6.7846,6.894,6.8865,6.879,6.9128,6.9116,6.8966,6.8591,6.8103,6.723,6.6213,6.5447,6.4799,6.3929,6.3736,6.3684,6.3602,6.3602,6.3602,6.3602,6.3602,6.3602,6.3639,6.3862,6.4233,6.4763,6.5817,6.6669,10.593,10.5768,10.4411,10.3832,10.3666,10.2335,10.1568,10.1192,0.0,0.0,0.0,9.4864,9.4083,9.3771,9.3029,9.2639,9.2482,9.2482,9.2482,9.2482,9.2482,9.2482,9.2482,9.2482,9.2482,9.2482,9.2482,9.2482,9.2482,9.1819,9.1428,9.1233,9.057,9.0087,8.9905,8.9876,8.9164,8.7827,8.776,8.7671,8.7493,8.5972,8.4245,8.2377,8.0779,7.8363,7.5012,7.4856,7.3609,7.0959,7.0804,7.0314,6.9278,6.9184,6.9134,6.9085,6.8419,6.8008,6.8008,6.7277,6.6838,6.6824,6.5989,6.5048,6.4023,6.3578,6.3345,6.3345,6.3138,6.2943,6.2673,6.2595,6.2818,6.335,6.3388,6.3612,6.4172,6.4284,6.4209,6.4284,6.4247,6.4284,6.4284,6.4472,6.5032,6.6448,6.7053,6.7391,6.8597,6.886,6.8822,6.886,6.8585,6.8234,6.771,6.7223,6.6618,6.5484,6.4979,6.4555,6.3959,6.3647,6.3602,6.3602,6.3602,6.3602,6.3602,6.3602,6.3602,6.3565,6.349,6.3354,6.3442,6.4756,6.5856,10.6472,10.5884,10.5652,10.488,10.3783,10.362,10.2371,10.0414,9.9441,9.8033,9.6386,9.6152,9.5215,9.3771,9.3654,9.3224,9.2522,9.2482,9.2482,0.0,9.2482,9.2482,9.2482,9.2482,9.2482,9.2482,9.2482,9.2482,9.2482,9.2365,9.1975,9.135,9.1101,9.0637,8.9883,8.9805,8.9703,8.9443,8.943,8.9079,8.8352,8.7378,8.5702,8.3312,8.2272,8.0117,7.6804,7.661,7.509,7.1856,7.1638,7.0913,6.9317,6.9214,6.9124,6.9111,6.8987,6.8924,6.8924,6.8696,6.849,6.845,6.8204,6.7378,6.5712,6.4706,6.4419,6.489,6.478,6.4537,6.4294,6.4178,6.4134,6.4174,6.4174,6.4212,6.4322,6.4322,6.4322,6.4284,6.4284,6.4284,6.4322,6.4847,6.5561,6.657,6.7166,6.7835,6.791,6.7979,6.7979,6.7866,6.7292,6.6799,6.653,6.5888,6.5396,6.5128,6.4324,6.3907,6.3721,6.3602,6.3602,6.3602,6.3602,6.3602,6.3602,6.3602,6.3565,6.3445,6.3371,6.3299,6.3012,6.3653,6.4294,10.6851,10.6543,10.6145,10.5643,10.5087,10.4292,10.2831,10.097,10.0069,9.871,9.7128,9.6621,9.5684,9.4512,9.4005,9.3341,9.2482,9.2482,9.2482,9.2482,9.2482,9.2482,9.2482,9.2482,9.2482,9.2482,9.2482,9.2482,9.2482,9.2482,9.2319,9.196,9.1886,9.161,9.1236,9.121,9.1236,9.1183,9.0262,8.9599,8.9196,8.791,8.6429,8.4832,8.3507,8.1442,7.848,7.7935,7.6532,7.4038,7.3457,7.2848,7.2056,7.1887,7.186,7.187,7.1397,7.1115,7.1102,7.0564,7.0234,7.0173,6.9678,6.9007,6.8063,6.7049,6.6538,6.6681,6.6574,6.6353,6.5991,6.5908,6.5827,6.5674,6.5636,6.5448,6.5035,6.496,6.4772,6.4397,6.4284,6.4284,6.4284,6.4622,6.5148,6.5977,6.6758,6.7198,6.7155,6.6649,6.6493,6.6874,6.6642,6.6142,6.5732,6.5262,6.4725,6.4361,6.3907,6.3639,6.3602,6.3602,6.3602,6.3602,6.3602,6.3557,6.3511,6.3511,6.34,6.3222,6.3086,6.294,6.2777,6.3128,6.382,10.7144,10.7153,10.6549,10.6197,10.5885,10.457,10.3093,10.1554,10.066,9.9424,9.7994,9.7089,9.6191,9.5332,9.4473,9.3615,9.2834,9.2561,9.2482,9.2482,9.2482,9.2482,9.2482,9.2482,9.2482,9.2482,9.2482,9.2522,9.2514,9.2514,9.2507,9.2471,9.2429,9.2393,9.2393,9.2405,9.243,9.2313,9.1066,9.0287,9.0053,8.8767,8.752,8.6274,8.4988,8.2961,8.0273,7.9493,7.8168,7.613,7.5314,7.4781,7.4311,7.4233,7.4164,7.4117,7.3518,7.3001,7.2774,7.19,7.1376,7.1355,7.0667,7.0189,6.999,6.924,6.8502,6.7973,6.7654,6.742,6.7085,6.6992,6.6988,6.68,6.68,6.6462,6.5899,6.5636,6.5298,6.466,6.4434,6.4284,6.4284,6.4284,6.466,6.5448,6.6116,6.6518,6.6207,6.5471,6.5352,6.5501,6.568,6.5336,6.4778,6.4568,6.4262,6.3676,6.3602,6.3602,6.3602,6.3602,6.3557,6.3557,6.3557,6.3511,6.3382,6.3289,6.3187,6.2965,6.2788,6.2572,6.2165,6.257,6.3413,10.7231,10.7274,10.7197,10.6399,10.5195,10.4363,10.3123,10.1629,10.0701,9.9776,9.8846,9.7948,9.705,9.623,9.5332,9.4473,9.3615,9.2873,9.2482,9.2482,9.2482,9.2482,9.2482,9.2482,9.2482,9.2482,9.2482,9.2514,9.2498,9.249,9.2471,9.2417,9.2405,9.2419,9.2391,9.2391,9.243,9.243,9.2235,9.1768,9.1028,9.0833,8.9586,8.717,8.6936,8.526,8.2026,8.1792,8.0221,7.7144,7.6728,7.5906,7.4499,7.4234,7.4217,7.4239,7.4067,7.3645,7.2788,7.1897,7.1394,7.1291,7.1124,7.0951,7.0927,7.0612,6.9666,6.8335,6.7707,6.7538,6.7158,6.7058,6.7091,6.7025,6.695,6.6762,6.6612,6.5974,6.5486,6.5411,6.4697,6.4284,6.4284,6.4284,6.4582,6.517,6.5806,6.602,6.5322,6.5054,6.4629,6.413,6.3862,6.3899,6.3788,6.375,6.375,6.3639,6.3602,6.3557,6.3557,6.3557,6.3557,6.3465,6.3382,6.3373,6.3231,6.3147,6.294,6.2597,6.2401,6.2146,6.1437,6.151,6.2287,10.7752,10.7313,10.7391,10.6525,10.5204,10.487,10.3865,10.2293,10.0896,10.0088,9.9595,9.8299,9.7206,9.6347,9.5488,9.463,9.3771,9.2912,9.2482,9.2482,9.2482,9.2482,9.2482,9.2482,9.2482,9.2522,9.2514,9.2498,9.249,9.2461,9.2429,9.2405,9.2419,9.2405,9.243,9.243,9.243,9.243,9.243,9.2235,9.1846,9.1378,9.0365,8.8884,8.8261,8.6611,8.3909,8.3091,8.1661,7.9282,7.8163,7.7276,7.656,7.6005,7.5659,7.5662,7.5061,7.4358,7.348,7.259,7.2087,7.2065,7.1518,7.1178,7.1106,7.0925,7.0354,6.9546,6.9112,6.8865,6.8596,6.8462,6.8372,6.8264,6.8227,6.8039,6.7513,6.6762,6.6087,6.5561,6.4772,6.4284,6.4284,6.42,6.4304,6.4593,6.4887,6.4762,6.4338,6.422,6.4018,6.3713,6.3602,6.3602,6.3602,6.3602,6.3602,6.3557,6.3502,6.3493,6.3465,6.3419,6.3373,6.3289,6.3194,6.3147,6.2953,6.2768,6.2544,6.2186,6.1568,6.1176,6.0668,6.0954,6.1555,10.8271,10.7715,10.7627,10.6644,10.5233,10.5312,10.442,10.2764,10.1051,10.0322,10.0141,9.8455,9.7206,9.6347,9.5488,9.463,9.3732,9.2873,9.2482,9.2482,9.2482,9.2482,9.2482,9.2482,9.2522,9.2514,9.2498,9.2481,9.2471,9.2417,9.2432,9.2419,9.2405,9.243,9.243,9.243,9.243,9.243,9.243,9.243,9.2313,9.1807,9.095,8.9858,8.9182,8.761,8.5088,8.41,8.2839,8.1081,7.9376,7.8348,7.806,7.7209,7.6671,7.6573,7.573,7.4928,7.427,7.3458,7.2839,7.2568,7.1965,7.1472,7.112,7.0898,7.0699,7.0381,7.0064,6.9738,6.9657,6.9482,6.9353,6.9241,6.9203,6.894,6.8377,6.7476,6.6537,6.5899,6.496,6.4284,6.4244,6.4158,6.4065,6.4053,6.3935,6.378,6.3736,6.3684,6.3639,6.3602,6.3557,6.3557,6.3602,6.3565,6.3565,6.3511,6.341,6.3353,6.3373,6.3279,6.3099,6.3099,6.3002,6.2818,6.2654,6.236,6.1986,6.1423,6.0891,6.0329,6.0076,6.0284,6.0564,10.8659,10.8528,10.7947,10.6754,10.5233,10.5351,10.4397,10.2695,10.1007,10.0322,10.0095,9.8455,9.7206,9.6308,9.5449,9.463,9.3771,9.2912,9.2482,9.2482,9.2482,9.2482,9.2482,9.2482,9.2514,9.2498,9.249,9.2461,9.2405,9.2405,9.2391,9.2391,9.243,9.243,9.243,9.243,9.243,9.243,9.243,9.243,9.2391,9.2352,9.1495,8.9961,8.9699,8.8398,8.6047,8.4926,8.3648,8.1926,8.0254,7.8954,7.8103,7.7192,7.6633,7.6444,7.5724,7.5198,7.4982,7.4309,7.3535,7.2778,7.2476,7.1954,7.1197,7.0758,7.0477,7.0319,6.9954,6.9662,6.9579,6.9402,6.931,6.9197,6.916,6.9122,6.9085,6.7696,6.6913,6.6462,6.5223,6.4322,6.4094,6.4004,6.3904,6.3847,6.381,6.3773,6.3647,6.3602,6.3602,6.3557,6.3511,6.3465,6.3557,6.349,6.34,6.3382,6.3279,6.3184,6.3231,6.3147,6.3051,6.2904,6.2805,6.2603,6.2291,6.1842,6.1364,6.0808,6.0254,5.9798,5.9495,5.9254,5.9495,10.8941,10.7982,10.7791,10.6747,10.5325,10.5351,10.4436,10.2734,10.1035,10.0305,10.0017,9.8455,9.6894,9.5567,9.5254,9.463,9.3732,9.2912,9.2482,9.2482,9.2482,9.2482,9.2482,9.2507,9.2498,9.249,9.2461,9.2417,9.2419,9.2391,9.243,9.243,9.243,9.243,9.243,9.243,9.243,9.243,9.243,9.243,9.2391,9.2362,9.149,8.9854,8.9699,8.85,8.5938,8.4971,8.3909,8.2707,8.1056,7.9756,7.8748,7.7351,7.657,7.6459,7.6165,7.5933,7.5817,7.5121,7.4518,7.4123,7.3056,7.2302,7.1761,7.1065,7.0439,7.0137,6.9804,6.9512,6.9382,6.9228,6.9095,6.9057,6.902,6.902,6.8833,6.8009,6.7149,6.64,6.5062,6.4056,6.3967,6.3867,6.3803,6.3795,6.3721,6.3684,6.3602,6.3602,6.3557,6.3511,6.3428,6.3382,6.3289,6.328,6.3251,6.3205,6.3136,6.3124,6.3088,6.2953,6.2855,6.2654,6.2552,6.2202,6.1823,6.1157,6.0677,6.0132,5.9547,5.9288,5.8939,5.8804,5.9008,10.8855,10.7714,10.7689,10.6817,10.5377,10.5397,10.4456,10.2734,10.1064,10.0329,9.9978,9.8455,9.6738,9.5293,9.5098,9.4434,9.3419,9.2756,9.2482,9.2482,9.2514,9.2514,9.2507,9.249,9.251,9.2461,9.2417,9.2419,9.2391,9.243,9.243,9.243,9.243,9.243,9.243,9.243,9.243,9.243,9.243,9.2377,9.2362,9.2308,9.1459,8.9979,8.9652,8.8584,8.6294,8.5075,8.4222,8.3369,8.164,8.0029,7.8767,7.7328,7.6505,7.6498,7.6397,7.6397,7.632,7.5817,7.5368,7.4987,7.3934,7.2984,7.2188,7.1329,7.0692,7.0111,6.9662,6.9321,6.9139,6.9012,6.8903,6.8875,6.8921,6.8921,6.8884,6.8137,6.7128,6.6051,6.4748,6.3963,6.3841,6.3773,6.3758,6.375,6.3676,6.3639,6.3557,6.3557,6.3511,6.3336,6.3289,6.3194,6.3147,6.3084,6.3104,6.3062,6.299,6.2978,6.2892,6.2792,6.2654,6.2449,6.2132,6.1768,6.1207,6.0498,5.9937,5.9429,5.9078,5.8836,5.8624,5.8522,5.8685,10.8434,10.7752,10.7776,10.6831,10.5429,10.538,10.4408,10.2694,10.1025,10.0329,10.0095,9.8455,9.6738,9.5371,9.5098,9.42,9.2834,9.2522,9.2522,9.2522,9.2507,9.249,9.249,9.25,9.2479,9.2405,9.2405,9.2391,9.243,9.243,9.243,9.243,9.243,9.243,9.243,9.243,9.243,9.2391,9.2391,9.2362,9.2293,9.2276,9.1442,8.9891,8.9622,8.8769,8.698,8.5311,8.4379,8.4049,8.1912,7.9698,7.8222,7.7035,7.6466,7.6421,7.6397,7.6397,7.6397,7.632,7.5847,7.5233,7.4822,7.385,7.2472,7.1646,7.095,7.0119,6.9548,6.9155,6.8972,6.8838,6.8762,6.8875,6.8875,6.8875,6.8726,6.8091,6.7053,6.5664,6.4657,6.3904,6.3792,6.3847,6.3788,6.3676,6.3557,6.3557,6.3465,6.3382,6.3336,6.3194,6.3147,6.3099,6.3002,6.2904,6.2917,6.2953,6.2842,6.2828,6.2691,6.2603,6.2397,6.2185,6.1656,6.1257,6.0503,5.9861,5.9469,5.8974,5.8701,5.8511,5.8535,5.8423,5.8287,10.8474,10.7771,10.7845,10.6872,10.5414,10.537,10.4453,10.2725,10.1053,10.0329,9.9978,9.8455,9.6738,9.541,9.5098,9.4161,9.26,9.2507,9.2498,9.2498,9.249,9.252,9.25,9.244,9.2405,9.2405,9.2391,9.243,9.243,9.243,9.243,9.243,9.243,9.243,9.243,9.243,9.243,9.2391,9.2362,9.2308,9.2276,9.2226,9.1373,8.9837,8.9566,8.8711,8.704,8.5311,8.4398,8.428,8.2435,8.0552,7.8822,7.7263,7.6459,7.6397,7.6397,7.635,7.6314,7.6301,7.6135,7.5655,7.5082,7.4336,7.3357,7.2048,7.1105,7.0375,6.9611,6.8997,6.8825,6.866,6.8591,6.8639,6.8602,6.8687,6.8575,6.7895,6.7263,6.6705,6.5932,6.5188,6.4629,6.4427,6.4122,6.3631,6.3511,6.3465,6.3419,6.34,6.3194,6.3099,6.3002,6.3174,6.3222,6.3099,6.2965,6.2915,6.2815,6.2625,6.2537,6.2344,6.2132,6.1656,6.114,6.0564,5.9844,5.9317,5.8875,5.8633,5.8345,5.8315,5.8522,5.8513,5.8488,10.8256,10.7728,10.7508,10.6638,10.5336,10.5066,10.4136,10.2744,10.1046,10.0329,9.9939,9.8455,9.6933,9.5723,9.5247,9.431,9.3014,9.2685,9.251,9.2461,9.2461,9.2451,9.2429,9.2444,9.2419,9.2391,9.243,9.243,9.243,9.243,9.243,9.243,9.243,9.243,9.2391,9.2377,9.2362,9.2362,9.2293,9.226,9.2226,9.2228,9.1374,8.9877,8.9527,8.8652,8.7039,8.5582,8.4689,8.3949,8.2122,8.0256,7.9028,7.7411,7.6397,7.6397,7.6374,7.6339,7.6302,7.6263,7.6145,7.5831,7.5257,7.4533,7.3836,7.2548,7.1735,7.0992,7.0041,6.9272,6.9145,6.8714,6.8543,6.8543,6.8543,6.8543,6.8431,6.78,6.7354,6.6982,6.6249,6.5506,6.4976,6.4419,6.4142,6.3613,6.3419,6.3558,6.3574,6.3627,6.3603,6.3689,6.392,6.3943,6.3709,6.3415,6.3048,6.291,6.2808,6.2506,6.2328,6.2078,6.1823,6.1081,6.0477,5.9972,5.9351,5.8806,5.8388,5.8167,5.8084,5.8278,5.8508,5.8897,5.8897,10.7815,10.7689,10.6962,10.617,10.5319,10.4558,10.3702,10.2679,10.1071,10.0329,9.9939,9.8455,9.7206,9.634,9.5465,9.4558,9.3729,9.2852,9.2479,9.2417,9.2405,9.2405,9.2393,9.2405,9.2391,9.243,9.243,9.243,9.243,9.243,9.243,9.243,9.2377,9.2377,9.2377,9.2308,9.2293,9.2276,9.2243,9.2208,9.2191,9.2191,9.1316,8.9623,8.9468,8.8709,8.7075,8.5851,8.4937,8.3928,8.1126,7.9409,7.8742,7.7365,7.6552,7.6436,7.6326,7.6263,7.6249,7.6129,7.6005,7.5756,7.5413,7.4938,7.3914,7.3208,7.2492,7.1749,7.0675,6.991,6.9705,6.9134,6.8643,6.8457,6.8457,6.8506,6.8468,6.7874,6.7529,6.7195,6.597,6.4893,6.4995,6.4299,6.3752,6.3437,6.3363,6.3527,6.3947,6.4107,6.4522,6.464,6.461,6.4522,6.4213,6.392,6.3555,6.3408,6.3036,6.2422,6.1968,6.1672,6.1221,6.0477,5.9919,5.9421,5.8944,5.8522,5.8235,5.8196,5.8234,5.8374,5.8785,5.9264,5.9498,10.7791,10.7689,10.6962,10.6129,10.5326,10.4451,10.3624,10.2679,10.1032,10.029,9.99,9.8455,9.7238,9.6362,9.5495,9.4588,9.3749,9.2858,9.2417,9.2405,9.2419,9.2405,9.2405,9.2391,9.243,9.243,9.243,9.243,9.243,9.2469,9.2469,9.243,9.244,9.2386,9.2308,9.2299,9.2243,9.2243,9.219,9.221,9.2191,9.2151,9.1276,8.9701,8.9465,8.8589,8.6937,8.5374,8.4165,8.3235,8.119,7.9594,7.9013,7.7945,7.7016,7.6514,7.6301,7.6222,7.6062,7.5925,7.5756,7.5459,7.5245,7.4825,7.4223,7.3401,7.2791,7.2144,7.1301,7.048,6.9815,6.9385,6.8939,6.837,6.8358,6.8494,6.842,6.8259,6.8062,6.7914,6.6926,6.616,6.5393,6.4716,6.3918,6.3416,6.3294,6.3468,6.4107,6.4398,6.4751,6.4904,6.4908,6.4892,6.4729,6.4383,6.4128,6.3998,6.3311,6.2269,6.1676,6.1021,6.036,5.9683,5.9495,5.9147,5.8757,5.8321,5.8287,5.8349,5.869,5.8952,5.9477,5.9926,6.0141,10.7639,10.7223,10.6422,10.5628,10.4763,10.3902,10.3061,10.2172,10.0915,10.0048,9.9502,9.8283,9.7377,9.6841,9.6012,9.5104,9.4223,9.3341,9.2769,9.2419,9.2405,9.2391,9.243,9.243,9.243,9.243,9.243,9.2377,9.244,9.2713,9.2869,9.2916,9.2822,9.2805,9.2805,9.2381,9.219,9.219,9.2191,9.2151,9.2151,9.211,9.1096,8.9814,8.9344,8.8561,8.6886,8.542,8.4262,8.3178,8.1451,7.9956,7.9453,7.8293,7.7403,7.6823,7.6495,7.6101,7.589,7.5709,7.5459,7.5171,7.4939,7.4611,7.4229,7.3625,7.3164,7.2895,7.2087,7.1281,7.0586,6.9887,6.9082,6.8343,6.8259,6.8358,6.8358,6.8222,6.8208,6.8023,6.7418,6.6605,6.579,6.4942,6.407,6.3456,6.3444,6.3947,6.4559,6.4751,6.5124,6.5494,6.5661,6.5733,6.542,6.5037,6.4426,6.4209,6.3285,6.2309,6.1298,6.0528,6.014,5.9564,5.9279,5.9016,5.8788,5.8698,5.8748,5.894,5.9276,5.9538,5.9862,6.0256,6.0505,10.7403,10.6539,10.5738,10.4913,10.4061,10.3173,10.2437,10.1539,10.0673,9.9806,9.8929,9.7983,9.7583,9.7561,9.6563,9.5836,9.5057,9.4017,9.3146,9.2625,9.243,9.243,9.243,9.243,9.243,9.2391,9.243,9.2479,9.2698,9.3266,9.3584,9.3644,9.3665,9.351,9.3297,9.2715,9.2346,9.2171,9.2131,9.211,9.2088,9.1967,9.1129,8.9632,8.8849,8.8118,8.6829,8.5733,8.483,8.4095,8.1774,8.0614,8.015,7.8564,7.7713,7.7292,7.6544,7.5934,7.573,7.5434,7.5171,7.4899,7.4611,7.4387,7.4113,7.38,7.3579,7.3429,7.2741,7.2118,7.1426,7.0253,6.9094,6.8373,6.8203,6.8018,6.8018,6.8107,6.807,6.8033,6.7368,6.6542,6.5841,6.5066,6.423,6.4131,6.4154,6.4581,6.5154,6.549,6.5989,6.6682,6.6769,6.6722,6.6279,6.5741,6.4936,6.4314,6.3131,6.2092,6.0976,6.0323,6.0081,5.9754,5.9451,5.9355,5.9362,5.9298,5.9231,5.9397,5.9571,5.9729,5.9905,6.0299,6.0561,10.7368,10.6519,10.5733,10.4882,10.4011,10.3161,10.2312,10.1436,10.0577,9.9661,9.8821,9.7962,9.7628,9.7526,9.6772,9.6135,9.5679,9.4432,9.321,9.2508,9.243,9.243,9.243,9.2416,9.2391,9.2377,9.2362,9.2643,9.3172,9.345,9.3899,9.4444,9.4446,9.4115,9.3474,9.3259,9.2752,9.2247,9.211,9.2088,9.2044,9.1983,9.1122,8.943,8.8118,8.7216,8.6597,8.5759,8.4946,8.4018,8.2935,8.1569,8.0332,7.9211,7.8258,7.7356,7.6471,7.5735,7.5437,7.5169,7.4899,7.4525,7.4342,7.4104,7.3777,7.3715,7.3578,7.3438,7.3149,7.2569,7.1618,7.0054,6.9135,6.8693,6.8125,6.7794,6.7794,6.7899,6.7915,6.7768,6.7185,6.6492,6.6292,6.5662,6.5096,6.4861,6.5044,6.5322,6.5693,6.6116,6.6517,6.704,6.6845,6.6572,6.6028,6.5457,6.4705,6.4072,6.3086,6.2207,6.1101,6.0339,6.0279,6.0013,5.9564,5.96,5.981,5.9657,5.958,5.9761,5.986,6.0026,6.0181,6.0455,6.0381,10.6815,10.5967,10.5156,10.4281,10.3428,10.2546,10.1709,10.0831,9.9963,9.9094,9.8318,9.7733,9.7604,9.7525,9.7057,9.6653,9.5913,9.4496,9.3702,9.3336,9.2908,9.2581,9.276,9.2526,9.2308,9.2347,9.2276,9.2727,9.3354,9.3959,9.4504,9.5223,9.5281,9.4833,9.4017,9.3607,9.2904,9.2222,9.2066,9.2005,9.1936,9.1912,9.1088,8.9449,8.7965,8.71,8.6571,8.6157,8.5435,8.4623,8.368,8.2455,8.091,7.9829,7.8837,7.7841,7.6743,7.5818,7.5308,7.4842,7.4568,7.4297,7.4104,7.3875,7.3715,7.3615,7.3513,7.3372,7.3156,7.2738,7.1615,7.0403,6.9504,6.8788,6.8201,6.7724,6.7741,6.7794,6.7794,6.772,6.741,6.6953,6.6496,6.6093,6.5567,6.5221,6.5547,6.5877,6.588,6.6207,6.6417,6.6677,6.6512,6.6172,6.5661,6.4999,6.4217,6.3543,6.2881,6.229,6.1588,6.1052,6.0628,6.0257,5.9931,6.017,6.0258,6.0059,5.9891,6.0041,6.0205,6.0332,6.0271,6.0261,6.0087,10.6015,10.5155,10.4398,10.3545,10.2558,10.1807,10.0938,9.9941,9.9227,9.8474,9.7708,9.7578,9.7525,9.7511,9.7457,9.6989,9.6,9.5026,9.4505,9.4379,9.3483,9.3194,9.3255,9.2848,9.2537,9.2455,9.2498,9.2968,9.3921,9.4542,9.532,9.5956,9.6089,9.5467,9.4652,9.3953,9.3054,9.2177,9.196,9.1936,9.1888,9.1773,9.0908,8.9383,8.8273,8.7356,8.6749,8.6346,8.597,8.5197,8.4203,8.294,8.1649,8.0365,7.9317,7.8286,7.7033,7.5914,7.5004,7.4531,7.4297,7.4151,7.3912,7.3715,7.3578,7.3513,7.341,7.3268,7.305,7.2721,7.1725,7.0824,7.0,6.9229,6.8385,6.7871,6.7687,6.7687,6.7741,6.765,6.754,6.732,6.701,6.668,6.608,6.5733,6.6062,6.6245,6.6296,6.6214,6.6378,6.6222,6.6048,6.5504,6.4972,6.4321,6.3583,6.3076,6.2468,6.2072,6.1656,6.1098,6.0587,6.0669,6.0539,6.0555,6.0487,6.0201,6.0181,6.0378,6.0239,6.0066,5.9989,5.9976,5.9702,10.5101,10.4294,10.4147,10.3192,10.1817,10.1484,10.0475,9.9163,9.8851,9.8318,9.7589,9.7511,9.7511,9.7496,9.7496,9.6974,9.6242,9.5619,9.5313,9.5045,9.4306,9.4016,9.357,9.3104,9.3065,9.3221,9.3221,9.3863,9.5087,9.5727,9.5994,9.671,9.6843,9.612,9.501,9.4249,9.341,9.2261,9.199,9.1863,9.1812,9.1708,9.1036,8.9433,8.845,8.7533,8.6742,8.6345,8.583,8.4944,8.3951,8.2928,8.1848,8.0469,7.9208,7.8075,7.6958,7.5871,7.4789,7.4338,7.4046,7.3815,7.3665,7.3578,7.3424,7.3357,7.3215,7.3124,7.298,7.2614,7.2349,7.1484,7.0787,6.9944,6.9192,6.8458,6.7944,6.7797,6.776,6.7687,6.7687,6.765,6.734,6.7085,6.6792,6.6385,6.6494,6.6547,6.6388,6.6163,6.6002,6.576,6.5474,6.4806,6.4148,6.3511,6.289,6.2527,6.1981,6.1584,6.1185,6.0835,6.0534,6.0571,6.0487,6.0417,6.0345,6.0206,6.0206,6.0173,5.9946,5.9749,5.9702,5.962,5.9164,10.4475,10.4021,10.3095,10.2254,10.1345,10.0436,9.9592,9.8811,9.8343,9.79,9.7613,9.7496,9.7496,9.7496,9.7496,9.7193,9.681,9.6231,9.6078,9.5807,9.4796,9.4193,9.3824,9.3239,9.3123,9.3239,9.3472,9.4289,9.5765,9.5817,9.6338,9.6936,9.7082,9.6397,9.5311,9.4627,9.3724,9.2652,9.2109,9.1812,9.1732,9.1771,9.0942,8.9919,8.8857,8.8016,8.7087,8.6377,8.5973,8.5301,8.4397,8.3371,8.2263,8.1075,7.9654,7.8369,7.7164,7.6009,7.4885,7.4361,7.3765,7.3628,7.3527,7.3424,7.3357,7.3252,7.3108,7.2926,7.2798,7.2593,7.2459,7.1814,7.117,7.0677,7.0,6.9192,6.8568,6.8385,6.811,6.7853,6.778,6.7707,6.7577,6.7415,6.732,6.7186,6.7012,6.674,6.6427,6.6128,6.5746,6.5008,6.4636,6.3935,6.3285,6.2816,6.2285,6.1891,6.1534,6.1132,6.0778,6.0443,6.041,6.0345,6.0292,6.0206,6.0152,6.0066,6.0001,5.9849,5.9674,5.9443,5.9312,5.9047,5.8709,10.3563,10.3407,10.1813,10.1048,10.0671,9.9423,9.8694,9.8431,9.7808,9.7535,9.7496,9.7481,9.7481,9.7496,9.7481,9.741,9.7282,9.6467,9.6391,9.6273,9.4814,9.4055,9.384,9.3331,9.2749,9.3292,9.3348,9.4263,9.5606,9.5833,9.6267,9.6824,9.7006,9.6398,9.539,9.4589,9.3826,9.287,9.2185,9.1771,9.1716,9.1649,9.1233,9.0295,8.9377,8.8398,8.7319,8.6411,8.589,8.536,8.4593,8.3631,8.2547,8.152,8.0269,7.8859,7.7635,7.653,7.5359,7.4586,7.3876,7.355,7.341,7.3305,7.3199,7.3091,7.3,7.2724,7.2593,7.2496,7.2459,7.1961,7.1521,7.1154,7.066,7.0073,6.9394,6.8972,6.8769,6.844,6.8092,6.7799,6.7616,6.7266,6.707,6.7005,6.6823,6.6387,6.6074,6.5901,6.5332,6.4322,6.3643,6.2939,6.2455,6.2174,6.1728,6.1285,6.0981,6.0672,6.0402,6.0152,6.0152,6.0066,5.9946,5.9772,5.9772,5.9772,5.9707,5.9555,5.937,5.9113,5.8892,5.8466,5.8091,10.1768,10.1657,10.0658,9.9813,9.9189,9.885,9.8329,9.7691,9.7574,9.7496,9.7496,9.7387,9.7349,9.7232,9.726,9.7284,9.6974,9.6371,9.5942,9.5861,9.4812,9.3974,9.3664,9.3387,9.2937,9.3108,9.3124,9.4234,9.5212,9.5577,9.6087,9.6669,9.6538,9.6123,9.4729,9.4276,9.3407,9.2208,9.1793,9.1716,9.1687,9.1629,9.1068,9.0204,8.9189,8.8214,8.7156,8.6241,8.5511,8.5114,8.4252,8.3195,8.2019,8.0998,7.997,7.9001,7.8053,7.6924,7.544,7.4681,7.4168,7.3564,7.3289,7.3145,7.3037,7.2835,7.2723,7.2553,7.2496,7.2496,7.2532,7.2422,7.2018,7.1651,7.1228,7.0621,7.0014,6.9681,6.9441,6.8976,6.8611,6.796,6.7597,6.7164,6.6812,6.671,6.6546,6.6174,6.5703,6.5442,6.4844,6.3761,6.2779,6.2122,6.177,6.1488,6.1198,6.0783,6.0574,6.0294,6.0076,5.9979,5.9804,5.9716,5.9596,5.9508,5.9508,5.9508,5.9355,5.9226,5.9009,5.8637,5.8373,5.787,5.7325,10.0241,10.058,9.9722,9.9162,9.8772,9.829,9.7847,9.7535,9.7465,9.7465,9.7333,9.6871,9.6425,9.6092,9.5885,9.5846,9.5768,9.5436,9.5239,9.5023,9.4341,9.3697,9.3287,9.2813,9.2518,9.2572,9.2572,9.2959,9.407,9.4743,9.5209,9.5437,9.5448,9.5061,9.4171,9.3756,9.3186,9.2489,9.1997,9.1659,9.1629,9.1462,9.1149,9.0552,8.9182,8.8117,8.7271,8.5963,8.5138,8.4757,8.4145,8.35,8.2435,8.1445,8.0467,7.9442,7.8586,7.7497,7.6236,7.516,7.4438,7.3848,7.3424,7.3037,7.2872,7.2667,7.2553,7.2496,7.2496,7.2532,7.2532,7.2532,7.2349,7.2092,7.1757,7.1296,7.0741,7.042,7.0082,6.9612,6.9104,6.8512,6.8005,6.7811,6.739,6.7114,6.6949,6.6599,6.5758,6.4966,6.4187,6.3137,6.2287,6.1465,6.1185,6.092,6.072,6.0443,6.0315,6.0087,5.9869,5.9716,5.954,5.9452,5.9241,5.9241,5.9152,5.912,5.9088,5.8806,5.8614,5.818,5.7743,5.7125,5.6503,9.9059,9.9371,9.8758,9.847,9.8431,9.7769,9.7496,9.7481,9.741,9.7277,9.6853,9.6174,9.5359,9.4912,9.4853,9.491,9.4737,9.4441,9.4341,9.4008,9.3481,9.2969,9.2673,9.2198,9.1941,9.1902,9.1954,9.2316,9.2781,9.3335,9.3811,9.4259,9.4491,9.4114,9.3804,9.3379,9.2876,9.2393,9.1801,9.1539,9.147,9.1308,9.1098,9.0378,8.9305,8.7995,8.7389,8.5842,8.4741,8.4367,8.418,8.3561,8.2511,8.1537,8.0586,7.9551,7.8629,7.7879,7.6897,7.5937,7.4959,7.4312,7.3646,7.3111,7.2667,7.2553,7.2532,7.2532,7.2532,7.2475,7.2416,7.2453,7.2321,7.2226,7.2094,7.1706,7.1295,7.081,7.0454,7.0093,6.9613,6.9095,6.8708,6.8618,6.8148,6.7548,6.726,6.6942,6.6,6.4811,6.37,6.2781,6.2033,6.1183,6.0633,6.0463,6.0206,6.0098,5.9966,5.9878,5.9661,5.9419,5.9241,5.9152,5.8972,5.876,5.8669,5.8669,5.8696,5.8319,5.7888,5.7559,5.7038,5.6334,5.5526,9.8353,9.7691,9.7613,9.7613,9.7652,9.7535,9.7481,9.7294,9.7355,9.6815,9.5961,9.5242,9.4718,9.4561,9.4423,9.4402,9.4557,9.3814,9.3481,9.3085,9.2557,9.2198,9.2057,9.1954,9.1825,9.1786,9.1759,9.181,9.186,9.2169,9.302,9.3949,9.3727,9.3572,9.3234,9.2818,9.2402,9.1956,9.1483,9.1308,9.1202,9.0987,9.0762,9.0258,8.8863,8.7611,8.726,8.5469,8.4318,8.3998,8.3892,8.3505,8.2482,8.1531,8.0581,7.9633,7.8644,7.7961,7.7289,7.6612,7.5933,7.5101,7.4175,7.3345,7.2847,7.2569,7.2532,7.2496,7.2459,7.2453,7.235,7.2303,7.2206,7.2061,7.1964,7.1609,7.1205,7.0923,7.0626,7.0535,6.9979,6.9173,6.8681,6.8435,6.8103,6.7488,6.7049,6.673,6.5858,6.4705,6.3467,6.2562,6.1871,6.1152,6.0304,6.0033,5.9914,5.9804,5.9669,5.9548,5.9363,5.9152,5.8882,5.8792,5.8578,5.8395,5.8119,5.7902,5.7776,5.7519,5.7243,5.6769,5.6001,5.5143,5.4495,9.7808,9.7457,9.6912,9.7028,9.7496,9.7465,9.7138,9.6693,9.6563,9.5729,9.4465,9.4017,9.3607,9.3275,9.3076,9.3015,9.2976,9.2697,9.2518,9.2378,9.2057,9.1876,9.1851,9.1798,9.1744,9.1744,9.1716,9.1716,9.1716,9.1716,9.1909,9.2528,9.2799,9.2499,9.22,9.211,9.1747,9.1496,9.1133,9.1026,9.0914,9.0607,9.0364,9.0105,8.8311,8.722,8.658,8.4981,8.4154,8.3712,8.3602,8.3152,8.2607,8.1731,8.0798,7.9866,7.8906,7.821,7.761,7.6898,7.6037,7.5073,7.4243,7.3597,7.323,7.2863,7.2532,7.2422,7.2438,7.2468,7.2194,7.2071,7.1929,7.1801,7.1593,7.1304,7.0979,7.0647,7.02,6.992,6.9386,6.8814,6.8343,6.8014,6.7782,6.7407,6.6923,6.6403,6.5496,6.4681,6.355,6.2661,6.2048,6.1196,6.0346,6.0054,5.9772,5.9572,5.9434,5.9248,5.9004,5.8669,5.8395,5.8303,5.8026,5.7653,5.7244,5.6957,5.6772,5.6684,5.6337,5.5804,5.4917,5.4048,5.3598,9.7106,9.7013,9.6156,9.6312,9.7013,9.6787,9.6326,9.5785,9.5652,9.4853,9.3392,9.3137,9.2671,9.2166,9.206,9.2053,9.2106,9.2004,9.1902,9.1876,9.1825,9.1759,9.1732,9.1744,9.1716,9.1716,9.1716,9.1716,9.1716,9.1687,9.1765,9.1774,9.1591,9.1638,9.1608,9.1341,9.1168,9.1098,9.0839,9.0602,9.0561,9.016,8.9939,8.9535,8.7789,8.6779,8.6025,8.4758,8.3769,8.3433,8.3318,8.3143,8.2631,8.2029,8.1266,8.0382,7.9425,7.8529,7.7904,7.7072,7.625,7.5432,7.4955,7.4441,7.3905,7.3465,7.3333,7.3113,7.2966,7.2738,7.2485,7.2315,7.2011,7.1853,7.0919,7.0579,7.027,6.992,6.9562,6.9196,6.8682,6.8154,6.7625,6.7284,6.6976,6.666,6.6372,6.5861,6.5359,6.4619,6.3866,6.3007,6.2281,6.1329,6.0469,6.0267,6.004,5.9659,5.9388,5.8919,5.8642,5.8398,5.7996,5.7746,5.737,5.6892,5.6409,5.6115,5.5969,5.5954,5.5448,5.4832,5.4287,5.3489,5.3137,9.6234,9.6125,9.5291,9.5408,9.6031,9.533,9.4929,9.4738,9.464,9.4094,9.3197,9.251,9.2122,9.1989,9.1936,9.1927,9.1876,9.1851,9.1786,9.1759,9.1732,9.1705,9.1716,9.1716,9.1716,9.1716,9.1716,9.1716,9.1687,9.1659,9.1629,9.15,9.1406,9.1336,9.1539,9.1206,9.0952,9.08,9.0432,9.0212,9.0083,8.9707,8.9426,8.8933,8.741,8.6349,8.5807,8.4347,8.3392,8.3297,8.3024,8.2904,8.2732,8.192,8.1317,8.0997,7.9621,7.8823,7.8492,7.7671,7.6803,7.6106,7.5666,7.5312,7.4848,7.4531,7.4214,7.3751,7.3776,7.376,7.3392,7.2857,7.229,7.1723,7.0876,7.0273,7.0018,6.9648,6.9331,6.8976,6.8086,6.7339,6.686,6.6441,6.6055,6.5836,6.5581,6.5336,6.5033,6.4473,6.3838,6.3042,6.234,6.1795,6.0935,6.0656,6.0308,5.9831,5.9561,5.9188,5.8812,5.8405,5.7996,5.7366,5.6941,5.6655,5.5882,5.5179,5.516,5.51,5.4257,5.3654,5.3366,5.3181,5.2907,9.5884,9.5252,9.4395,9.4167,9.4387,9.4698,9.4446,9.3785,9.3239,9.2809,9.2494,9.206,9.1983,9.1921,9.1849,9.1812,9.1851,9.1771,9.1744,9.1744,9.1716,9.1716,9.1716,9.1716,9.1716,9.1716,9.1716,9.1687,9.1629,9.157,9.1508,9.1374,9.1098,9.0987,9.0951,9.0761,9.0478,9.0345,8.9982,8.9692,8.9604,8.9238,8.8903,8.8804,8.6984,8.5968,8.5648,8.3982,8.3158,8.3001,8.2782,8.2721,8.2622,8.1918,8.1634,8.1287,8.014,7.9627,7.8583,7.7568,7.7019,7.6642,7.624,7.5848,7.5359,7.4587,7.4315,7.4106,7.3978,7.3747,7.3147,7.2649,7.214,7.1973,7.1325,7.0762,7.0375,6.9785,6.933,6.8913,6.8285,6.7251,6.657,6.6246,6.5915,6.5253,6.5056,6.4859,6.4518,6.4268,6.3728,6.3056,6.2385,6.2002,6.1491,6.1133,6.0784,6.0387,6.0107,5.9916,5.9377,5.8618,5.8164,5.7641,5.7061,5.6436,5.5619,5.4936,5.4567,5.4147,5.3732,5.347,5.336,5.3163,5.2994,9.4957,9.434,9.3467,9.3064,9.3026,9.359,9.3474,9.2889,9.2343,9.2044,9.2022,9.1975,9.1936,9.1849,9.1812,9.1759,9.1759,9.1744,9.1716,9.1716,9.1716,9.1716,9.1716,9.1716,9.1687,9.1687,9.1659,9.1629,9.1508,9.1477,9.1275,9.0914,9.0722,9.052,9.0394,9.0219,9.0083,8.9887,8.9489,8.9227,8.9098,8.8801,8.8354,8.7711,8.6571,8.551,8.4781,8.383,8.2782,8.2696,8.2633,8.2571,8.2434,8.2223,8.1939,8.1424,8.0458,7.9661,7.8362,7.7377,7.6902,7.6793,7.6418,7.6136,7.5871,7.5415,7.4905,7.4585,7.4037,7.3716,7.3401,7.2809,7.2056,7.1952,7.122,7.0626,7.0031,6.9459,6.9064,6.8695,6.8272,6.7302,6.6566,6.616,6.5894,6.5121,6.4507,6.4312,6.4118,6.3926,6.3705,6.3129,6.265,6.2427,6.2044,6.163,6.1249,6.0868,6.0512,6.0178,5.942,5.8529,5.8277,5.7849,5.684,5.5984,5.5234,5.4736,5.423,5.3884,5.3584,5.3462,5.3337,5.3226,5.3204,9.3545,9.3354,9.256,9.221,9.2169,9.2345,9.2268,9.2148,9.2044,9.2022,9.196,9.1838,9.1838,9.176,9.1732,9.1677,9.1677,9.1716,9.1716,9.1716,9.1716,9.1716,9.1716,9.1687,9.1659,9.1629,9.157,9.1438,9.1308,9.11,9.08,9.0436,9.0219,8.9991,8.9839,8.9703,8.9654,8.9438,8.9119,8.8898,8.871,8.8442,8.7966,8.7254,8.6301,8.5297,8.4421,8.3434,8.2855,8.2608,8.2471,8.2407,8.2206,8.2068,8.1929,8.1403,8.0253,7.9215,7.8274,7.7466,7.6752,7.6614,7.657,7.6505,7.6233,7.5846,7.5397,7.4975,7.451,7.4257,7.397,7.2927,7.1916,7.1282,7.053,6.9884,6.9316,6.8841,6.855,6.8219,6.785,6.7241,6.6733,6.629,6.5998,6.5157,6.4545,6.4192,6.3966,6.3707,6.3484,6.326,6.2908,6.2907,6.2523,6.1884,6.1529,6.1078,6.0446,6.0105,5.9215,5.8604,5.8157,5.7587,5.6407,5.5591,5.5077,5.4515,5.3979,5.3664,5.3702,5.3571,5.359,5.3571,5.3579,9.3177,9.256,9.2307,9.2151,9.211,9.2088,9.2066,9.2005,9.1936,9.1888,9.1876,9.1812,9.1759,9.1732,9.1705,9.1716,9.1716,9.1716,9.1716,9.1716,9.1716,9.1716,9.1687,9.1659,9.1629,9.157,9.1438,9.1236,9.0989,9.0761,9.0432,9.0121,8.9752,8.9489,8.928,8.9119,8.9119,8.9009,8.8671,8.8495,8.8316,8.8134,8.7687,8.7127,8.6417,8.541,8.4424,8.365,8.3033,8.226,8.2084,8.2018,8.1782,8.1696,8.1688,8.1554,8.0579,7.9602,7.8722,7.7647,7.6823,7.6285,7.6176,7.6108,7.5934,7.5726,7.5371,7.4902,7.4287,7.3835,7.3276,7.2382,7.1674,7.1002,7.0297,6.9873,6.9353,6.8985,6.8644,6.8233,6.7945,6.7523,6.6939,6.6703,6.6369,6.5432,6.4725,6.4345,6.3868,6.3516,6.3228,6.3034,6.2808,6.271,6.245,6.1905,6.1571,6.12,6.065,5.9997,5.9453,5.8851,5.8226,5.7269,5.6152,5.5396,5.499,5.4418,5.4027,5.3924,5.3919,5.3817,5.3779,5.3708,5.3571,9.2675,9.2229,9.2171,9.2131,9.2028,9.1975,9.1912,9.1927,9.1902,9.1812,9.1786,9.1798,9.1705,9.1716,9.1716,9.1716,9.1716,9.1716,9.1716,9.1716,9.1687,9.1659,9.1629,9.157,9.1477,9.1374,9.1168,9.0914,9.0643,9.0174,8.979,8.9642,8.9333,8.9064,8.8785,8.8613,8.8554,8.8495,8.8316,8.8134,8.8047,8.7821,8.7544,8.7128,8.648,8.5648,8.4419,8.3647,8.2861,8.1965,8.1818,8.1715,8.1542,8.1599,8.1391,8.1234,8.0406,7.9431,7.8526,7.7661,7.6694,7.6013,7.5621,7.5442,7.5371,7.5118,7.4748,7.4264,7.3646,7.2958,7.2398,7.1774,7.1334,7.0825,7.0389,6.9888,6.9604,6.9187,6.8895,6.847,6.8109,6.775,6.7415,6.7164,6.6719,6.5917,6.5282,6.4843,6.4179,6.3415,6.2998,6.271,6.2513,6.2315,6.2053,6.1822,6.1325,6.0969,6.0502,5.9938,5.9543,5.8654,5.7709,5.6762,5.5848,5.5178,5.4651,5.4533,5.4248,5.4019,5.3861,5.3552,5.343,5.347,5.3389,9.2191,9.2171,9.2131,9.2066,9.196,9.1838,9.1825,9.1786,9.1825,9.1825,9.1759,9.1705,9.1716,9.1716,9.1716,9.1687,9.1687,9.1687,9.1659,9.1687,9.16,9.157,9.147,9.1374,9.1241,9.11,9.0877,9.0561,9.0136,8.9703,8.928,8.9119,8.8842,8.8554,8.8376,8.8134,8.8072,8.801,8.7947,8.7821,8.7757,8.748,8.7091,8.6458,8.6029,8.5385,8.3966,8.3135,8.2701,8.2085,8.1615,8.1615,8.1437,8.1364,8.1051,8.0803,8.026,7.9357,7.8423,7.7523,7.6554,7.5764,7.5262,7.4858,7.4598,7.4563,7.4181,7.3571,7.2823,7.2099,7.1498,7.0943,7.0381,7.0087,6.967,6.9285,6.8994,6.8699,6.8301,6.8068,6.7903,6.7576,6.7342,6.7054,6.6901,6.6175,6.5669,6.5172,6.4602,6.3653,6.3273,6.2757,6.2499,6.233,6.1871,6.1605,6.0979,6.0573,6.0072,5.9389,5.8643,5.7863,5.7107,5.6077,5.5172,5.4671,5.4286,5.4139,5.3992,5.3631,5.3376,5.3171,5.3048,5.309,5.2887,9.2131,9.2131,9.2066,9.1975,9.1838,9.1812,9.1798,9.1744,9.1744,9.1744,9.1705,9.1716,9.1716,9.1716,9.1716,9.1687,9.1668,9.16,9.1531,9.15,9.1406,9.1341,9.127,9.1062,9.0915,9.08,9.0558,9.0083,8.9604,8.9136,8.8748,8.8613,8.8376,8.8134,8.8047,8.7757,8.7628,8.7628,8.7497,8.7497,8.7497,8.7402,8.712,8.677,8.6416,8.5874,8.471,8.3983,8.3296,8.257,8.1736,8.1375,8.1053,8.0837,8.0694,8.0587,8.0326,7.9343,7.8302,7.7408,7.6474,7.5324,7.4633,7.4174,7.3905,7.3905,7.3482,7.2823,7.2054,7.128,7.0647,7.0026,6.9616,6.9288,6.8994,6.8699,6.8401,6.8101,6.7695,6.7593,6.7529,6.7395,6.7228,6.6982,6.686,6.6259,6.5618,6.5041,6.4915,6.4183,6.3932,6.3483,6.2786,6.2424,6.2032,6.1217,6.0659,5.991,5.9329,5.8549,5.7727,5.6766,5.5933,5.5261,5.458,5.4194,5.3954,5.3833,5.3565,5.3241,5.2941,5.2731,5.2483,5.2279,5.2049,9.2088,9.2028,9.1975,9.1863,9.1786,9.1798,9.1744,9.1716,9.1716,9.1716,9.1716,9.1716,9.1716,9.1687,9.1687,9.1629,9.1578,9.147,9.1438,9.1341,9.1168,9.1098,9.0914,9.0683,9.06,9.0432,8.9944,8.9489,8.8972,8.8633,8.8316,8.8134,8.7884,8.7757,8.7665,8.7497,8.7298,8.7231,8.7132,8.7064,8.7095,8.6995,8.6925,8.6715,8.6498,8.6027,8.519,8.4317,8.3374,8.236,8.1419,8.0985,8.0695,8.0623,8.044,8.0361,8.009,7.953,7.8206,7.7163,7.6264,7.4929,7.3905,7.338,7.2651,7.2651,7.2279,7.1591,7.1129,7.0423,6.9943,6.9386,6.9125,6.8863,6.8501,6.8101,6.7899,6.7695,6.742,6.7285,6.7149,6.7149,6.691,6.6659,6.65,6.6425,6.5647,6.5321,6.5027,6.4595,6.4408,6.4053,6.3189,6.2755,6.2359,6.1427,6.0197,5.9417,5.8644,5.7623,5.668,5.5641,5.4671,5.4433,5.4101,5.3833,5.3592,5.347,5.3187,5.2931,5.2615,5.2339,5.191,5.158,5.1071,9.2028,9.1936,9.1838,9.1825,9.1798,9.1744,9.1716,9.1716,9.1716,9.16,9.1494,9.1571,9.1687,9.1687,9.1629,9.16,9.1508,9.1341,9.1275,9.1098,9.0877,9.0722,9.052,9.0345,9.0075,8.9752,8.9295,8.8898,8.8436,8.8134,8.7884,8.773,8.76,8.7431,8.7365,8.7268,8.7064,8.6925,8.6786,8.6536,8.6536,8.6536,8.6536,8.6465,8.6283,8.5919,8.5082,8.4101,8.3157,8.2176,8.1233,8.0654,8.04,8.029,8.0175,7.9977,7.9799,7.8877,7.7717,7.6957,7.5544,7.4205,7.3296,7.2621,7.1966,7.1423,7.1064,7.0589,7.0129,6.9787,6.9313,6.8928,6.8598,6.8466,6.8032,6.7593,6.7491,6.7317,6.7109,6.6901,6.6796,6.6764,6.6523,6.6268,6.6211,6.6027,6.5887,6.5762,6.539,6.4816,6.4381,6.3978,6.3281,6.2884,6.2656,6.1477,6.0059,5.9177,5.8317,5.6937,5.5749,5.5019,5.4341,5.3954,5.3713,5.3498,5.3227,5.2956,5.2795,5.2486,5.1996,5.1482,5.11,5.064,5.0052,9.1936,9.1812,9.1786,9.1759,9.1705,9.1677,9.1716,9.1716,9.1638,9.1301,9.0856,9.132,9.1629,9.1591,9.16,9.1508,9.1275,9.1136,9.0915,9.0761,9.0474,9.0345,9.0129,8.9752,8.9295,8.8917,8.8633,8.8279,8.7984,8.7693,8.7497,8.7439,8.72,8.7064,8.6819,8.6715,8.6644,8.6573,8.6465,8.632,8.6247,8.6247,8.632,8.6247,8.6174,8.5842,8.5182,8.4022,8.3293,8.2382,8.122,8.0354,8.0028,7.9916,7.9721,7.9515,7.9281,7.8476,7.7438,7.6725,7.5308,7.3688,7.2946,7.2301,7.157,7.0657,7.0248,6.961,6.9217,6.9115,6.8732,6.8331,6.7958,6.7792,6.7523,6.7317,6.7109,6.6901,6.6723,6.6512,6.6406,6.6248,6.6059,6.5853,6.5872,6.5654,6.5421,6.5328,6.4936,6.4604,6.4382,6.375,6.3169,6.2702,6.2281,6.1228,6.0066,5.9123,5.8088,5.6704,5.5557,5.4681,5.409,5.3822,5.3416,5.3213,5.2914,5.2598,5.2086,5.1733,5.1249,5.0767,5.0276,4.9761,4.9147]},{"header":{"parameterUnit":"m.s-1","parameterCategory":1,"la1":31.0,"la2":29.5877,"lo1":-88.7671,"lo2":-86.6584,"dy":0.0162,"dx":0.0185,"nx":115,"ny":88,"refTime":"2023-03-11T06:00:00:Z","depth":0,"parameterNumber":3,"parameterNumberName":"V-component_of_WINDS"},"data":[0.0,0.0,0.0,0.0,0.0,0.0,0.0,0.0,0.0,0.0,0.0,0.0,0.0,0.0,0.0,0.0,0.0,0.0,0.0,0.0,0.0,0.0,0.0,0.0,0.0,0.0,0.0,0.0,0.0,0.0,0.0,0.0,0.0,0.0,0.0,0.0,0.0,0.0,0.0,0.0,0.0,0.0,0.0,0.0,0.0,0.0,0.0,0.0,0.0,0.0,0.0,0.0,0.0,0.0,0.0,0.0,0.0,0.0,0.0,0.0,0.0,0.0,0.0,0.0,0.0,0.0,0.0,0.0,0.0,0.0,0.0,0.0,0.0,0.0,0.0,0.0,0.0,0.0,0.0,0.0,0.0,0.0,0.0,0.0,0.0,0.0,0.0,0.0,0.0,0.0,0.0,0.0,0.0,0.0,0.0,0.0,0.0,0.0,0.0,0.0,0.0,0.0,0.0,0.0,0.0,0.0,0.0,0.0,0.0,0.0,0.0,0.0,0.0,0.0,0.0,0.0,0.0,0.0,0.0,0.0,0.0,0.0,0.0,0.0,0.0,0.0,0.0,0.0,0.0,0.0,0.0,0.0,0.0,0.0,0.0,0.0,0.0,0.0,0.0,0.0,0.0,0.0,0.0,0.0,0.0,0.0,0.0,0.0,0.0,0.0,0.0,0.0,0.0,0.0,0.0,0.0,0.0,0.0,0.0,0.0,0.0,0.0,0.0,0.0,0.0,0.0,0.0,0.0,0.0,0.0,0.0,0.0,0.0,0.0,0.0,0.0,0.0,0.0,0.0,0.0,0.0,0.0,0.0,0.0,0.0,0.0,0.0,0.0,0.0,0.0,0.0,0.0,0.0,0.0,0.0,0.0,0.0,0.0,0.0,0.0,0.0,0.0,0.0,0.0,0.0,0.0,0.0,0.0,0.0,0.0,0.0,0.0,0.0,0.0,0.0,0.0,0.0,0.0,0.0,0.0,0.0,0.0,0.0,0.0,0.0,0.0,0.0,0.0,0.0,0.0,0.0,0.0,0.0,0.0,0.0,0.0,0.0,0.0,0.0,0.0,0.0,0.0,0.0,0.0,0.0,0.0,0.0,0.0,0.0,0.0,0.0,0.0,0.0,0.0,0.0,0.0,0.0,0.0,0.0,0.0,0.0,0.0,0.0,0.0,0.0,0.0,0.0,0.0,0.0,0.0,0.0,0.0,0.0,0.0,0.0,0.0,0.0,0.0,0.0,0.0,0.0,0.0,0.0,0.0,0.0,0.0,0.0,0.0,0.0,0.0,0.0,0.0,0.0,0.0,0.0,0.0,0.0,0.0,0.0,0.0,0.0,0.0,0.0,0.0,0.0,0.0,0.0,0.0,0.0,0.0,0.0,0.0,0.0,0.0,0.0,0.0,0.0,0.0,0.0,0.0,0.0,0.0,0.0,0.0,0.0,0.0,0.0,0.0,0.0,0.0,0.0,0.0,0.0,0.0,0.0,0.0,0.0,0.0,0.0,0.0,0.0,0.0,0.0,0.0,0.0,0.0,0.0,0.0,0.0,0.0,0.0,0.0,0.0,0.0,0.0,0.0,0.0,0.0,0.0,0.0,0.0,0.0,0.0,0.0,0.0,0.0,0.0,0.0,0.0,0.0,0.0,0.0,0.0,0.0,0.0,0.0,0.0,0.0,0.0,0.0,0.0,0.0,0.0,0.0,0.0,0.0,0.0,0.0,0.0,0.0,0.0,0.0,0.0,0.0,0.0,0.0,0.0,0.0,0.0,0.0,0.0,0.0,0.0,0.0,0.0,0.0,0.0,0.0,0.0,0.0,0.0,0.0,0.0,0.0,0.0,0.0,0.0,0.0,0.0,0.0,0.0,0.0,0.0,0.0,0.0,0.0,0.0,0.0,0.0,0.0,0.0,0.0,0.0,0.0,0.0,0.0,0.0,0.0,0.0,0.0,0.0,0.0,0.0,0.0,0.0,0.0,0.0,0.0,0.0,0.0,0.0,0.0,0.0,0.0,0.0,0.0,0.0,0.0,0.0,0.0,0.0,0.0,0.0,0.0,0.0,0.0,0.0,0.0,0.0,0.0,0.0,0.0,0.0,0.0,0.0,0.0,0.0,0.0,0.0,0.0,0.0,0.0,0.0,0.0,0.0,0.0,0.0,0.0,0.0,0.0,0.0,0.0,0.0,0.0,0.0,0.0,0.0,0.0,0.0,0.0,0.0,0.0,0.0,0.0,0.0,0.0,0.0,0.0,0.0,0.0,0.0,0.0,0.0,0.0,0.0,0.0,0.0,0.0,0.0,0.0,0.0,0.0,0.0,0.0,0.0,0.0,0.0,0.0,0.0,0.0,0.0,0.0,0.0,0.0,0.0,0.0,0.0,0.0,0.0,0.0,0.0,0.0,0.0,0.0,0.0,0.0,0.0,0.0,0.0,0.0,0.0,0.0,0.0,0.0,0.0,0.0,0.0,0.0,0.0,0.0,0.0,0.0,0.0,0.0,0.0,0.0,0.0,0.0,0.0,0.0,0.0,0.0,0.0,0.0,0.0,0.0,0.0,0.0,0.0,0.0,0.0,0.0,0.0,0.0,0.0,0.0,0.0,0.0,0.0,0.0,0.0,0.0,0.0,0.0,0.0,0.0,0.0,0.0,0.0,0.0,0.0,0.0,0.0,0.0,0.0,0.0,0.0,0.0,0.0,0.0,0.0,0.0,0.0,0.0,0.0,0.0,0.0,0.0,0.0,0.0,0.0,0.0,0.0,0.0,0.0,0.0,0.0,0.0,0.0,0.0,0.0,0.0,0.0,0.0,0.0,0.0,0.0,0.0,0.0,0.0,0.0,0.0,0.0,0.0,0.0,0.0,0.0,0.0,0.0,0.0,0.0,0.0,0.0,0.0,0.0,0.0,0.0,0.0,0.0,0.0,0.0,0.0,0.0,0.0,0.0,0.0,0.0,0.0,0.0,0.0,0.0,0.0,0.0,0.0,0.0,0.0,0.0,0.0,0.0,0.0,0.0,0.0,0.0,0.0,0.0,0.0,0.0,0.0,0.0,0.0,0.0,0.0,0.0,0.0,0.0,0.0,0.0,0.0,0.0,0.0,0.0,0.0,0.0,0.0,0.0,0.0,0.0,0.0,0.0,0.0,0.0,0.0,0.0,0.0,0.0,0.0,0.0,0.0,0.0,0.0,0.0,0.0,0.0,0.0,0.0,0.0,0.0,0.0,0.0,0.0,0.0,0.0,0.0,0.0,0.0,0.0,0.0,0.0,0.0,0.0,0.0,0.0,0.0,0.0,0.0,0.0,0.0,0.0,0.0,0.0,0.0,0.0,0.0,0.0,0.0,0.0,0.0,0.0,0.0,0.0,0.0,0.0,0.0,0.0,0.0,0.0,0.0,0.0,0.0,0.0,0.0,0.0,0.0,0.0,0.0,0.0,0.0,0.0,0.0,0.0,0.0,0.0,0.0,0.0,0.0,0.0,0.0,0.0,0.0,0.0,0.0,0.0,0.0,0.0,0.0,0.0,0.0,0.0,0.0,0.0,0.0,0.0,0.0,0.0,0.0,0.0,0.0,0.0,0.0,0.0,0.0,0.0,0.0,0.0,0.0,0.0,0.0,0.0,0.0,0.0,0.0,0.0,0.0,0.0,0.0,0.0,0.0,0.0,0.0,0.0,0.0,0.0,0.0,0.0,0.0,0.0,0.0,0.0,0.0,0.0,0.0,0.0,0.0,0.0,0.0,0.0,0.0,0.0,0.0,0.0,0.0,0.0,0.0,0.0,0.0,0.0,0.0,0.0,0.0,0.0,0.0,0.0,0.0,0.0,0.0,0.0,0.0,0.0,0.0,0.0,0.0,0.0,0.0,0.0,0.0,0.0,0.0,0.0,0.0,0.0,0.0,0.0,0.0,0.0,0.0,0.0,0.0,0.0,0.0,0.0,0.0,0.0,0.0,0.0,0.0,0.0,0.0,0.0,0.0,0.0,0.0,0.0,0.0,0.0,0.0,0.0,0.0,0.0,0.0,0.0,0.0,0.0,0.0,0.0,0.0,0.0,0.0,0.0,0.0,0.0,0.0,0.0,0.0,0.0,0.0,0.0,0.0,0.0,0.0,0.0,0.0,0.0,0.0,0.0,0.0,0.0,0.0,0.0,0.0,0.0,0.0,0.0,0.0,0.0,0.0,0.0,0.0,0.0,0.0,0.0,0.0,0.0,0.0,0.0,0.0,0.0,0.0,0.0,0.0,0.0,0.0,0.0,0.0,0.0,0.0,0.0,-0.7526,0.0,0.0,0.0,0.0,0.0,0.0,0.0,0.0,0.0,0.0,0.0,0.0,0.0,0.0,0.0,0.0,0.0,0.0,0.0,0.0,0.0,0.0,0.0,0.0,0.0,0.0,0.0,0.0,0.0,0.0,0.0,0.0,0.0,0.0,0.0,0.0,0.0,0.0,0.0,0.0,0.0,0.0,0.0,0.0,0.0,0.0,0.0,0.0,0.0,0.0,0.0,0.0,0.0,0.0,0.0,0.0,0.0,0.0,0.0,0.0,0.0,0.0,0.0,0.0,0.0,0.0,0.0,0.0,0.0,0.0,0.0,0.0,0.0,0.0,0.0,0.0,0.0,0.0,0.0,0.0,0.0,0.0,0.0,0.0,0.0,0.0,0.0,0.0,0.0,0.0,0.0,0.0,0.0,0.0,0.0,0.0,0.0,0.0,0.0,0.0,0.0,0.0,0.0,0.0,0.0,0.0,0.0,0.0,0.0,0.0,-0.4006,-0.4667,-0.5417,-0.6187,-0.6991,0.0,0.0,0.0,0.0,0.0,0.0,0.0,0.0,0.0,0.0,0.0,0.0,0.0,0.0,0.0,0.0,0.0,0.0,0.0,0.0,0.0,0.0,0.0,0.0,0.0,0.0,0.0,0.0,0.0,0.0,0.0,0.0,0.0,0.0,0.0,0.0,0.0,0.0,0.0,0.0,0.0,0.0,0.0,0.0,0.0,0.0,0.0,0.0,0.0,0.0,0.0,0.0,0.0,0.0,0.0,0.0,0.0,0.0,0.0,0.0,0.0,0.0,0.0,0.0,0.0,0.0,0.0,0.0,0.0,0.0,0.0,0.0,0.0,0.0,0.0,0.0,0.0,0.0,0.0,0.0,0.0,0.0,0.0,0.0,0.0,0.0,0.0,0.0,0.0,0.0,0.0,0.0,0.0,0.0,0.0,0.0,0.0,0.0,0.0,0.0,0.0,0.0,0.0,0.0,0.0,0.0,0.0,0.0,0.0,0.0,0.0,0.0,-0.487,-0.5517,-0.6455,0.0,0.0,0.0,0.0,0.0,0.0,0.0,0.0,0.0,0.0,0.0,0.0,0.0,0.0,0.0,0.0,0.0,0.0,0.0,0.0,0.0,0.0,0.0,0.0,0.0,0.0,0.0,0.0,0.0,0.0,0.0,0.0,0.0,0.0,0.0,0.0,0.0,0.0,0.0,0.0,0.0,0.0,0.0,0.0,0.0,0.0,0.0,0.0,0.0,0.0,0.0,0.0,0.0,0.0,0.0,0.0,0.0,0.0,0.0,0.0,0.0,0.0,0.0,0.0,0.0,0.0,0.0,0.0,0.0,0.0,0.0,0.0,0.0,0.0,0.0,0.0,0.0,0.0,0.0,0.0,0.0,0.0,0.0,0.0,0.0,0.0,0.0,0.0,0.0,0.0,0.0,0.0,0.0,0.0,0.0,0.0,0.0,0.0,0.0,0.0,0.0,0.0,0.0,0.0,0.0,0.0,0.0,0.0,0.0,0.0,-0.3143,-0.3777,-0.4176,0.0,-0.6451,0.0,0.0,0.0,0.0,0.0,0.0,0.0,0.0,0.0,0.0,0.0,0.0,0.0,0.0,0.0,0.0,0.0,0.0,0.0,0.0,0.0,0.0,0.0,0.0,0.0,0.0,0.0,0.0,0.0,0.0,0.0,0.0,0.0,0.0,0.0,0.0,0.0,0.0,0.0,0.0,0.0,0.0,0.0,0.0,0.0,0.0,0.0,0.0,0.0,0.0,0.0,0.0,0.0,0.0,0.0,0.0,0.0,0.0,0.0,0.0,0.0,0.0,0.0,0.0,0.0,0.0,0.0,0.0,0.0,0.0,0.0,0.0,0.0,0.0,0.0,0.0,0.0,0.0,0.0,0.0,0.0,0.0,0.0,0.0,0.0,0.0,0.0,0.0,0.0,0.0,0.0,0.0,0.0,0.0,0.0,0.0,0.0,0.0,0.0,0.0,0.0,0.0,0.0,0.0,0.0,0.0,0.0,0.0,0.0,0.0,-0.298,-0.3365,-0.4168,-0.5245,0.0,0.0,0.0,0.0,0.0,0.0,0.0,0.0,0.0,0.0,0.0,0.0,0.0,0.0,0.0,0.0,0.0,0.0,0.0,0.0,0.0,0.0,0.0,0.0,0.0,0.0,0.0,0.0,0.0,0.0,0.0,0.0,0.0,0.0,0.0,0.0,0.0,0.0,0.0,0.0,0.0,0.0,0.0,0.0,0.0,0.0,0.0,0.0,0.0,0.0,0.0,0.0,0.0,0.0,0.0,0.0,0.0,0.0,0.0,0.0,0.0,0.0,0.0,0.0,0.0,0.0,0.0,0.0,0.0,0.0,0.0,0.0,0.0,0.0,0.0,0.0,0.0,0.0,0.0,0.0,0.0,0.0,0.0,0.0,0.0,0.0,0.0,0.0,0.0,0.0,0.0,0.0,0.0,0.0,0.0,0.0,0.0,0.0,0.0,0.0,0.0,0.0,0.0,0.0,0.0,0.0,0.0,0.0,0.0,0.0,-0.2437,-0.2692,-0.3096,-0.4155,-0.5082,-0.5882,0.0,0.0,0.0,0.0,0.0,0.0,0.0,0.0,0.0,0.0,0.0,0.0,0.0,0.0,0.0,0.0,0.0,0.0,0.0,0.0,0.0,0.0,0.0,0.0,0.0,0.0,0.0,0.0,0.0,0.0,0.0,0.0,0.0,0.0,0.0,0.0,0.0,0.0,0.0,0.0,0.0,0.0,0.0,0.0,0.0,0.0,0.0,0.0,0.0,0.0,0.0,0.0,0.0,0.0,0.0,0.0,0.0,0.0,0.0,0.0,0.0,0.0,0.0,0.0,0.0,0.0,0.0,0.0,0.0,0.0,0.0,0.0,0.0,0.0,0.0,0.0,0.0,0.0,0.0,0.0,0.0,0.0,0.0,0.0,0.0,0.0,0.0,0.0,0.0,0.0,0.0,0.0,0.0,0.0,0.0,0.0,0.0,0.0,0.0,0.0,0.0,0.0,0.0,0.0,0.0,0.0,0.0,0.0,0.0,-0.2155,-0.2425,-0.2694,-0.372,-0.4221,0.0,0.0,0.0,0.0,0.0,0.0,0.0,0.0,0.0,0.0,0.0,0.0,0.0,0.0,0.0,0.0,0.0,0.0,0.0,0.0,0.0,0.0,0.0,0.0,0.0,0.0,0.0,0.0,0.0,0.0,0.0,0.0,0.0,0.0,0.0,0.0,0.0,0.0,0.0,0.0,0.0,0.0,0.0,0.0,0.0,0.0,0.0,0.0,0.0,0.0,0.0,0.0,0.0,0.0,0.0,0.0,0.0,0.0,0.0,0.0,0.0,0.0,0.0,0.0,0.0,0.0,0.0,0.0,0.0,0.0,0.0,0.0,0.0,0.0,0.0,0.0,0.0,0.0,0.0,0.0,0.0,0.0,0.0,0.0,0.0,0.0,0.0,0.0,0.0,0.0,0.0,0.0,0.0,0.0,0.0,0.0,0.0,0.0,0.0,0.0,0.0,0.0,0.0,0.0,0.0,0.0,0.0,0.0,0.0,-0.2155,-0.2425,-0.2559,-0.2692,-0.3322,-0.3823,0.0,0.0,0.0,0.0,0.0,0.0,0.0,0.0,0.0,0.0,0.0,0.0,0.0,0.0,0.0,0.0,0.0,0.0,0.0,0.0,0.0,0.0,0.0,0.0,0.0,0.0,0.0,0.0,0.0,0.0,0.0,0.0,0.0,0.0,0.0,0.0,0.0,0.0,0.0,0.0,0.0,0.0,0.0,0.0,0.0,0.0,0.0,0.0,0.0,0.0,0.0,0.0,0.0,0.0,0.0,0.0,0.0,0.0,0.0,0.0,0.0,0.0,0.0,0.0,0.0,0.0,0.0,0.0,0.0,0.0,0.0,0.0,0.0,0.0,0.0,0.0,0.0,0.0,0.0,0.0,0.0,0.0,0.0,0.0,0.0,0.0,0.0,0.0,0.0,0.0,0.0,0.0,0.0,0.0,0.0,0.0,0.0,0.0,0.0,0.0,0.0,0.0,0.0,0.0,0.0,0.0,0.0,0.0,0.0,-0.2155,0.0,-0.2559,0.0,-0.2789,-0.3157,0.0,0.0,0.0,0.0,0.0,0.0,0.0,0.0,0.0,0.0,0.0,0.0,0.0,0.0,0.0,0.0,0.0,0.0,0.0,0.0,0.0,0.0,0.0,0.0,0.0,0.0,0.0,0.0,0.0,0.0,0.0,0.0,0.0,0.0,0.0,0.0,0.0,0.0,0.0,0.0,0.0,0.0,0.0,0.0,0.0,0.0,0.0,0.0,0.0,0.0,0.0,0.0,0.0,0.0,0.0,0.0,0.0,0.0,0.0,0.0,0.0,0.0,0.0,0.0,0.0,0.0,0.0,0.0,0.0,0.0,0.0,0.0,0.0,0.0,0.0,0.0,0.0,0.0,0.0,0.0,0.0,0.0,0.0,0.0,0.0,0.0,0.0,0.0,0.0,0.0,0.0,0.0,0.0,0.0,0.0,0.0,0.0,0.0,0.0,0.0,0.0,0.0,0.0,0.0,0.0,0.0,0.0,0.0,-0.2157,-0.2155,-0.2157,-0.2159,-0.2155,-0.2527,-0.2621,0.0,0.0,0.0,0.0,0.0,0.0,0.0,0.0,0.0,0.0,0.0,0.0,0.0,0.0,0.0,0.0,0.0,0.0,0.0,0.0,0.0,0.0,0.0,0.0,0.0,0.0,0.0,0.0,0.0,0.0,0.0,0.0,0.0,0.0,0.0,0.0,0.0,0.0,0.0,0.0,0.0,0.0,0.0,0.0,0.0,0.0,0.0,0.0,0.0,0.0,0.0,0.0,0.0,0.0,0.0,0.0,0.0,0.0,0.0,0.0,0.0,0.0,0.0,0.0,0.0,0.0,0.0,0.0,0.0,0.0,0.0,0.0,0.0,0.0,0.0,0.0,0.0,0.0,0.0,0.0,0.0,0.0,0.0,0.0,0.0,0.0,0.0,0.0,0.0,0.0,0.0,0.0,0.0,0.0,0.0,0.0,0.0,0.0,0.0,0.0,0.0,0.0,0.0,0.0,0.0,0.0,0.0,0.0,0.0,-0.2187,-0.2206,-0.2217,-0.2215,-0.2303,-0.2403,0.0,0.0,0.0,0.0,0.0,0.0,0.0,0.0,0.0,0.0,0.0,0.0,0.0,0.0,0.0,0.0,0.0,0.0,0.0,0.0,0.0,0.0,0.0,0.0,0.0,0.0,0.0,0.0,0.0,0.0,0.0,0.0,0.0,0.0,0.0,0.0,0.0,0.0,0.0,0.0,0.0,0.0,0.0,0.0,0.0,0.0,0.0,0.0,0.0,0.0,0.0,0.0,0.0,0.0,0.0,0.0,0.0,0.0,0.0,0.0,0.0,0.0,0.0,0.0,0.0,0.0,0.0,0.0,0.0,0.0,0.0,0.0,0.0,0.0,0.0,0.0,0.0,0.0,0.0,0.0,0.0,0.0,0.0,0.0,0.0,0.0,0.0,0.0,0.0,0.0,0.0,0.0,0.0,0.0,0.0,0.0,0.0,0.0,0.0,0.0,0.0,0.0,0.0,0.0,0.0,0.0,0.0,0.0,0.0,-0.23,-0.2297,-0.2289,-0.2278,-0.2241,-0.2344,-0.2443,0.0,0.0,0.0,0.0,0.0,0.0,0.0,0.0,0.0,0.0,0.0,0.0,0.0,0.0,0.0,0.0,0.0,0.0,0.0,0.0,0.0,0.0,0.0,0.0,0.0,0.0,0.0,0.0,0.0,0.0,0.0,0.0,0.0,0.0,0.0,0.0,0.0,0.0,0.0,0.0,0.0,0.0,0.0,0.0,0.0,0.0,0.0,0.0,0.0,0.0,0.0,0.0,0.0,0.0,0.0,0.0,0.0,0.0,0.0,0.0,0.0,0.0,0.0,0.0,0.0,0.0,0.0,0.0,0.0,0.0,0.0,0.0,0.0,0.0,0.0,0.0,0.0,0.0,0.0,0.0,0.0,0.0,0.0,0.0,0.0,0.0,0.0,0.0,0.0,0.0,0.0,0.0,0.0,0.0,0.0,0.0,0.0,0.0,0.0,0.0,0.0,0.0,0.0,0.0,0.0,0.0,0.0,0.0,-0.2481,-0.2431,-0.2387,-0.2348,-0.2342,-0.23,0.0,0.0,0.0,0.0,0.0,0.0,0.0,0.0,0.0,0.0,0.0,0.0,0.0,0.0,0.0,0.0,0.0,0.0,0.0,0.0,0.0,0.0,0.0,0.0,0.0,0.0,0.0,0.0,0.0,0.0,0.0,0.0,0.0,0.0,0.0,0.0,0.0,0.0,0.0,0.0,0.0,0.0,0.0,0.0,0.0,0.0,0.0,0.0,0.0,0.0,0.0,0.0,0.0,0.0,0.0,0.0,0.0,0.0,0.0,0.0,0.0,0.0,0.0,0.0,0.0,0.0,0.0,0.0,0.0,0.0,0.0,0.0,0.0,0.0,0.0,0.0,0.0,0.0,0.0,0.0,0.0,0.0,0.0,0.0,0.0,0.0,0.0,0.0,0.0,0.0,0.0,0.0,0.0,0.0,0.0,0.0,0.0,0.0,0.0,0.0,0.0,0.0,0.0,0.0,0.0,0.0,0.0,0.0,0.0,-0.263,-0.2684,-0.2643,-0.2506,-0.2457,-0.2401,0.0,0.0,0.0,0.0,0.0,0.0,0.0,0.0,0.0,0.0,0.0,0.0,0.0,0.0,0.0,0.0,0.0,0.0,0.0,0.0,0.0,0.0,0.0,0.0,0.0,0.0,0.0,0.0,0.0,0.0,0.0,0.0,0.0,0.0,0.0,0.0,0.0,0.0,0.0,0.0,0.0,0.0,0.0,0.0,0.0,0.0,0.0,0.0,0.0,0.0,0.0,0.0,0.0,0.0,0.0,0.0,0.0,0.0,0.0,0.0,0.0,0.0,0.0,0.0,0.0,0.0,0.0,0.0,0.0,0.0,0.0,0.0,0.0,0.0,0.0,0.0,0.0,0.0,0.0,0.0,0.0,0.0,0.0,0.0,0.0,0.0,0.0,0.0,0.0,0.0,0.0,0.0,0.0,0.0,0.0,0.0,0.0,0.0,0.0,0.0,0.0,0.0,0.0,0.0,0.0,0.0,0.0,0.0,-0.2623,-0.2784,-0.2863,-0.2853,-0.275,-0.2641,-0.253,0.0,0.0,0.0,0.0,0.0,0.0,0.0,0.0,0.0,0.0,0.0,0.0,0.0,0.0,0.0,0.0,0.0,0.0,0.0,0.0,0.0,0.0,0.0,0.0,0.0,0.0,0.0,0.0,0.0,0.0,0.0,0.0,0.0,0.0,0.0,0.0,0.0,0.0,0.0,0.0,0.0,0.0,0.0,0.0,0.0,0.0,0.0,0.0,0.0,0.0,0.0,0.0,0.0,0.0,0.0,0.0,0.0,0.0,0.0,0.0,0.0,0.0,0.0,0.0,0.0,0.0,0.0,0.0,0.0,0.0,0.0,0.0,0.0,0.0,0.0,0.0,0.0,0.0,0.0,0.0,0.0,0.0,0.0,0.0,0.0,0.0,0.0,0.0,0.0,0.0,0.0,0.0,0.0,0.0,0.0,0.0,0.0,0.0,0.0,0.0,0.0,0.0,0.0,0.0,0.0,0.0,0.0,0.0,-0.2747,-0.2931,-0.2996,-0.3031,-0.3025,-0.2852,-0.2672,0.0,0.0,0.0,0.0,0.0,0.0,0.0,0.0,0.0,0.0,0.0,0.0,0.0,0.0,0.0,0.0,0.0,0.0,0.0,0.0,0.0,0.0,0.0,0.0,0.0,0.0,0.0,0.0,0.0,0.0,0.0,0.0,0.0,0.0,0.0,0.0,0.0,0.0,0.0,0.0,0.0,0.0,0.0,0.0,0.0,0.0,0.0,0.0,0.0,0.0,0.0,0.0,0.0,0.0,0.0,0.0,0.0,0.0,0.0,0.0,0.0,0.0,0.0,0.0,0.0,0.0,0.0,0.0,0.0,0.0,0.0,0.0,0.0,0.0,0.0,0.0,0.0,0.0,0.0,0.0,0.0,0.0,0.0,0.0,0.0,0.0,0.0,0.0,0.0,0.0,0.0,0.0,0.0,0.0,0.0,0.0,0.0,0.0,0.0,0.0,0.0,0.0,0.0,0.0,0.0,0.0,0.0,0.0,-0.2829,-0.3052,-0.314,-0.3183,-0.3182,-0.2984,-0.2793,0.0,0.0,0.0,0.0,0.0,0.0,0.0,0.0,0.0,0.0,0.0,0.0,0.0,0.0,0.0,0.0,0.0,0.0,0.0,0.0,0.0,0.0,0.0,0.0,0.0,0.0,0.0,0.0,0.0,0.0,0.0,0.0,0.0,0.0,0.0,0.0,0.0,0.0,0.0,0.0,0.0,0.0,0.0,0.0,0.0,0.0,0.0,0.0,-1.1285,0.0,0.0,0.0,0.0,0.0,0.0,0.0,0.0,0.0,0.0,0.0,0.0,0.0,0.0,0.0,0.0,0.0,0.0,0.0,0.0,0.0,0.0,0.0,0.0,0.0,0.0,0.0,0.0,0.0,0.0,0.0,0.0,0.0,0.0,0.0,0.0,0.0,0.0,0.0,0.0,0.0,0.0,0.0,0.0,0.0,0.0,0.0,0.0,0.0,0.0,0.0,0.0,0.0,0.0,0.0,0.0,0.0,0.0,0.0,-0.2917,-0.3152,-0.3247,-0.3288,-0.3269,-0.3125,-0.2932,0.0,0.0,0.0,0.0,0.0,0.0,0.0,0.0,0.0,0.0,0.0,0.0,0.0,0.0,0.0,0.0,0.0,0.0,0.0,0.0,0.0,0.0,0.0,0.0,0.0,0.0,0.0,0.0,0.0,0.0,0.0,0.0,0.0,0.0,0.0,0.0,0.0,0.0,0.0,0.0,0.0,0.0,0.0,0.0,0.0,0.0,0.0,0.0,0.0,0.0,0.0,0.0,0.0,0.0,0.0,0.0,0.0,0.0,0.0,0.0,0.0,0.0,0.0,0.0,0.0,0.0,0.0,0.0,0.0,0.0,0.0,0.0,0.0,0.0,0.0,0.0,0.0,0.0,0.0,0.0,0.0,0.0,0.0,0.0,0.0,0.0,0.0,0.0,0.0,0.0,0.0,0.0,0.0,0.0,0.0,0.0,0.0,0.0,0.0,0.0,0.0,0.0,0.0,0.0,0.0,0.0,0.0,-0.2791,-0.3002,-0.3228,-0.333,-0.3366,-0.3335,-0.3243,-0.3058,-0.277,0.0,0.0,0.0,0.0,0.0,0.0,0.0,0.0,0.0,0.0,0.0,0.0,0.0,0.0,0.0,0.0,0.0,0.0,0.0,0.0,0.0,0.0,0.0,0.0,0.0,0.0,0.0,0.0,0.0,0.0,0.0,0.0,0.0,0.0,0.0,0.0,0.0,0.0,-1.1786,-1.1799,0.0,0.0,0.0,0.0,0.0,0.0,0.0,0.0,-1.1775,0.0,0.0,0.0,0.0,0.0,0.0,0.0,0.0,0.0,0.0,0.0,0.0,0.0,0.0,0.0,0.0,0.0,0.0,0.0,0.0,0.0,0.0,0.0,0.0,0.0,0.0,0.0,0.0,0.0,0.0,0.0,0.0,0.0,0.0,0.0,0.0,0.0,0.0,0.0,0.0,0.0,0.0,0.0,0.0,0.0,0.0,0.0,0.0,0.0,0.0,0.0,0.0,0.0,0.0,0.0,0.0,-0.2601,-0.283,-0.3051,-0.3264,-0.3382,-0.3429,-0.3396,-0.3284,-0.3106,-0.286,0.0,0.0,0.0,0.0,0.0,0.0,0.0,0.0,0.0,0.0,0.0,0.0,0.0,0.0,0.0,0.0,0.0,0.0,0.0,0.0,0.0,0.0,0.0,0.0,0.0,0.0,0.0,0.0,0.0,0.0,0.0,0.0,0.0,0.0,0.0,0.0,0.0,0.0,0.0,-1.176,-1.1776,0.0,0.0,0.0,0.0,0.0,0.0,0.0,0.0,-1.1916,0.0,0.0,0.0,0.0,0.0,0.0,0.0,0.0,0.0,0.0,0.0,0.0,0.0,0.0,0.0,0.0,0.0,0.0,0.0,0.0,0.0,0.0,0.0,0.0,0.0,0.0,0.0,0.0,0.0,0.0,0.0,0.0,0.0,0.0,0.0,0.0,0.0,0.0,0.0,0.0,0.0,0.0,0.0,0.0,0.0,0.0,0.0,0.0,0.0,0.0,0.0,0.0,0.0,0.0,0.0,-0.2647,-0.2871,-0.3095,-0.3315,-0.3411,-0.3442,-0.341,-0.3264,-0.3073,0.0,0.0,0.0,0.0,0.0,0.0,0.0,0.0,0.0,0.0,0.0,0.0,0.0,0.0,0.0,0.0,0.0,0.0,0.0,0.0,0.0,0.0,0.0,0.0,0.0,0.0,0.0,0.0,0.0,0.0,0.0,0.0,0.0,0.0,0.0,0.0,0.0,0.0,0.0,0.0,-1.1776,-1.1897,-1.201,0.0,0.0,0.0,0.0,0.0,0.0,-1.2614,-1.247,0.0,0.0,0.0,0.0,0.0,0.0,0.0,0.0,0.0,0.0,0.0,0.0,0.0,0.0,0.0,0.0,0.0,0.0,0.0,0.0,0.0,0.0,0.0,0.0,0.0,0.0,0.0,0.0,0.0,0.0,0.0,0.0,0.0,0.0,0.0,0.0,0.0,0.0,0.0,0.0,0.0,0.0,0.0,0.0,0.0,0.0,0.0,0.0,0.0,0.0,0.0,0.0,0.0,0.0,0.0,-0.2707,-0.2924,-0.3142,-0.3358,-0.3433,-0.3446,-0.3401,-0.3234,-0.3029,0.0,0.0,0.0,0.0,0.0,0.0,0.0,0.0,0.0,0.0,0.0,0.0,0.0,0.0,0.0,0.0,0.0,0.0,0.0,0.0,0.0,0.0,0.0,0.0,0.0,0.0,0.0,0.0,0.0,0.0,0.0,0.0,0.0,0.0,0.0,0.0,0.0,0.0,0.0,0.0,0.0,-1.2084,-1.2344,-1.2474,0.0,0.0,0.0,0.0,-1.3214,-1.3156,0.0,0.0,0.0,0.0,0.0,0.0,0.0,0.0,0.0,0.0,0.0,0.0,0.0,0.0,0.0,0.0,0.0,0.0,0.0,0.0,0.0,0.0,0.0,0.0,0.0,0.0,0.0,0.0,0.0,0.0,0.0,0.0,0.0,0.0,0.0,0.0,0.0,0.0,0.0,0.0,0.0,0.0,0.0,0.0,0.0,0.0,0.0,0.0,0.0,0.0,0.0,0.0,0.0,0.0,0.0,0.0,-0.2772,-0.3006,-0.3205,-0.336,-0.3452,-0.3457,-0.3373,-0.3223,-0.3029,0.0,0.0,0.0,0.0,0.0,0.0,0.0,0.0,0.0,0.0,0.0,0.0,0.0,0.0,0.0,0.0,0.0,0.0,0.0,0.0,0.0,0.0,0.0,0.0,0.0,0.0,0.0,0.0,0.0,0.0,0.0,0.0,0.0,0.0,0.0,0.0,0.0,0.0,0.0,0.0,0.0,-1.2679,-1.3207,-1.3242,-1.3358,0.0,0.0,-1.383,-1.4079,-1.3901,0.0,0.0,0.0,0.0,0.0,0.0,0.0,0.0,0.0,0.0,0.0,0.0,0.0,0.0,0.0,0.0,0.0,0.0,0.0,0.0,0.0,0.0,0.0,0.0,0.0,0.0,0.0,0.0,0.0,0.0,0.0,0.0,0.0,0.0,0.0,0.0,0.0,0.0,0.0,0.0,0.0,0.0,0.0,0.0,0.0,0.0,0.0,0.0,0.0,0.0,0.0,0.0,0.0,0.0,0.0,-0.2572,-0.2782,-0.3021,-0.3224,-0.3386,-0.3448,-0.3441,-0.3369,-0.3187,-0.2977,0.0,0.0,0.0,0.0,0.0,0.0,0.0,0.0,0.0,0.0,0.0,0.0,0.0,0.0,0.0,0.0,0.0,0.0,0.0,0.0,0.0,0.0,0.0,0.0,0.0,0.0,0.0,0.0,0.0,0.0,0.0,0.0,0.0,0.0,0.0,0.0,0.0,0.0,0.0,0.0,0.0,0.0,-1.3528,-1.3654,0.0,0.0,0.0,-1.4196,-1.4326,0.0,0.0,0.0,0.0,0.0,0.0,0.0,0.0,0.0,0.0,0.0,0.0,0.0,0.0,0.0,0.0,0.0,0.0,0.0,0.0,0.0,0.0,0.0,0.0,0.0,0.0,0.0,0.0,0.0,0.0,0.0,0.0,0.0,0.0,0.0,0.0,0.0,0.0,0.0,0.0,0.0,0.0,0.0,0.0,0.0,0.0,0.0,0.0,0.0,0.0,0.0,0.0,0.0,0.0,0.0,0.0,0.0,-0.2804,-0.3043,-0.3245,-0.3405,-0.3449,-0.3433,-0.3355,-0.3165,0.0,0.0,0.0,0.0,0.0,0.0,0.0,0.0,0.0,0.0,0.0,0.0,0.0,0.0,0.0,0.0,0.0,0.0,0.0,0.0,0.0,0.0,0.0,0.0,0.0,0.0,0.0,-1.0688,0.0,0.0,0.0,0.0,0.0,0.0,0.0,0.0,0.0,0.0,0.0,0.0,0.0,0.0,-1.343,-1.4051,-1.4263,-1.4447,0.0,0.0,-1.4714,-1.4496,-1.449,-1.4317,0.0,0.0,0.0,0.0,0.0,0.0,0.0,0.0,0.0,0.0,0.0,0.0,0.0,0.0,0.0,0.0,0.0,0.0,0.0,0.0,0.0,0.0,0.0,0.0,0.0,0.0,0.0,0.0,0.0,0.0,0.0,0.0,0.0,0.0,0.0,0.0,0.0,0.0,0.0,0.0,0.0,0.0,0.0,0.0,0.0,0.0,0.0,0.0,0.0,0.0,0.0,0.0,0.0,0.0,0.0,-0.2866,-0.3103,-0.3284,-0.3408,-0.3469,-0.3444,-0.3326,-0.3175,-0.2981,0.0,0.0,0.0,0.0,0.0,0.0,0.0,0.0,0.0,0.0,0.0,0.0,0.0,0.0,0.0,0.0,0.0,0.0,0.0,0.0,0.0,0.0,0.0,0.0,0.0,0.0,0.0,0.0,0.0,0.0,0.0,0.0,0.0,0.0,0.0,0.0,0.0,0.0,0.0,0.0,0.0,-1.4051,-1.4707,-1.4932,-1.512,0.0,0.0,-1.513,-1.4922,-1.4808,-1.4932,-1.5202,0.0,0.0,0.0,0.0,0.0,0.0,0.0,0.0,0.0,0.0,0.0,0.0,0.0,0.0,0.0,0.0,0.0,0.0,0.0,0.0,0.0,0.0,0.0,0.0,0.0,0.0,0.0,0.0,0.0,0.0,0.0,0.0,0.0,0.0,0.0,0.0,0.0,0.0,0.0,0.0,0.0,0.0,0.0,0.0,0.0,0.0,0.0,0.0,0.0,0.0,0.0,0.0,0.0,-0.2652,-0.2872,-0.3108,-0.329,-0.3408,-0.3471,-0.3454,-0.3351,-0.3186,-0.2994,0.0,0.0,0.0,0.0,0.0,0.0,0.0,0.0,0.0,0.0,0.0,0.0,0.0,0.0,0.0,0.0,0.0,0.0,0.0,0.0,0.0,0.0,0.0,0.0,0.0,0.0,0.0,0.0,-1.0956,-1.1085,-1.109,0.0,0.0,0.0,0.0,0.0,0.0,0.0,0.0,0.0,0.0,-1.4332,-1.4874,-1.5101,0.0,0.0,-1.5101,-1.5111,-1.5048,-1.4993,-1.5008,-1.5278,-1.4914,0.0,0.0,0.0,0.0,0.0,0.0,0.0,0.0,0.0,0.0,0.0,0.0,0.0,0.0,0.0,0.0,0.0,0.0,0.0,0.0,0.0,0.0,0.0,0.0,0.0,0.0,0.0,0.0,0.0,0.0,0.0,0.0,0.0,0.0,0.0,0.0,0.0,0.0,0.0,0.0,0.0,0.0,0.0,0.0,0.0,0.0,0.0,0.0,0.0,0.0,0.0,0.0,-0.2664,-0.2872,-0.3101,-0.3281,-0.341,-0.3463,-0.345,-0.3366,-0.3201,-0.3017,0.0,0.0,0.0,0.0,0.0,0.0,0.0,0.0,0.0,0.0,0.0,0.0,0.0,0.0,0.0,0.0,0.0,0.0,0.0,0.0,0.0,0.0,0.0,0.0,0.0,0.0,0.0,0.0,-1.1338,-1.133,-1.1543,0.0,0.0,0.0,0.0,0.0,0.0,0.0,0.0,0.0,0.0,-1.444,-1.4919,-1.5195,-1.53,-1.5221,-1.5375,-1.5517,-1.5406,-1.5226,-1.5102,-1.5227,0.0,0.0,0.0,0.0,0.0,0.0,0.0,0.0,0.0,0.0,0.0,0.0,0.0,0.0,0.0,0.0,0.0,0.0,0.0,0.0,0.0,0.0,0.0,0.0,0.0,0.0,0.0,0.0,0.0,0.0,0.0,0.0,0.0,0.0,0.0,0.0,0.0,0.0,0.0,0.0,0.0,0.0,0.0,0.0,0.0,0.0,0.0,0.0,0.0,0.0,0.0,0.0,0.0,0.0,-0.2872,-0.3084,-0.3262,-0.3405,-0.3442,-0.3429,-0.3366,-0.322,-0.3056,-0.2872,0.0,0.0,0.0,0.0,0.0,0.0,0.0,0.0,0.0,0.0,0.0,0.0,0.0,0.0,0.0,0.0,0.0,0.0,0.0,0.0,0.0,0.0,0.0,0.0,0.0,0.0,-1.171,-1.1541,-1.1543,0.0,0.0,0.0,0.0,0.0,0.0,0.0,0.0,0.0,0.0,-1.4051,-1.4509,-1.4983,-1.5502,-1.581,-1.6004,-1.6166,-1.6227,-1.5984,-1.558,-1.5276,0.0,0.0,0.0,0.0,0.0,0.0,0.0,0.0,0.0,0.0,0.0,0.0,0.0,0.0,0.0,0.0,0.0,0.0,0.0,0.0,0.0,0.0,0.0,0.0,0.0,0.0,0.0,0.0,0.0,0.0,0.0,0.0,0.0,0.0,0.0,0.0,0.0,0.0,0.0,0.0,-0.2454,-0.2463,0.0,0.0,0.0,0.0,0.0,0.0,0.0,0.0,0.0,0.0,0.0,0.0,-0.2691,-0.29,-0.3091,-0.3251,-0.3378,-0.3431,-0.3429,-0.3367,-0.324,-0.3041,-0.2762,0.0,0.0,0.0,0.0,0.0,0.0,0.0,0.0,0.0,0.0,0.0,0.0,0.0,0.0,0.0,0.0,0.0,0.0,0.0,0.0,0.0,0.0,0.0,0.0,0.0,-1.1695,0.0,0.0,0.0,0.0,0.0,0.0,0.0,0.0,0.0,0.0,0.0,-1.3564,-1.3713,-1.4175,-1.4595,-1.5081,-1.5386,-1.5764,0.0,0.0,0.0,0.0,0.0,0.0,0.0,0.0,0.0,0.0,0.0,0.0,0.0,0.0,-1.669,-1.5796,-1.602,-1.6233,-1.6098,0.0,0.0,0.0,0.0,0.0,0.0,0.0,0.0,0.0,0.0,0.0,0.0,0.0,0.0,0.0,0.0,0.0,0.0,0.0,0.0,0.0,0.0,0.0,0.0,0.0,-0.2515,-0.2537,-0.2575,-0.2577,-0.2577,0.0,-0.2545,-0.2485,0.0,0.0,0.0,0.0,0.0,0.0,0.0,0.0,-0.2716,-0.2913,-0.3085,-0.3235,-0.3362,-0.3415,-0.3418,-0.3366,-0.3209,-0.2994,-0.2717,-0.2555,-0.2416,0.0,0.0,0.0,0.0,0.0,0.0,0.0,0.0,0.0,0.0,0.0,0.0,0.0,0.0,0.0,0.0,0.0,0.0,0.0,0.0,0.0,0.0,0.0,-1.2235,0.0,0.0,0.0,0.0,0.0,0.0,0.0,0.0,0.0,-1.3348,-1.3718,-1.413,-1.4221,-1.4553,-1.4968,-1.5463,0.0,0.0,0.0,0.0,0.0,0.0,0.0,-1.6339,-1.6066,-1.6371,-1.6464,-1.6342,-1.6519,-1.6686,-1.6697,0.0,0.0,-1.6692,-1.6774,-1.7018,-1.6994,-1.7113,-1.7584,-1.8985,-1.9495,-1.9706,0.0,0.0,0.0,0.0,0.0,0.0,0.0,0.0,0.0,0.0,0.0,0.0,0.0,0.0,0.0,0.0,0.0,0.0,0.0,0.0,-0.2608,-0.2639,-0.2695,-0.2698,-0.2698,-0.2697,-0.2665,-0.2635,-0.2598,-0.2459,0.0,0.0,0.0,0.0,0.0,0.0,-0.2737,-0.2913,-0.3065,-0.3213,-0.3355,-0.3392,-0.3393,-0.3355,-0.3133,-0.2927,-0.2748,-0.2626,-0.2664,-0.2982,-0.2835,0.0,0.0,0.0,0.0,0.0,0.0,0.0,0.0,0.0,0.0,0.0,0.0,0.0,0.0,0.0,0.0,0.0,0.0,0.0,0.0,-1.2124,0.0,0.0,0.0,0.0,0.0,0.0,0.0,0.0,0.0,0.0,-1.3784,-1.4301,-1.4871,-1.5359,0.0,0.0,0.0,0.0,-1.6634,-1.7023,-1.7023,-1.7033,-1.7033,-1.6989,-1.6986,-1.6976,0.0,0.0,-1.6501,-1.6915,-1.7323,-1.7323,-1.8035,-1.8442,-1.7925,-1.8054,-1.8153,-1.7614,-1.7491,-1.7907,-1.8828,-1.9665,-2.0073,0.6712,0.0,0.0,0.0,0.0,0.0661,0.0,0.0,0.0,0.0,0.0,0.0,0.0,0.0,0.0,0.0,0.0,0.0,-0.2624,-0.2729,-0.2732,-0.2763,-0.2822,-0.2822,-0.2822,-0.2819,-0.2769,-0.274,-0.2727,-0.2623,-0.2523,-0.2432,0.0,0.0,0.0,0.0,-0.2758,-0.2913,-0.3044,-0.3161,-0.3268,-0.332,-0.3313,-0.3242,-0.311,-0.2965,-0.2807,-0.3023,-0.3048,-0.306,-0.3229,0.0,0.0,0.0,0.0,0.0,0.0,0.0,0.0,0.0,0.0,0.0,0.0,0.0,0.0,0.0,0.0,0.0,0.0,0.0,-1.2919,-1.3195,-1.3343,0.0,0.0,0.0,0.0,0.0,0.0,0.0,0.0,0.0,-1.4421,-1.4709,-1.5217,0.0,0.0,-1.5763,-1.6118,-1.6604,-1.6947,-1.7238,0.0,0.0,0.0,-1.7453,-1.7278,-1.6992,-1.7224,-1.7588,-1.7708,-1.8027,-1.8479,-1.8731,-1.9196,-1.9472,-1.9316,-1.9108,-1.8728,-1.8162,-1.8012,-1.8407,-1.9389,-1.9807,-2.019,0.8569,0.6896,0.4929,0.3467,0.2763,0.1555,0.0691,0.0,0.0,0.0,0.0,0.0,-0.102,-0.2842,-0.2816,0.0,0.0,0.0,-0.2732,-0.2837,-0.2848,-0.2879,-0.2926,-0.2939,-0.2938,-0.2926,-0.2889,-0.286,-0.2836,-0.2769,-0.2688,-0.2596,0.0,0.0,-0.2578,-0.2665,-0.2778,-0.2915,-0.3036,-0.3141,-0.3228,-0.3266,-0.3249,-0.3172,-0.3275,-0.334,-0.301,-0.3404,-0.3589,-0.3582,-0.375,-0.3898,0.0,0.0,0.0,0.0,0.0,0.0,0.0,0.0,0.0,0.0,0.0,-0.8604,-0.8604,0.0,0.0,0.0,-1.137,-1.2339,-1.3864,-1.3967,0.0,0.0,0.0,0.0,0.0,0.0,0.0,-1.465,-1.5278,-1.5556,-1.5357,-1.5628,-1.6066,-1.674,-1.6476,-1.6445,-1.6764,0.0,-1.7346,-1.7496,-1.7712,-1.7863,-1.7873,-1.7801,-1.7823,-1.7591,-1.7727,-1.8101,-1.8272,-1.8598,-1.9082,-1.9499,-1.9987,-2.0195,-2.0195,-1.9929,-1.9615,-1.9007,-1.8947,-1.9352,-2.0327,-2.0768,-2.1175,0.9953,0.9534,0.7162,0.4937,0.3069,0.2886,0.1983,0.018,0.0,0.0,0.0,0.0,-0.1059,-0.2965,-0.2904,0.0,0.0,-0.2796,-0.2844,-0.2927,-0.2958,-0.2988,-0.3018,-0.3046,-0.3044,-0.3018,-0.3016,-0.2984,-0.2927,-0.2894,-0.2851,-0.2792,-0.2677,-0.2617,-0.2617,-0.2703,-0.2804,-0.2915,-0.3033,-0.3135,-0.322,-0.3221,-0.3193,-0.3135,-0.3429,-0.368,-0.3534,-0.3934,-0.4116,-0.4407,-0.425,-0.4241,-0.4499,0.0,0.0,0.0,0.0,0.0,0.0,0.0,0.0,0.0,0.0,0.0,0.0,0.0,0.0,0.0,-1.1533,0.0,-1.422,-1.4326,0.0,0.0,0.0,-1.4317,-1.4317,-1.4692,-1.4952,-1.5347,0.0,0.0,-1.6297,0.0,-1.7217,-1.7815,-1.7369,-1.7227,-1.768,-1.7755,-1.7787,-1.783,-1.8024,-1.8186,-1.8229,-1.8369,-1.8422,-1.8356,-1.8451,-1.8364,-1.8417,-1.8914,-1.9324,-1.9882,-2.0359,-2.0653,-2.0665,-2.0605,-2.0521,-2.0026,-1.9977,-2.0221,-2.1233,-2.2043,-2.2408,1.0975,0.984,0.8301,0.6699,0.4749,0.3584,0.2821,0.2069,0.0752,0.0,0.0,0.0,-0.1101,-0.3065,-0.3026,-0.2851,-0.2885,-0.2909,-0.2956,-0.302,-0.3051,-0.3082,-0.3111,-0.3118,-0.3118,-0.311,-0.3088,-0.3056,-0.3018,-0.2966,-0.2921,-0.2882,-0.281,-0.2751,-0.2712,-0.2796,-0.2866,-0.2915,-0.3013,-0.3096,-0.316,-0.3141,-0.3305,-0.365,-0.3545,-0.3796,-0.4016,-0.4227,-0.4408,-0.4405,-0.4591,-0.4593,-0.4561,-0.4442,0.0,0.0,0.0,0.0,0.0,0.0,0.0,0.0,0.0,-0.8753,-0.9013,0.0,-1.044,0.0,-1.1862,-1.2901,-1.4606,-1.4721,0.0,0.0,-1.4558,-1.4692,-1.4692,-1.5192,-1.5689,-1.6167,-1.6455,-1.6721,-1.6838,-1.723,-1.7836,-1.8627,-1.8069,-1.7658,-1.7959,-1.8164,-1.8326,-1.8498,-1.8724,-1.8896,-1.8896,-1.8939,-1.8896,-1.867,-1.8616,-1.8519,-1.9265,-1.9404,-1.9727,-2.0292,-2.0617,-2.0665,-2.0665,-2.0665,-2.0629,-2.0521,-2.0491,-2.0707,-2.1432,-2.2395,-2.3014,1.2196,1.1086,0.9737,0.811,0.6493,0.4551,0.3524,0.2936,0.137,-0.0195,-0.1361,-0.0383,-0.1136,-0.2996,-0.2966,-0.2969,-0.2998,-0.3014,-0.3047,-0.3093,-0.3125,-0.3146,-0.3164,-0.3176,-0.3175,-0.3163,-0.3146,-0.3122,-0.3091,-0.3032,-0.2994,-0.2976,-0.2917,-0.2871,-0.284,-0.2863,-0.2889,-0.2916,-0.302,-0.3288,-0.353,-0.3487,-0.3629,-0.4142,-0.4222,-0.4271,-0.4289,-0.4688,-0.4872,-0.4683,-0.4744,-0.4763,-0.4583,-0.4512,-0.4422,0.0,0.0,0.0,0.0,0.0,0.0,0.0,0.0,0.0,0.0,0.0,-1.0297,0.0,-1.2339,-1.355,-1.4757,-1.4875,-1.4894,-1.4971,-1.5119,-1.5287,-1.5634,-1.6162,-1.6525,-1.6775,-1.706,-1.7289,-1.7255,-1.7662,-1.8172,-1.8993,-1.8593,-1.8282,-1.8519,-1.8681,-1.8799,-1.8928,-1.9155,-1.9348,-1.9435,-1.9456,-1.9338,-1.9025,-1.8928,-1.9096,-1.9469,-1.968,-1.997,-2.0527,-2.0665,-2.0665,-2.0665,-2.0665,-2.069,-2.0671,-2.065,-2.0994,-2.1738,-2.2633,-2.3326,1.3187,1.2382,1.1112,0.9521,0.7757,0.5809,0.4278,0.3044,0.1825,-0.0403,-0.2992,-0.1177,-0.1361,-0.3101,-0.3076,-0.3078,-0.3103,-0.3108,-0.3123,-0.3149,-0.318,-0.3194,-0.3194,-0.3219,-0.3217,-0.3194,-0.3194,-0.3178,-0.3148,-0.3096,-0.3066,-0.3055,-0.3002,-0.2971,-0.2965,-0.3098,-0.3087,-0.2934,-0.3037,-0.3492,-0.3909,-0.3839,-0.4144,-0.4436,-0.4884,-0.491,-0.4878,-0.5148,-0.5172,-0.494,-0.4875,-0.4763,-0.4586,-0.4572,-0.4523,0.0,-0.5166,0.0,0.0,0.0,0.0,0.0,0.0,0.0,0.0,-0.9691,-1.0399,-1.1315,-1.2914,-1.4218,-1.5035,-1.5157,-1.5356,-1.5795,-1.5958,-1.6161,-1.6746,-1.7058,-1.7203,-1.737,-1.763,-1.7776,-1.783,-1.8024,-1.8422,-1.8986,-1.9041,-1.8939,-1.9176,-1.9198,-1.9187,-1.923,-1.9413,-1.9596,-1.9758,-1.994,-1.9767,-1.9241,-1.9369,-1.9504,-1.9621,-1.9831,-2.0261,-2.0527,-2.0665,-2.0665,-2.0665,-2.0665,-2.0738,-2.0626,-2.0697,-2.0994,-2.1894,-2.2746,-2.3426,1.3438,1.2506,1.1355,0.9932,0.8495,0.6703,0.4898,0.313,0.1035,-0.1023,-0.3224,-0.2812,-0.2783,-0.3135,-0.3129,-0.3129,-0.3135,-0.316,-0.3174,-0.318,-0.3209,-0.3223,-0.3223,-0.3227,-0.3228,-0.3223,-0.3223,-0.3208,-0.3179,-0.3168,-0.3137,-0.3089,-0.3052,-0.3022,-0.2999,0.0,0.0,0.0,-0.3621,-0.402,-0.4406,-0.4328,-0.4442,-0.4933,-0.4797,0.0,-0.5156,-0.5254,-0.5109,-0.488,-0.4853,0.0,0.0,0.0,0.0,0.0,0.0,0.0,0.0,0.0,0.0,0.0,-0.8402,-0.9098,-0.9459,-1.0802,-1.1665,-1.1789,-1.307,-1.4603,-1.6136,-1.6405,-1.6415,-1.657,-1.6716,-1.7006,-1.7058,-1.7463,-1.7662,-1.7866,-1.8024,-1.8099,-1.8261,-1.8509,-1.8735,-1.9116,-1.9219,-1.9445,-1.9671,-1.9542,-1.951,-1.9671,-1.9736,-1.979,-1.9833,-1.9832,-1.9774,-1.9635,-1.9537,-1.9742,-1.9901,-2.011,-2.0249,-2.0665,-2.0665,-2.0665,-2.0665,-2.0665,-2.069,-2.0726,-2.0742,-2.0828,-2.157,-2.2576,-2.3508,1.3833,0.0,1.1983,1.0544,0.0,0.7286,0.568,0.4099,0.1277,-0.1258,-0.3298,-0.3268,-0.3238,-0.3208,-0.3193,-0.3186,-0.3186,-0.3202,-0.3209,-0.3209,-0.3224,-0.323,-0.323,-0.323,-0.323,-0.323,-0.323,-0.3223,-0.3209,-0.3194,-0.3172,-0.3142,-0.3111,-0.3282,-0.3457,-0.4034,-0.4215,-0.4196,-0.4196,-0.4387,-0.4954,-0.4861,-0.496,-0.5424,0.0,0.0,0.0,0.0,0.0,0.0,0.0,0.0,0.0,0.0,0.0,-0.568,-0.6661,-0.7069,-0.7065,-0.7447,-0.7704,-0.7988,-0.8933,-0.9631,-0.9777,-1.1233,-1.2157,-1.2072,-1.3336,-1.5001,-1.6817,-1.7391,-1.7433,-1.7213,-1.736,-1.7539,-1.7781,-1.794,-1.8121,-1.8229,-1.8261,-1.8315,-1.8422,-1.853,-1.891,-1.9402,-1.942,-1.9615,-1.9768,-1.9747,-1.9725,-1.9822,-2.0145,-2.0102,-1.9992,-1.985,-1.9914,-1.977,-2.0009,-2.0121,-2.0157,-2.0249,-2.0539,-2.0665,-2.0665,-2.0665,-2.0665,-2.0665,-2.0665,-2.0678,-2.075,-2.0871,-2.1512,-2.2663,-2.3773,1.4181,1.2987,1.282,1.1371,0.907,0.7605,0.6212,0.4418,0.0,0.0,0.0,-0.3313,-0.3285,-0.3275,-0.3249,-0.3235,-0.323,-0.323,-0.323,-0.323,-0.323,-0.323,-0.323,-0.323,-0.323,-0.323,-0.323,-0.323,-0.323,-0.3206,-0.3193,-0.3186,-0.3163,-0.354,-0.4122,-0.471,-0.4868,-0.4987,-0.4791,-0.4978,-0.5351,-0.5258,-0.5337,-0.576,-0.5649,-0.548,-0.5245,-0.5234,-0.5147,-0.4962,-0.4951,-0.5225,-0.5452,-0.5141,-0.5289,-0.5892,-0.6739,-0.7298,-0.7298,-0.7517,-0.7911,-0.8353,-0.9568,-1.0303,-1.0283,-1.1497,-1.2313,-1.2313,-1.3709,-1.5257,-1.7087,-1.7949,-1.8161,-1.7717,-1.7728,-1.794,-1.8401,-1.8433,-1.8412,-1.8433,-1.8422,-1.8433,-1.8433,-1.8487,-1.8801,-1.9525,-1.9544,-1.9643,-1.9832,-1.9908,-1.9897,-1.9908,-2.0153,-2.0374,-2.0217,-2.0072,-2.005,-2.0021,-2.0332,-2.0509,-2.032,-2.0527,-2.0665,-2.0665,-2.0665,-2.0665,-2.0665,-2.0665,-2.0665,-2.0653,-2.0629,-2.1044,-2.2,-2.309,-2.4296,1.4254,1.3001,1.2972,1.1486,0.908,0.77,0.5141,0.1753,-0.1519,-0.3209,-0.3366,-0.3358,-0.3325,-0.3275,-0.327,-0.3255,-0.3231,-0.323,-0.323,0.0,-0.323,-0.323,-0.323,-0.323,-0.323,-0.323,-0.323,-0.323,-0.323,-0.3225,-0.3212,-0.319,-0.3579,-0.4354,-0.5301,-0.5296,-0.5683,-0.6058,-0.5666,-0.5643,-0.5985,-0.5919,-0.5805,-0.5826,-0.5573,-0.5602,-0.5371,-0.5357,-0.5251,-0.5025,-0.5324,-0.5581,-0.5455,-0.5751,-0.5896,-0.6046,-0.6947,-0.7548,-0.7548,-0.7827,-0.8561,-0.9468,-1.0345,-1.0822,-1.0849,-1.1847,-1.2522,-1.276,-1.4065,-1.5643,-1.7077,-1.7949,-1.839,-1.825,-1.825,-1.8261,-1.8444,-1.8444,-1.8444,-1.8433,-1.8433,-1.8433,-1.8444,-1.8595,-1.8799,-1.9246,-1.9577,-1.9933,-1.9955,-2.0136,-2.0136,-2.0103,-2.0252,-2.0263,-2.034,-2.0301,-2.0306,-2.0379,-2.059,-2.0611,-2.0551,-2.0665,-2.0665,-2.0665,-2.0665,-2.0665,-2.0665,-2.0665,-2.0653,-2.0768,-2.0743,-2.1333,-2.309,-2.4275,-2.5003,1.4067,1.3082,1.2798,1.1337,0.8963,0.7064,0.449,0.1101,-0.131,-0.28,-0.3392,-0.3374,-0.3341,-0.33,-0.3283,-0.326,-0.323,-0.323,-0.323,-0.323,-0.323,-0.323,-0.323,-0.323,-0.323,-0.323,-0.323,-0.323,-0.323,-0.323,-0.3426,-0.3613,-0.4414,-0.5202,-0.558,-0.5978,-0.618,-0.6376,-0.6114,-0.6069,-0.6237,-0.6147,-0.6044,-0.5932,-0.5839,-0.5695,-0.5488,-0.545,-0.5352,-0.5177,-0.562,-0.5893,-0.5987,-0.6131,-0.6445,-0.6762,-0.7189,-0.7631,-0.8101,-0.8664,-0.9091,-0.955,-1.0258,-1.0775,-1.1237,-1.2276,-1.3084,-1.3566,-1.4455,-1.5777,-1.7837,-1.8433,-1.872,-1.8832,-1.8821,-1.8767,-1.8649,-1.8627,-1.8573,-1.8466,-1.8433,-1.8433,-1.8433,-1.853,-1.8681,-1.8763,-1.93,-1.9746,-1.9892,-2.0218,-2.0329,-2.0286,-2.0375,-2.0538,-2.041,-2.0734,-2.0874,-2.0602,-2.0611,-2.0678,-2.0665,-2.0665,-2.0665,-2.0665,-2.0665,-2.0804,-2.0943,-2.0943,-2.0906,-2.0695,-2.1108,-2.2134,-2.3941,-2.5505,-2.6598,1.363,1.292,1.2375,1.0928,0.8798,0.6396,0.3825,0.1329,-0.0878,-0.2386,-0.3208,-0.339,-0.3359,-0.3329,-0.3299,-0.3269,-0.3242,-0.3232,-0.323,-0.323,-0.323,-0.323,-0.323,-0.323,-0.323,-0.323,-0.323,-0.3231,-0.3433,-0.3433,-0.3635,-0.4442,-0.5248,-0.5853,-0.5853,-0.6259,-0.6463,-0.6455,-0.6368,-0.6313,-0.6297,-0.6207,-0.612,-0.6033,-0.5943,-0.5801,-0.5613,-0.5559,-0.5466,-0.549,-0.5927,-0.6214,-0.6665,-0.6658,-0.6978,-0.7463,-0.7565,-0.7995,-0.8935,-0.9306,-0.9397,-0.9553,-1.0246,-1.0803,-1.1555,-1.2677,-1.3626,-1.4448,-1.4999,-1.6186,-1.8132,-1.9052,-1.9208,-1.9155,-1.9155,-1.9058,-1.8896,-1.8821,-1.8724,-1.8541,-1.8476,-1.8433,-1.8433,-1.8433,-1.8541,-1.8767,-1.9271,-1.9704,-1.9926,-2.0329,-2.0449,-2.0495,-2.0709,-2.0757,-2.058,-2.0979,-2.1035,-2.069,-2.0665,-2.0665,-2.0665,-2.0665,-2.0804,-2.0804,-2.0804,-2.0943,-2.1207,-2.1484,-2.1296,-2.1221,-2.162,-2.2929,-2.5591,-2.7044,-2.8233,1.2929,1.2222,1.2214,1.0479,0.7587,0.5926,0.4052,0.1552,-0.0659,-0.2395,-0.3452,-0.342,-0.3389,-0.336,-0.3329,-0.3299,-0.3269,-0.3243,-0.323,-0.323,-0.323,-0.323,-0.323,-0.323,-0.323,-0.323,-0.323,-0.3433,-0.3836,-0.4038,-0.4442,-0.545,-0.5652,-0.6057,-0.6461,-0.6461,-0.6463,-0.6463,-0.645,-0.6417,-0.6365,-0.6352,-0.6264,-0.6096,-0.6079,-0.5962,-0.5736,-0.5719,-0.5786,-0.6071,-0.6376,-0.6808,-0.7173,-0.7475,-0.7637,-0.7803,-0.7948,-0.8554,-0.9744,-0.9625,-0.9558,-1.0019,-1.063,-1.1238,-1.1392,-1.2769,-1.4174,-1.4993,-1.5476,-1.6527,-1.8309,-1.9387,-1.9555,-1.9219,-1.9198,-1.9144,-1.9101,-1.8918,-1.8778,-1.8756,-1.8552,-1.8433,-1.8433,-1.8433,-1.8671,-1.9304,-1.9493,-1.987,-2.0283,-2.0355,-2.0533,-2.0683,-2.075,-2.0762,-2.0726,-2.0714,-2.0714,-2.0678,-2.0665,-2.0804,-2.0804,-2.0804,-2.0804,-2.1081,-2.1207,-2.1358,-2.1772,-2.1897,-2.2134,-2.2167,-2.2712,-2.4167,-2.7675,-2.901,-2.9377,1.2515,1.2227,1.1524,0.9554,0.6895,0.5955,0.4081,0.1562,-0.066,-0.2402,-0.326,-0.3433,-0.3395,-0.3365,-0.3335,-0.3305,-0.3275,-0.3245,-0.323,-0.323,-0.323,-0.323,-0.323,-0.323,-0.323,-0.3231,-0.3433,-0.3836,-0.4038,-0.4643,-0.5248,-0.5652,-0.6057,-0.6259,-0.6463,-0.6463,-0.6463,-0.6463,-0.6463,-0.645,-0.6422,-0.639,-0.6319,-0.6215,-0.6172,-0.6246,-0.6236,-0.6175,-0.6427,-0.6762,-0.701,-0.7271,-0.7372,-0.7821,-0.8119,-0.8453,-0.9216,-0.9789,-1.0164,-1.004,-0.9971,-1.0128,-1.037,-1.0796,-1.1262,-1.2347,-1.3516,-1.4941,-1.5638,-1.6692,-1.838,-1.9308,-1.9767,-1.9575,-1.9564,-1.951,-1.9359,-1.9144,-1.895,-1.8799,-1.8573,-1.8433,-1.8433,-1.8865,-1.92,-1.9594,-1.9838,-2.0109,-2.0286,-2.0403,-2.0647,-2.0702,-2.0665,-2.0665,-2.0665,-2.0665,-2.0665,-2.0804,-2.1094,-2.1244,-2.1081,-2.122,-2.1358,-2.1484,-2.176,-2.1897,-2.2448,-2.2846,-2.3229,-2.3405,-2.5502,-2.7398,-2.959,-2.9894,-3.0355,1.2097,1.1797,1.0363,0.8627,0.6436,0.575,0.3875,0.1345,-0.0882,-0.2408,-0.3278,-0.3438,-0.3395,-0.3365,-0.3335,-0.3305,-0.3273,-0.3243,-0.323,-0.323,-0.323,-0.323,-0.323,-0.323,-0.3231,-0.3433,-0.3836,-0.424,-0.4442,-0.545,-0.5856,-0.6057,-0.6259,-0.6463,-0.6463,-0.6463,-0.6463,-0.6463,-0.6463,-0.6463,-0.6455,-0.642,-0.636,-0.6284,-0.6432,-0.6511,-0.6697,-0.6803,-0.6883,-0.7272,-0.7468,-0.7544,-0.7688,-0.7945,-0.8566,-0.9402,-1.0138,-1.053,-1.0438,-1.0324,-1.0237,-1.0199,-1.0274,-1.0682,-1.1423,-1.2501,-1.3583,-1.496,-1.5854,-1.6904,-1.8339,-1.9432,-1.9887,-1.9854,-1.9844,-1.9768,-1.9607,-1.9348,-1.9079,-1.8896,-1.8627,-1.8433,-1.8573,-1.9005,-1.9587,-1.9889,-2.0005,-2.011,-2.0249,-2.0539,-2.0678,-2.0665,-2.0804,-2.0804,-2.0665,-2.0653,-2.0653,-2.0943,-2.137,-2.166,-2.1358,-2.1634,-2.2035,-2.2035,-2.231,-2.2709,-2.327,-2.3938,-2.4573,-2.5442,-2.727,-2.9751,-3.0775,-3.0882,-3.1193,1.1421,1.1167,0.9444,0.7699,0.6436,0.5752,0.3418,0.0,-0.1322,-0.2408,-0.3495,-0.3438,-0.3395,-0.3363,-0.3333,-0.3305,-0.3275,-0.3245,-0.323,-0.323,-0.323,-0.323,-0.323,-0.323,-0.3433,-0.3836,-0.4038,-0.4643,-0.5652,-0.6259,-0.6461,-0.6461,-0.6463,-0.6463,-0.6463,-0.6463,-0.6463,-0.6463,-0.6463,-0.6463,-0.6461,-0.6458,-0.6398,-0.6488,-0.6863,-0.6957,-0.6961,-0.7243,-0.7502,-0.7889,-0.7728,-0.7776,-0.8037,-0.8113,-0.8901,-1.0404,-1.0474,-1.0568,-1.0705,-1.0443,-1.0335,-1.039,-1.0832,-1.1396,-1.1914,-1.3274,-1.4499,-1.5429,-1.5989,-1.6885,-1.8481,-1.9573,-2.0038,-2.0005,-1.9995,-1.9984,-1.9973,-1.9572,-1.9187,-1.9058,-1.8702,-1.8444,-1.853,-1.9111,-1.9843,-2.0284,-2.0272,-2.0261,-2.0527,-2.0665,-2.0665,-2.0804,-2.0943,-2.1081,-2.0804,-2.0629,-2.0906,-2.1207,-2.1634,-2.191,-2.1772,-2.1897,-2.2173,-2.2585,-2.2859,-2.3406,-2.4224,-2.5143,-2.5889,-2.7073,-2.874,-3.0633,-3.1634,-3.1506,-3.1801,1.097,0.9922,0.8483,0.7231,0.6211,0.5752,0.3419,-0.0,-0.1984,-0.3065,-0.3493,-0.3438,-0.3384,-0.3337,-0.3326,-0.3305,-0.3273,-0.3245,-0.323,-0.323,-0.323,-0.323,-0.323,-0.3635,-0.3836,-0.4038,-0.4643,-0.545,-0.6057,-0.6461,-0.6463,-0.6463,-0.6463,-0.6463,-0.6463,-0.6463,-0.6463,-0.6463,-0.6463,-0.6463,-0.6461,-0.6864,-0.7,-0.6874,-0.6863,-0.7159,-0.733,-0.7621,-0.8079,-0.8328,-0.8341,-0.8383,-0.8624,-0.9155,-0.9741,-1.0576,-1.0704,-1.0672,-1.0655,-1.0558,-1.0639,-1.0912,-1.0918,-1.1451,-1.2331,-1.3332,-1.4491,-1.571,-1.6116,-1.717,-1.8916,-2.0178,-2.0631,-2.062,-2.0609,-2.0609,-2.0553,-2.0307,-2.005,-1.9826,-1.9118,-1.8519,-1.91,-1.9831,-2.0423,-2.0575,-2.0551,-2.0539,-2.0665,-2.0665,-2.0804,-2.0943,-2.1069,-2.1207,-2.1484,-2.102,-2.0857,-2.1609,-2.2048,-2.2199,-2.2186,-2.2448,-2.2722,-2.327,-2.3543,-2.4345,-2.5292,-2.6275,-2.7174,-2.836,-3.0178,-3.1358,-3.2335,-3.2094,-3.2373,1.0242,0.895,0.7766,0.6767,0.5984,0.4832,0.2735,-0.0224,-0.2426,-0.3504,-0.3491,-0.3438,-0.3378,-0.3328,-0.3321,-0.3298,-0.3262,-0.3239,-0.323,-0.323,-0.3433,-0.3433,-0.3635,-0.4038,-0.4444,-0.4643,-0.545,-0.6057,-0.6461,-0.6463,-0.6463,-0.6463,-0.6463,-0.6463,-0.6463,-0.6463,-0.6463,-0.6463,-0.6463,-0.6662,-0.6864,-0.7062,-0.7399,-0.7279,-0.7449,-0.7555,-0.7739,-0.8192,-0.8481,-0.8762,-0.8761,-0.8765,-0.9149,-0.9666,-1.0242,-1.0581,-1.0737,-1.0737,-1.0726,-1.0655,-1.076,-1.1207,-1.138,-1.1886,-1.3054,-1.4027,-1.5187,-1.6348,-1.6885,-1.7928,-1.9499,-2.077,-2.1395,-2.1222,-2.1071,-2.1071,-2.106,-2.0831,-2.0523,-2.0036,-1.9487,-1.9251,-1.9518,-2.0261,-2.0563,-2.0714,-2.069,-2.0678,-2.0804,-2.0804,-2.0943,-2.1346,-2.1484,-2.176,-2.1897,-2.1721,-2.1421,-2.2022,-2.2461,-2.2611,-2.2735,-2.301,-2.327,-2.3816,-2.4631,-2.5427,-2.6455,-2.7571,-2.8589,-2.963,-3.0918,-3.2279,-3.2663,-3.2606,-3.3034,0.9248,0.848,0.7064,0.6534,0.5756,0.322,0.1139,-0.0448,-0.2425,-0.3504,-0.3495,-0.3438,-0.3378,-0.333,-0.3321,-0.329,-0.3242,-0.3231,-0.3231,-0.3231,-0.3635,-0.4038,-0.4038,-0.4645,-0.5049,-0.5652,-0.6259,-0.6461,-0.6463,-0.6463,-0.6463,-0.6463,-0.6463,-0.6463,-0.6463,-0.6463,-0.6463,-0.6461,-0.6461,-0.6864,-0.7264,-0.7465,-0.7598,-0.7864,-0.8235,-0.8547,-0.8375,-0.859,-0.8869,-0.9019,-0.9152,-0.9257,-0.9431,-0.98,-1.0237,-1.057,-1.0737,-1.0737,-1.0737,-1.0726,-1.0997,-1.1412,-1.2018,-1.2856,-1.4087,-1.5392,-1.6707,-1.7483,-1.7986,-1.8854,-1.994,-2.121,-2.1845,-2.1222,-2.1222,-2.1222,-2.1176,-2.098,-2.05,-2.0232,-1.9922,-1.9843,-1.9808,-2.0284,-2.0726,-2.069,-2.0804,-2.0804,-2.1081,-2.1207,-2.1346,-2.176,-2.1897,-2.2035,-2.231,-2.2585,-2.2435,-2.2448,-2.2873,-2.3023,-2.3283,-2.3406,-2.3952,-2.4495,-2.5697,-2.6635,-2.8213,-2.9196,-2.9812,-3.0864,-3.2038,-3.3104,-3.3456,-3.373,-3.3652,0.8775,0.8245,0.6596,0.5835,0.5294,0.2069,-0.0,-0.1345,-0.2867,-0.3504,-0.3491,-0.3438,-0.3378,-0.3332,-0.3321,-0.3288,-0.3234,-0.3635,-0.3836,-0.3836,-0.4038,-0.4242,-0.4645,-0.5047,-0.5652,-0.6259,-0.6461,-0.6463,-0.6463,-0.6463,-0.6463,-0.6463,-0.6463,-0.6463,-0.6463,-0.6463,-0.6463,-0.6461,-0.6864,-0.7062,-0.7465,-0.8069,-0.8396,-0.8453,-0.8822,-0.9128,-0.8956,-0.8967,-0.9057,-0.9416,-0.9392,-0.9356,-0.9678,-1.0172,-1.0576,-1.0737,-1.0737,-1.107,-1.1576,-1.1403,-1.1718,-1.2491,-1.307,-1.4113,-1.5425,-1.6468,-1.7564,-1.8528,-1.8815,-1.9135,-2.0714,-2.1648,-2.2121,-2.1972,-2.196,-2.1822,-2.1786,-2.1733,-2.1531,-2.1352,-2.0947,-2.071,-2.0533,-2.0778,-2.0834,-2.0828,-2.0943,-2.1081,-2.122,-2.1521,-2.176,-2.2035,-2.231,-2.2526,-2.2855,-2.2966,-2.2762,-2.2899,-2.3174,-2.357,-2.3693,-2.4088,-2.4631,-2.5697,-2.6902,-2.8081,-2.9674,-3.0714,-3.1304,-3.1835,-3.2842,-3.3838,-3.4644,-3.4812,-3.4624,0.8045,0.7769,0.634,0.5822,0.529,0.1605,-0.0909,-0.2466,-0.3087,-0.3504,-0.349,-0.3438,-0.3385,-0.3343,-0.3534,-0.3499,-0.3655,-0.4047,-0.4444,-0.4643,-0.4643,-0.4845,-0.5248,-0.5654,-0.6057,-0.6461,-0.6463,-0.6463,-0.6463,-0.6463,-0.6463,-0.6463,-0.6463,-0.6463,-0.6461,-0.6662,-0.6864,-0.6864,-0.7264,-0.7666,-0.8069,-0.8475,-0.8798,-0.8852,-0.9212,-0.9318,-0.934,-0.9373,-0.9275,-0.9565,-0.972,-0.9854,-1.0229,-1.0535,-1.0737,-1.0737,-1.0904,-1.1409,-1.1914,-1.1908,-1.2401,-1.3542,-1.4288,-1.5333,-1.6707,-1.7585,-1.8886,-1.9688,-1.9754,-2.0027,-2.114,-2.1995,-2.2271,-2.2271,-2.2271,-2.2271,-2.2235,-2.2029,-2.1885,-2.1764,-2.1366,-2.1126,-2.1112,-2.0931,-2.1151,-2.1131,-2.122,-2.142,-2.1735,-2.2064,-2.2367,-2.271,-2.3107,-2.3273,-2.3346,-2.3238,-2.3104,-2.3365,-2.3639,-2.3994,-2.4238,-2.4766,-2.5292,-2.7035,-2.8362,-2.9413,-3.0732,-3.1763,-3.2365,-3.3077,-3.3535,-3.4672,-3.5503,-3.5389,-3.5389,0.7067,0.6587,0.6308,0.5796,0.4829,0.1597,-0.1358,-0.3361,-0.3529,-0.3504,-0.349,-0.3438,-0.3395,-0.3575,-0.3959,-0.4128,-0.4297,-0.4663,-0.5049,-0.545,-0.5652,-0.5652,-0.5853,-0.6259,-0.6461,-0.6463,-0.6463,-0.6463,-0.6463,-0.6463,-0.6463,-0.6463,-0.6662,-0.6662,-0.6662,-0.7062,-0.7264,-0.7465,-0.7867,-0.827,-0.8877,-0.8877,-0.8994,-0.942,-0.9403,-0.9519,-0.9729,-0.9781,-0.9865,-0.9748,-1.0141,-1.0631,-1.0891,-1.0873,-1.0759,-1.0742,-1.1237,-1.1908,-1.2247,-1.274,-1.3231,-1.4383,-1.5514,-1.6613,-1.7916,-1.9274,-2.0274,-2.0743,-2.0935,-2.1041,-2.1311,-2.1964,-2.2469,-2.2408,-2.2408,-2.2259,-2.2247,-2.2054,-2.2104,-2.1995,-2.1594,-2.1242,-2.1432,-2.1047,-2.1331,-2.1534,-2.1509,-2.1874,-2.2331,-2.2701,-2.3166,-2.3527,-2.3836,-2.3963,-2.4008,-2.3899,-2.3762,-2.3707,-2.4355,-2.5062,-2.5352,-2.5861,-2.662,-2.8362,-2.9874,-3.0768,-3.1672,-3.2606,-3.3116,-3.3262,-3.4132,-3.5422,-3.6024,-3.6139,-3.6282,0.6829,0.6587,0.5606,0.417,0.2298,0.0684,-0.1357,-0.3361,-0.3528,-0.3502,-0.3489,-0.3438,-0.3608,-0.3997,-0.4169,-0.4337,-0.4708,-0.5273,-0.545,-0.5652,-0.6057,-0.6259,-0.6259,-0.6461,-0.6463,-0.6463,-0.6463,-0.6463,-0.6463,-0.6466,-0.6466,-0.6463,-0.6869,-0.7068,-0.7062,-0.7669,-0.7867,-0.7867,-0.8471,-0.8676,-0.8877,-0.9279,-0.9392,-0.9428,-0.9798,-0.9898,-0.9905,-1.0483,-1.0707,-1.0589,-1.0869,-1.1009,-1.0929,-1.0954,-1.0824,-1.0753,-1.1403,-1.2414,-1.3583,-1.3901,-1.4383,-1.5867,-1.6854,-1.8137,-1.9715,-2.0356,-2.1217,-2.1885,-2.1969,-2.1716,-2.2013,-2.2712,-2.3067,-2.3042,-2.2707,-2.242,-2.2396,-2.2509,-2.2608,-2.2559,-2.2556,-2.2137,-2.1722,-2.1654,-2.1697,-2.1836,-2.1949,-2.2164,-2.2701,-2.328,-2.3567,-2.3944,-2.4268,-2.4424,-2.4524,-2.4553,-2.4456,-2.4247,-2.5259,-2.6753,-2.7138,-2.7648,-2.879,-3.0083,-3.1302,-3.2281,-3.2906,-3.3672,-3.3652,-3.3858,-3.4744,-3.6126,-3.6985,-3.7446,-3.7398,0.6112,0.5854,0.4646,0.2766,0.0686,-0.0907,-0.2249,-0.3345,-0.3524,-0.3712,-0.3692,-0.3862,-0.4039,-0.4652,-0.4822,-0.4984,-0.535,-0.5709,-0.608,-0.6057,-0.6259,-0.6461,-0.6463,-0.6463,-0.6463,-0.6463,-0.6463,-0.6662,-0.6869,-0.689,-0.6901,-0.7313,-0.7509,-0.7711,-0.7711,-0.8082,-0.8471,-0.8471,-0.8877,-0.9279,-0.9279,-0.9681,-0.9977,-0.9836,-1.0179,-1.0482,-1.0668,-1.1056,-1.1468,-1.132,-1.1266,-1.1237,-1.1166,-1.1003,-1.0878,-1.0797,-1.1945,-1.359,-1.4923,-1.5231,-1.5867,-1.7182,-1.8164,-1.9469,-2.0586,-2.1286,-2.202,-2.2634,-2.2729,-2.2817,-2.2935,-2.3554,-2.3618,-2.3366,-2.3005,-2.2707,-2.2707,-2.2992,-2.3154,-2.3091,-2.305,-2.2772,-2.2013,-2.2203,-2.2217,-2.2315,-2.2467,-2.2802,-2.3179,-2.3567,-2.4025,-2.4487,-2.5041,-2.5397,-2.577,-2.5783,-2.6357,-2.6269,-2.7846,-2.9055,-2.891,-2.9521,-3.0478,-3.1671,-3.269,-3.356,-3.4113,-3.4576,-3.4952,-3.524,-3.597,-3.6664,-3.777,-3.8387,-3.836,0.5394,0.4652,0.3,0.1373,-0.0454,-0.2476,-0.3577,-0.3546,-0.3735,-0.3921,-0.4319,-0.4492,-0.4687,-0.5113,-0.5483,-0.5862,-0.5814,-0.6162,-0.6309,-0.6477,-0.6463,-0.6463,-0.6463,-0.6463,-0.6463,-0.6461,-0.6463,-0.6872,-0.7092,-0.734,-0.7776,-0.7987,-0.8195,-0.8181,-0.8368,-0.8723,-0.8892,-0.9078,-0.948,-0.9681,-0.9882,-1.0275,-1.0383,-1.041,-1.0713,-1.121,-1.1431,-1.1668,-1.1922,-1.1819,-1.1493,-1.133,-1.1264,-1.1041,-1.0922,-1.1379,-1.3325,-1.5104,-1.6097,-1.6723,-1.7182,-1.8328,-1.9469,-2.0455,-2.1427,-2.2211,-2.2671,-2.3152,-2.3635,-2.3781,-2.4246,-2.4534,-2.4298,-2.3877,-2.3651,-2.3587,-2.3587,-2.3451,-2.3438,-2.3426,-2.3197,-2.3075,-2.2832,-2.2563,-2.2587,-2.2867,-2.3034,-2.3346,-2.3714,-2.4161,-2.4836,-2.543,-2.5965,-2.6619,-2.6778,-2.7063,-2.8067,-2.8803,-3.1133,-3.2151,-3.0901,-3.1235,-3.2114,-3.3122,-3.3979,-3.4615,-3.5142,-3.563,-3.6119,-3.6221,-3.6684,-3.7686,-3.8717,-3.8972,-3.9141,0.4453,0.3022,0.1384,-0.0229,-0.1589,-0.2927,-0.3796,-0.4207,-0.4171,-0.4569,-0.4963,-0.492,-0.533,-0.5751,-0.5919,-0.609,-0.6481,-0.6396,-0.6518,-0.6469,-0.6463,-0.6463,-0.6463,-0.6665,-0.6461,-0.6662,-0.6864,-0.7291,-0.7537,-0.797,-0.8215,-0.8263,-0.8678,-0.8855,-0.9,-0.9185,-0.9544,-0.9492,-0.9681,-0.9882,-1.0284,-1.048,-1.0785,-1.0783,-1.121,-1.1482,-1.1978,-1.2053,-1.1938,-1.1808,-1.1656,-1.1827,-1.1648,-1.1485,-1.1521,-1.2252,-1.4173,-1.6444,-1.7763,-1.8046,-1.8328,-1.9795,-2.0617,-2.1599,-2.2556,-2.2889,-2.3199,-2.3508,-2.3768,-2.4281,-2.5361,-2.498,-2.4652,-2.4494,-2.4459,-2.4341,-2.4341,-2.4044,-2.3883,-2.3831,-2.3956,-2.4037,-2.4128,-2.3575,-2.3532,-2.3607,-2.3674,-2.3937,-2.4399,-2.472,-2.5534,-2.6239,-2.6838,-2.7405,-2.8197,-2.8632,-2.9829,-3.1077,-3.3367,-3.4659,-3.3348,-3.3275,-3.4104,-3.4648,-3.5261,-3.5811,-3.6294,-3.6917,-3.7411,-3.7343,-3.7405,-3.8241,-3.9082,-3.9448,-3.9776,0.2098,0.1387,-0.0229,-0.182,-0.316,-0.3805,-0.4218,-0.4623,-0.4802,-0.4977,-0.5583,-0.555,-0.5756,-0.6392,-0.6361,-0.6547,-0.6497,-0.6608,-0.6758,-0.6936,-0.6904,-0.7083,-0.73,-0.7282,-0.7062,-0.7065,-0.7465,-0.7705,-0.8167,-0.8427,-0.8892,-0.9169,-0.9384,-0.9549,-0.9467,-0.9632,-0.997,-1.01,-1.0083,-1.0279,-1.0881,-1.1082,-1.1386,-1.1578,-1.1776,-1.2047,-1.2167,-1.23,-1.2387,-1.227,-1.2506,-1.2507,-1.2273,-1.2109,-1.2134,-1.2677,-1.5439,-1.7678,-1.8951,-1.9356,-1.9632,-2.0779,-2.1599,-2.2234,-2.2889,-2.3211,-2.3532,-2.384,-2.4123,-2.4514,-2.6066,-2.5625,-2.5126,-2.5037,-2.4823,-2.4649,-2.4488,-2.4341,-2.4341,-2.4314,-2.4369,-2.4369,-2.4367,-2.4219,-2.4514,-2.4547,-2.4344,-2.4467,-2.5124,-2.558,-2.633,-2.6939,-2.755,-2.8259,-2.9234,-3.031,-3.1668,-3.3255,-3.5215,-3.5782,-3.52,-3.5426,-3.607,-3.6385,-3.6546,-3.7053,-3.7653,-3.8262,-3.8523,-3.8435,-3.854,-3.8993,-3.9516,-3.9886,-4.0149,-0.0231,-0.0459,-0.1822,-0.3164,-0.4478,-0.4668,-0.4848,-0.5238,-0.5417,-0.5592,-0.5976,-0.6182,-0.6392,-0.6605,-0.6815,-0.6782,-0.6924,-0.6853,-0.7023,-0.7635,-0.7563,-0.7744,-0.7954,-0.8123,-0.8096,-0.7682,-0.8093,-0.8543,-0.8837,-0.9312,-0.9388,-1.0085,-1.0311,-1.0245,-1.0157,-1.0082,-1.0397,-1.0502,-1.0681,-1.0881,-1.1282,-1.1879,-1.217,-1.2363,-1.2406,-1.2472,-1.2578,-1.2904,-1.304,-1.2923,-1.3713,-1.3693,-1.3115,-1.2729,-1.3095,-1.3101,-1.6726,-1.9104,-2.0273,-2.0669,-2.0779,-2.1438,-2.2245,-2.2889,-2.3199,-2.3532,-2.3852,-2.416,-2.4442,-2.4685,-2.6106,-2.5953,-2.5478,-2.5197,-2.489,-2.4703,-2.4636,-2.4636,-2.4488,-2.4623,-2.4583,-2.4502,-2.4555,-2.4434,-2.5036,-2.5397,-2.5194,-2.5263,-2.5781,-2.6417,-2.7156,-2.7939,-2.8547,-2.9679,-3.0643,-3.1546,-3.2923,-3.4784,-3.6796,-3.6929,-3.6864,-3.7258,-3.7493,-3.736,-3.7645,-3.8208,-3.8534,-3.8908,-3.9082,-3.921,-3.9494,-3.9757,-4.0083,-4.0454,-4.0649,-0.1835,-0.2959,-0.3864,-0.428,-0.4445,-0.4875,-0.5486,-0.5848,-0.583,-0.6229,-0.661,-0.6605,-0.6605,-0.6818,-0.6818,-0.6994,-0.7363,-0.7315,-0.7711,-0.8106,-0.8043,-0.8225,-0.8392,-0.876,-0.8756,-0.8771,-0.8771,-0.9038,-0.9365,-0.9639,-1.0089,-1.0378,-1.0606,-1.0739,-1.0825,-1.0947,-1.1056,-1.1124,-1.1091,-1.1483,-1.1884,-1.2074,-1.2389,-1.2569,-1.2825,-1.2887,-1.3157,-1.3676,-1.4171,-1.4024,-1.5181,-1.5557,-1.517,-1.4008,-1.3966,-1.5353,-1.8121,-2.0507,-2.1622,-2.1492,-2.1933,-2.2567,-2.305,-2.3199,-2.368,-2.4012,-2.432,-2.4467,-2.4773,-2.5358,-2.6333,-2.6195,-2.594,-2.563,-2.5184,-2.4917,-2.473,-2.4676,-2.4663,-2.4636,-2.4636,-2.4623,-2.4676,-2.4915,-2.5472,-2.5983,-2.6025,-2.6213,-2.6822,-2.7575,-2.8357,-2.9107,-2.9838,-3.1084,-3.2333,-3.3062,-3.4147,-3.5918,-3.7611,-3.8109,-3.8233,-3.857,-3.875,-3.8402,-3.8534,-3.8861,-3.9188,-3.9473,-3.9473,-3.9451,-3.9866,-4.0301,-4.0649,-4.0976,-4.1427,-0.342,-0.4087,-0.4727,-0.5135,-0.5311,-0.5483,-0.5873,-0.6476,-0.6446,-0.6631,-0.6826,-0.6818,-0.6818,-0.6818,-0.6818,-0.7223,-0.7619,-0.7996,-0.8406,-0.8803,-0.8711,-0.8862,-0.9034,-0.9389,-0.9377,-0.9389,-0.9412,-0.9494,-0.9643,-1.0282,-1.0551,-1.083,-1.1276,-1.1409,-1.1281,-1.1409,-1.1715,-1.1787,-1.1718,-1.1884,-1.2484,-1.2489,-1.2781,-1.3038,-1.328,-1.3351,-1.3988,-1.4455,-1.4966,-1.5617,-1.6405,-1.7152,-1.7111,-1.6679,-1.6025,-1.7016,-1.9418,-2.1616,-2.2538,-2.238,-2.2728,-2.3038,-2.3359,-2.368,-2.4012,-2.4332,-2.4639,-2.4933,-2.5422,-2.5885,-2.6373,-2.6316,-2.6256,-2.5899,-2.5478,-2.5184,-2.4957,-2.489,-2.4958,-2.4864,-2.4837,-2.4811,-2.4596,-2.5038,-2.5842,-2.6296,-2.6735,-2.7304,-2.7855,-2.8753,-2.9617,-3.066,-3.1525,-3.2752,-3.3826,-3.4284,-3.5239,-3.7004,-3.8264,-3.8758,-3.9094,-3.9252,-3.9231,-3.9188,-3.9341,-3.9473,-3.9625,-3.9757,-3.9713,-3.9801,-4.0062,-4.0473,-4.1147,-4.173,-4.207,-0.4748,-0.4741,-0.5336,-0.5738,-0.6157,-0.6081,-0.6469,-0.6883,-0.6839,-0.682,-0.6818,-0.703,-0.703,-0.6818,-0.703,-0.7453,-0.8083,-0.844,-0.8857,-0.927,-0.9338,-0.9471,-0.9656,-1.0015,-0.9953,-1.0011,-1.0223,-1.0115,-1.0049,-1.0495,-1.1181,-1.146,-1.1911,-1.205,-1.1924,-1.2033,-1.2144,-1.2227,-1.2341,-1.2489,-1.289,-1.3084,-1.3228,-1.3696,-1.3756,-1.4199,-1.52,-1.5626,-1.6501,-1.7367,-1.8174,-1.8732,-1.9437,-1.9195,-1.8716,-1.8569,-2.1166,-2.2488,-2.286,-2.2981,-2.3293,-2.3544,-2.3852,-2.4172,-2.4492,-2.4811,-2.4958,-2.5396,-2.5885,-2.6386,-2.6373,-2.637,-2.6208,-2.6074,-2.5718,-2.5504,-2.5429,-2.5445,-2.5541,-2.5419,-2.512,-2.5012,-2.4945,-2.5653,-2.6589,-2.7583,-2.8021,-2.8351,-2.9073,-3.0033,-3.1162,-3.2421,-3.3484,-3.4708,-3.5335,-3.5355,-3.636,-3.7924,-3.8849,-3.9401,-3.9601,-3.9625,-3.9625,-3.9757,-3.9866,-4.0127,-4.0127,-4.0127,-4.0084,-4.017,-4.0234,-4.0817,-4.1814,-4.2673,-4.3182,-0.4666,-0.5328,-0.5716,-0.6105,-0.6067,-0.6479,-0.666,-0.6831,-0.6823,-0.6818,-0.6818,-0.7237,-0.7234,-0.7226,-0.7868,-0.8511,-0.8911,-0.9067,-0.9449,-0.9864,-0.9756,-0.9877,-0.9844,-1.0228,-1.0384,-1.0608,-1.0816,-1.0737,-1.0427,-1.0678,-1.1373,-1.2084,-1.2495,-1.2655,-1.2471,-1.2621,-1.292,-1.2754,-1.2901,-1.289,-1.309,-1.349,-1.3813,-1.4287,-1.4925,-1.5753,-1.6744,-1.735,-1.8176,-1.9259,-2.0033,-2.0743,-2.1403,-2.1136,-2.1054,-2.1353,-2.2566,-2.3885,-2.3786,-2.3726,-2.392,-2.4258,-2.4344,-2.4652,-2.497,-2.5435,-2.5753,-2.6228,-2.6386,-2.6386,-2.64,-2.636,-2.6213,-2.6079,-2.6101,-2.6053,-2.6003,-2.6226,-2.6309,-2.665,-2.6509,-2.5917,-2.5442,-2.6457,-2.7334,-2.8489,-2.9454,-2.9809,-3.0463,-3.1742,-3.2862,-3.426,-3.5158,-3.6228,-3.6749,-3.6764,-3.7319,-3.8723,-3.9337,-3.9908,-3.9952,-3.9888,-4.0149,-4.0279,-4.0388,-4.0517,-4.0517,-4.0517,-4.0603,-4.0515,-4.0555,-4.1633,-4.2801,-4.3608,-4.4386,-0.5473,-0.5711,-0.6318,-0.6499,-0.6474,-0.6658,-0.6842,-0.682,-0.7243,-0.7243,-0.7447,-0.7837,-0.8012,-0.7774,-0.8811,-0.9229,-0.9221,-0.94,-0.98,-0.9987,-1.0124,-1.0262,-1.0423,-1.078,-1.095,-1.1161,-1.1161,-1.1208,-1.1134,-1.1423,-1.2112,-1.2776,-1.299,-1.2937,-1.2816,-1.2968,-1.3096,-1.2999,-1.3134,-1.329,-1.349,-1.4077,-1.5049,-1.5763,-1.6328,-1.7328,-1.8351,-1.8861,-1.9851,-2.0936,-2.1761,-2.2374,-2.2861,-2.2778,-2.2505,-2.2967,-2.459,-2.5555,-2.5508,-2.4784,-2.4726,-2.4889,-2.4924,-2.497,-2.5448,-2.5911,-2.6228,-2.6386,-2.6386,-2.64,-2.64,-2.64,-2.6333,-2.6239,-2.6472,-2.6479,-2.6625,-2.7032,-2.7254,-2.7597,-2.792,-2.7507,-2.7303,-2.8088,-2.9477,-3.0762,-3.1397,-3.1588,-3.2607,-3.3819,-3.5032,-3.6269,-3.6873,-3.7482,-3.7863,-3.8067,-3.8312,-3.9252,-3.9733,-4.0149,-4.0192,-4.0279,-4.0539,-4.0669,-4.0906,-4.0906,-4.1035,-4.1013,-4.0991,-4.0985,-4.0851,-4.227,-4.3711,-4.4832,-4.5552,-0.6276,-0.6295,-0.6689,-0.6886,-0.6883,-0.6837,-0.6818,-0.703,-0.7453,-0.7656,-0.8048,-0.8203,-0.8553,-0.8721,-0.9342,-0.9557,-0.9331,-0.9926,-1.0124,-1.0296,-1.0444,-1.0798,-1.0969,-1.132,-1.1493,-1.1488,-1.1698,-1.1949,-1.2009,-1.2288,-1.2559,-1.3038,-1.307,-1.3227,-1.3183,-1.3124,-1.3053,-1.3396,-1.3925,-1.4089,-1.4283,-1.528,-1.6268,-1.7159,-1.7764,-1.8704,-2.0175,-2.0609,-2.1325,-2.2606,-2.3148,-2.3764,-2.4441,-2.4152,-2.4062,-2.4511,-2.5738,-2.6626,-2.6478,-2.6147,-2.5628,-2.5588,-2.5718,-2.5711,-2.5911,-2.6228,-2.64,-2.64,-2.64,-2.6558,-2.6716,-2.6729,-2.686,-2.7004,-2.7134,-2.7167,-2.7367,-2.8072,-2.8644,-2.9213,-2.9549,-2.9864,-2.9875,-3.0371,-3.1597,-3.3128,-3.3534,-3.3559,-3.4541,-3.5925,-3.6777,-3.7722,-3.82,-3.8604,-3.8814,-3.9078,-3.9473,-3.9778,-4.0258,-4.0388,-4.0431,-4.0647,-4.0906,-4.1035,-4.1293,-4.1527,-4.1655,-4.1655,-4.1482,-4.1407,-4.1673,-4.3177,-4.4563,-4.5822,-4.6799,-0.6878,-0.6831,-0.6826,-0.6826,-0.6828,-0.682,-0.703,-0.7444,-0.7662,-0.8045,-0.8396,-0.8542,-0.912,-0.9522,-0.9716,-0.9922,-0.9938,-1.0274,-1.0444,-1.0811,-1.0955,-1.132,-1.1507,-1.1698,-1.2089,-1.2084,-1.2284,-1.2495,-1.2706,-1.2749,-1.2866,-1.2995,-1.3172,-1.3151,-1.3311,-1.3458,-1.3604,-1.3948,-1.4694,-1.528,-1.5671,-1.6658,-1.7848,-1.8568,-1.9497,-2.0428,-2.1554,-2.2104,-2.279,-2.4086,-2.4452,-2.4934,-2.5611,-2.5511,-2.5407,-2.5682,-2.6314,-2.7225,-2.7369,-2.6942,-2.6517,-2.641,-2.6449,-2.6334,-2.6334,-2.6413,-2.64,-2.6386,-2.6373,-2.6729,-2.7231,-2.7574,-2.7717,-2.7661,-2.7805,-2.8388,-2.8769,-2.9559,-3.0161,-3.0669,-3.1157,-3.1706,-3.2026,-3.2459,-3.3769,-3.5319,-3.565,-3.5668,-3.6694,-3.7924,-3.8324,-3.8904,-3.9416,-3.9523,-3.9537,-3.9735,-3.9844,-4.0149,-4.0627,-4.0735,-4.0799,-4.1035,-4.1421,-4.155,-4.1783,-4.2038,-4.242,-4.265,-4.2557,-4.1982,-4.2358,-4.3955,-4.5551,-4.6889,-4.7581,-0.6839,-0.6815,-0.6777,-0.6785,-0.6818,-0.7243,-0.7432,-0.761,-0.8236,-0.8796,-0.9304,-0.9467,-0.9632,-0.9804,-1.0193,-1.0392,-1.0388,-1.0766,-1.095,-1.1138,-1.1507,-1.1688,-1.1889,-1.2289,-1.269,-1.269,-1.289,-1.289,-1.289,-1.289,-1.2917,-1.3004,-1.3042,-1.3206,-1.3368,-1.3971,-1.4531,-1.5106,-1.6069,-1.6665,-1.7055,-1.8023,-1.9207,-2.0389,-2.1202,-2.2354,-2.3402,-2.3767,-2.4529,-2.5195,-2.556,-2.6218,-2.6641,-2.6556,-2.6643,-2.6723,-2.7362,-2.7695,-2.7865,-2.742,-2.6926,-2.6954,-2.6839,-2.6787,-2.6653,-2.652,-2.64,-2.636,-2.6544,-2.6915,-2.7532,-2.8389,-2.9061,-2.8646,-2.8744,-2.9353,-3.0129,-3.0901,-3.1807,-3.2233,-3.3095,-3.3563,-3.4075,-3.4468,-3.5851,-3.7364,-3.7671,-3.7953,-3.8966,-3.9636,-3.9903,-3.992,-4.0295,-4.0313,-4.0322,-4.0127,-4.0127,-4.0561,-4.1039,-4.1102,-4.1315,-4.1655,-4.2038,-4.2166,-4.2546,-4.3051,-4.3529,-4.3903,-4.376,-4.3103,-4.362,-4.4988,-4.6491,-4.8028,-4.8472,-0.679,-0.6997,-0.6935,-0.6946,-0.6997,-0.7405,-0.7792,-0.817,-0.8789,-0.9342,-0.9816,-0.9995,-0.9945,-0.989,-1.0489,-1.0895,-1.1105,-1.1297,-1.1488,-1.1688,-1.2089,-1.2284,-1.2484,-1.269,-1.289,-1.289,-1.289,-1.289,-1.289,-1.309,-1.3101,-1.3307,-1.3484,-1.3695,-1.3895,-1.5081,-1.587,-1.6268,-1.7657,-1.8639,-1.8837,-1.9782,-2.0764,-2.2116,-2.3113,-2.3862,-2.4667,-2.5106,-2.5411,-2.6106,-2.647,-2.7015,-2.7448,-2.7646,-2.7586,-2.7874,-2.8126,-2.8195,-2.797,-2.7861,-2.7376,-2.7455,-2.7281,-2.7094,-2.7082,-2.6921,-2.7054,-2.6973,-2.6919,-2.7196,-2.8188,-2.9769,-3.0197,-2.9763,-3.0469,-3.1055,-3.1654,-3.2419,-3.318,-3.3936,-3.4619,-3.5479,-3.6146,-3.6532,-3.7893,-3.907,-3.9096,-3.9573,-4.0248,-4.0771,-4.108,-4.1113,-4.1223,-4.1172,-4.0979,-4.0651,-4.0498,-4.1195,-4.1584,-4.164,-4.1829,-4.2234,-4.2719,-4.2925,-4.3428,-4.4051,-4.4669,-4.5037,-4.4719,-4.411,-4.5303,-4.6831,-4.7818,-4.9229,-4.9551,-0.694,-0.7354,-0.75,-0.7509,-0.7558,-0.7503,-0.8097,-0.8914,-0.9113,-0.9475,-0.9795,-1.0336,-1.0292,-1.0074,-1.0881,-1.1287,-1.1688,-1.1889,-1.2084,-1.2284,-1.2484,-1.2684,-1.289,-1.289,-1.289,-1.289,-1.289,-1.289,-1.309,-1.329,-1.349,-1.4083,-1.4682,-1.4875,-1.4089,-1.5877,-1.7062,-1.7855,-1.9635,-2.062,-2.1005,-2.1744,-2.2711,-2.3829,-2.4652,-2.5373,-2.5825,-2.6191,-2.6494,-2.6664,-2.7377,-2.7739,-2.7883,-2.8207,-2.8397,-2.8484,-2.8391,-2.83,-2.8182,-2.827,-2.8144,-2.7888,-2.7727,-2.7784,-2.7799,-2.7866,-2.7932,-2.7942,-2.7767,-2.8684,-3.0026,-3.1302,-3.1433,-3.1559,-3.2114,-3.2956,-3.3585,-3.4346,-3.5326,-3.6098,-3.6775,-3.7326,-3.802,-3.8747,-4.0083,-4.074,-4.0781,-4.1025,-4.1431,-4.1869,-4.2054,-4.2123,-4.2049,-4.1878,-4.1684,-4.0913,-4.087,-4.17,-4.2289,-4.2609,-4.2729,-4.3217,-4.3505,-4.382,-4.4688,-4.5674,-4.6066,-4.6301,-4.608,-4.603,-4.7792,-4.9165,-4.9764,-5.0247,-5.0648,-0.6915,-0.7497,-0.7429,-0.7825,-0.8465,-0.8493,-0.8678,-0.903,-0.9389,-0.9755,-1.013,-1.0489,-1.048,-1.0676,-1.1278,-1.1884,-1.1889,-1.2489,-1.269,-1.269,-1.289,-1.289,-1.289,-1.289,-1.289,-1.289,-1.289,-1.309,-1.349,-1.3889,-1.4289,-1.4881,-1.6268,-1.6658,-1.6857,-1.8053,-1.9232,-2.0029,-2.1603,-2.2779,-2.2965,-2.3286,-2.4238,-2.5464,-2.6386,-2.6899,-2.7005,-2.7085,-2.722,-2.7571,-2.8101,-2.8281,-2.8449,-2.8808,-2.8908,-2.9185,-2.9367,-2.9179,-2.9186,-2.9001,-2.8796,-2.8465,-2.8315,-2.8359,-2.8551,-2.8818,-2.9086,-2.9191,-2.8768,-2.9983,-3.1616,-3.3684,-3.4216,-3.3562,-3.402,-3.5088,-3.5858,-3.691,-3.7839,-3.8593,-3.9226,-3.922,-3.9605,-4.0596,-4.1791,-4.2174,-4.2046,-4.1919,-4.23,-4.2538,-4.2783,-4.2732,-4.2676,-4.2613,-4.246,-4.2016,-4.1971,-4.2677,-4.3471,-4.3932,-4.4137,-4.4172,-4.4833,-4.544,-4.6414,-4.7355,-4.7714,-4.7966,-4.7854,-4.8328,-4.9887,-5.0963,-5.1529,-5.1789,-5.185,-0.7265,-0.7632,-0.7766,-0.8347,-0.9162,-0.9012,-0.9,-0.9353,-0.9706,-1.0284,-1.0485,-1.0886,-1.0881,-1.1278,-1.1884,-1.2284,-1.2284,-1.269,-1.289,-1.289,-1.289,-1.289,-1.289,-1.289,-1.309,-1.309,-1.329,-1.349,-1.4289,-1.4488,-1.5479,-1.7055,-1.8046,-1.9034,-1.9626,-2.0414,-2.1005,-2.1995,-2.3561,-2.4535,-2.4709,-2.5045,-2.5753,-2.6816,-2.7712,-2.8197,-2.8162,-2.8049,-2.8101,-2.8474,-2.8655,-2.8835,-2.8989,-2.9117,-2.9217,-2.9837,-3.0082,-2.9982,-2.9884,-2.9509,-2.9328,-2.9286,-2.8952,-2.9035,-2.9505,-2.9707,-3.0454,-3.0514,-3.0101,-3.148,-3.3451,-3.5708,-3.6517,-3.5678,-3.6093,-3.7158,-3.8024,-3.8899,-3.9674,-4.0464,-4.1022,-4.1041,-4.1193,-4.2352,-4.3408,-4.3512,-4.3306,-4.3175,-4.3045,-4.3119,-4.3375,-4.3388,-4.3462,-4.3509,-4.3444,-4.3354,-4.3487,-4.3819,-4.4573,-4.5348,-4.5184,-4.5318,-4.6148,-4.7055,-4.7906,-4.8666,-4.9515,-4.9718,-4.9693,-5.0468,-5.1972,-5.2767,-5.3337,-5.3226,-5.2972,-0.7773,-0.8167,-0.8709,-0.9082,-0.9484,-0.9299,-0.9291,-0.9685,-1.0284,-1.0485,-1.0681,-1.1683,-1.1683,-1.1673,-1.2484,-1.2884,-1.2884,-1.289,-1.289,-1.289,-1.289,-1.289,-1.289,-1.309,-1.329,-1.349,-1.3889,-1.4482,-1.528,-1.6474,-1.7855,-1.9429,-2.0414,-2.1397,-2.2191,-2.2573,-2.2769,-2.3756,-2.4924,-2.5701,-2.6067,-2.6829,-2.7314,-2.814,-2.8667,-2.8955,-2.8863,-2.8729,-2.8732,-2.8848,-2.9002,-2.9182,-2.9515,-2.9668,-2.982,-3.0233,-3.0405,-3.0606,-3.0439,-2.993,-3.004,-3.0179,-2.9969,-3.0136,-3.0607,-3.0836,-3.1617,-3.2212,-3.2205,-3.3645,-3.5282,-3.6958,-3.8642,-3.8502,-3.8494,-3.9338,-4.0019,-4.0753,-4.1393,-4.201,-4.2604,-4.2837,-4.3337,-4.4294,-4.4936,-4.4781,-4.4568,-4.4118,-4.3963,-4.358,-4.3836,-4.409,-4.4253,-4.4458,-4.4392,-4.4346,-4.4704,-4.499,-4.5964,-4.6538,-4.6472,-4.6616,-4.7728,-4.8536,-4.9251,-5.0054,-5.1136,-5.1508,-5.1449,-5.2506,-5.3468,-5.4041,-5.4296,-5.4041,-5.3813,-0.7947,-0.8709,-0.8888,-0.9279,-0.9681,-0.9882,-1.0083,-1.0279,-1.0881,-1.1282,-1.1688,-1.1884,-1.2284,-1.2484,-1.2684,-1.289,-1.289,-1.289,-1.289,-1.289,-1.289,-1.289,-1.309,-1.329,-1.349,-1.3889,-1.4482,-1.5472,-1.6864,-1.8053,-1.9635,-2.1013,-2.2378,-2.3561,-2.4341,-2.4924,-2.4924,-2.5313,-2.6476,-2.7056,-2.7634,-2.8212,-2.8703,-2.9152,-2.9545,-2.9827,-2.9689,-2.9417,-2.9404,-2.994,-3.0079,-3.0258,-3.0781,-3.0342,-3.0136,-3.192,-3.1944,-3.1758,-3.1009,-3.1175,-3.1234,-3.1209,-3.1164,-3.1331,-3.1647,-3.2144,-3.2968,-3.3544,-3.405,-3.502,-3.7135,-3.9096,-4.0139,-4.0376,-4.0586,-4.1158,-4.1877,-4.2481,-4.3102,-4.3679,-4.4124,-4.427,-4.4939,-4.5843,-4.6257,-4.6029,-4.5743,-4.5265,-4.4721,-4.4474,-4.4273,-4.4548,-4.48,-4.4937,-4.5165,-4.5183,-4.5768,-4.6328,-4.7173,-4.7938,-4.793,-4.8298,-4.9292,-5.0223,-5.1005,-5.2111,-5.3103,-5.3243,-5.2861,-5.3689,-5.463,-5.5004,-5.5205,-5.4893,-5.4753,-0.8312,-0.8881,-0.9078,-0.948,-1.0079,-1.0886,-1.1082,-1.1287,-1.1488,-1.1884,-1.2084,-1.2289,-1.2684,-1.289,-1.289,-1.289,-1.289,-1.289,-1.289,-1.289,-1.309,-1.329,-1.349,-1.3889,-1.4488,-1.4881,-1.587,-1.7055,-1.8441,-2.0611,-2.2387,-2.2974,-2.4146,-2.5119,-2.6089,-2.6669,-2.6863,-2.7056,-2.7634,-2.8212,-2.8608,-2.9171,-2.9504,-3.0001,-3.02,-3.0329,-3.0517,-3.0239,-3.0569,-3.0849,-3.0794,-3.0959,-3.1301,-3.0712,-3.104,-3.2409,-3.31,-3.2699,-3.2126,-3.197,-3.216,-3.2266,-3.2489,-3.2803,-3.2968,-3.3444,-3.4262,-3.5025,-3.5325,-3.6375,-3.8901,-4.123,-4.1601,-4.1927,-4.2503,-4.3248,-4.3705,-4.4289,-4.4741,-4.5319,-4.5509,-4.5483,-4.6117,-4.7029,-4.759,-4.7235,-4.678,-4.6252,-4.5568,-4.5025,-4.4936,-4.4937,-4.521,-4.5483,-4.5708,-4.5955,-4.6422,-4.7208,-4.8558,-4.919,-4.9302,-4.9874,-5.061,-5.1786,-5.2998,-5.3752,-5.4176,-5.4295,-5.4248,-5.497,-5.5289,-5.5697,-5.5814,-5.5613,-5.5528,-0.8877,-0.9078,-0.948,-1.0083,-1.0681,-1.1683,-1.2089,-1.2084,-1.2089,-1.2089,-1.2284,-1.2684,-1.289,-1.289,-1.289,-1.309,-1.309,-1.309,-1.329,-1.309,-1.369,-1.3889,-1.4283,-1.4881,-1.5678,-1.6474,-1.7459,-1.8837,-2.0603,-2.2573,-2.4341,-2.4924,-2.5895,-2.6863,-2.7442,-2.8212,-2.8404,-2.8596,-2.8788,-2.9171,-2.9363,-2.9695,-2.9988,-3.0616,-3.0888,-3.1289,-3.1185,-3.129,-3.1333,-3.1304,-3.1329,-3.1329,-3.1465,-3.1437,-3.2131,-3.2852,-3.3656,-3.3685,-3.3288,-3.3107,-3.289,-3.314,-3.3312,-3.4115,-3.4588,-3.4571,-3.5383,-3.6281,-3.6905,-3.8134,-4.0452,-4.2416,-4.3341,-4.3371,-4.3746,-4.4352,-4.4805,-4.5256,-4.5853,-4.6129,-4.6233,-4.6227,-4.6499,-4.7389,-4.7941,-4.8079,-4.7712,-4.7133,-4.6721,-4.6034,-4.576,-4.5805,-4.5826,-4.6122,-4.6412,-4.6634,-4.7003,-4.7967,-4.952,-5.0276,-5.0308,-5.0968,-5.1872,-5.2983,-5.3981,-5.4433,-5.4762,-5.4852,-5.4942,-5.5295,-5.5757,-5.6276,-5.6392,-5.6191,-5.6221,-0.948,-0.948,-1.0083,-1.0886,-1.1683,-1.1884,-1.2289,-1.269,-1.269,-1.269,-1.2684,-1.289,-1.289,-1.289,-1.289,-1.309,-1.3495,-1.369,-1.3884,-1.4083,-1.4682,-1.5081,-1.5273,-1.6467,-1.7261,-1.7855,-1.9042,-2.1005,-2.2965,-2.4719,-2.6078,-2.6669,-2.7442,-2.8212,-2.8608,-2.9363,-2.9746,-2.9746,-3.0128,-3.0128,-3.0128,-3.0522,-3.0851,-3.1367,-3.1881,-3.2107,-3.2094,-3.2028,-3.2183,-3.211,-3.1991,-3.2054,-3.2337,-3.2455,-3.2602,-3.2969,-3.4303,-3.4705,-3.4454,-3.406,-3.4048,-3.4129,-3.4604,-3.5578,-3.6046,-3.6046,-3.6637,-3.7506,-3.8716,-4.0123,-4.1614,-4.3545,-4.4778,-4.4782,-4.4805,-4.5256,-4.5704,-4.6151,-4.6743,-4.6891,-4.6847,-4.6971,-4.7073,-4.7558,-4.8132,-4.8361,-4.8113,-4.7909,-4.7816,-4.7493,-4.7307,-4.719,-4.6884,-4.704,-4.717,-4.7399,-4.7606,-4.8731,-5.0226,-5.0896,-5.1298,-5.2245,-5.3078,-5.3833,-5.458,-5.4908,-5.5144,-5.5261,-5.5468,-5.5616,-5.6278,-5.6795,-5.7024,-5.7052,-5.7051,-0.9882,-1.0079,-1.0886,-1.1483,-1.2084,-1.2289,-1.269,-1.289,-1.289,-1.289,-1.289,-1.289,-1.289,-1.309,-1.309,-1.349,-1.4095,-1.4283,-1.4482,-1.5081,-1.587,-1.6268,-1.7055,-1.8244,-1.8845,-1.9635,-2.1594,-2.3561,-2.5302,-2.6465,-2.7634,-2.8212,-2.898,-2.9363,-2.9758,-3.0128,-3.07,-3.089,-3.1284,-3.1474,-3.127,-3.1664,-3.1853,-3.2421,-3.2556,-3.2807,-3.2915,-3.2789,-3.2842,-3.3067,-3.3102,-3.3132,-3.3425,-3.3395,-3.3731,-3.4319,-3.524,-3.5826,-3.5435,-3.5369,-3.536,-3.5539,-3.6046,-3.7188,-3.8426,-3.8426,-3.904,-3.9888,-3.9834,-4.1069,-4.2861,-4.463,-4.5105,-4.5148,-4.5555,-4.6151,-4.6448,-4.6743,-4.7208,-4.7332,-4.7457,-4.7457,-4.7726,-4.8209,-4.876,-4.8928,-4.8798,-4.8777,-4.8779,-4.8897,-4.8756,-4.8707,-4.8487,-4.8154,-4.8284,-4.8209,-4.8313,-4.9636,-5.1203,-5.1884,-5.2625,-5.3498,-5.4433,-5.4671,-5.5054,-5.5261,-5.5496,-5.5613,-5.556,-5.5534,-5.6423,-5.7368,-5.7652,-5.779,-5.798,-1.0079,-1.0881,-1.1683,-1.2089,-1.2289,-1.269,-1.289,-1.289,-1.289,-1.2873,-1.3062,-1.3073,-1.309,-1.309,-1.349,-1.369,-1.4289,-1.5081,-1.5479,-1.6268,-1.7459,-1.8046,-1.9034,-2.0029,-2.121,-2.2378,-2.4136,-2.5701,-2.7249,-2.8212,-2.898,-2.9567,-2.9949,-3.0319,-3.0509,-3.0903,-3.1474,-3.1853,-3.2232,-3.2786,-3.2786,-3.2786,-3.2786,-3.2974,-3.3337,-3.3412,-3.3515,-3.3553,-3.3597,-3.3829,-3.4064,-3.4028,-3.4128,-3.4288,-3.4653,-3.5399,-3.6367,-3.6781,-3.6861,-3.6913,-3.705,-3.72,-3.7952,-3.8816,-4.0097,-4.0821,-4.1443,-4.1788,-4.1722,-4.214,-4.3945,-4.5191,-4.562,-4.5748,-4.6321,-4.6891,-4.7038,-4.7355,-4.7648,-4.7941,-4.8086,-4.8064,-4.8331,-4.8812,-4.9217,-4.9529,-4.965,-4.9556,-4.9724,-4.996,-5.0074,-5.021,-5.0336,-5.002,-4.9616,-4.934,-4.9289,-5.0766,-5.2279,-5.3095,-5.3836,-5.4304,-5.4817,-5.5144,-5.5379,-5.5641,-5.5845,-5.6049,-5.5878,-5.5794,-5.6993,-5.819,-5.8526,-5.877,-5.8862,-1.0881,-1.1884,-1.2084,-1.2284,-1.2684,-1.2884,-1.289,-1.289,-1.2879,-1.3035,-1.3376,-1.3444,-1.349,-1.3484,-1.369,-1.4289,-1.5479,-1.6275,-1.7261,-1.8053,-1.9437,-2.0029,-2.0808,-2.2378,-2.4136,-2.5496,-2.6465,-2.7623,-2.88,-2.9554,-3.0128,-3.0535,-3.1093,-3.1474,-3.2029,-3.2421,-3.2611,-3.28,-3.2974,-3.3351,-3.354,-3.354,-3.3351,-3.354,-3.3728,-3.4248,-3.4632,-3.4374,-3.4501,-3.4757,-3.4895,-3.4731,-3.4797,-3.4956,-3.5494,-3.6237,-3.7391,-3.87,-3.9032,-3.8883,-3.8994,-3.9387,-4.002,-4.0698,-4.1738,-4.2665,-4.3259,-4.4133,-4.4096,-4.382,-4.5063,-4.609,-4.6706,-4.681,-4.7061,-4.7355,-4.7648,-4.7941,-4.8255,-4.8546,-4.8691,-4.8575,-4.8436,-4.9175,-4.9864,-5.0151,-5.0199,-5.0128,-5.0506,-5.093,-5.1211,-5.1624,-5.1842,-5.1918,-5.1569,-5.0697,-5.0625,-5.2078,-5.3461,-5.4758,-5.5315,-5.492,-5.5283,-5.5979,-5.6043,-5.6075,-5.6249,-5.6652,-5.6593,-5.6705,-5.7927,-5.8918,-5.9389,-5.9567,-5.962]}]]